[[{"header":{"parameterUnit":"m.s-1","parameterCategory":1,"la1":31.0,"la2":29.5877,"lo1":-88.7671,"lo2":-86.6584,"dy":0.0162,"dx":0.0185,"nx":115,"ny":88,"refTime":"2023-04-06T18:00:00:Z","depth":0,"parameterNumber":2,"parameterNumberName":"U-component_of_WINDS"},"data":[0.0,0.0,0.0,0.0,0.0,0.0,0.0,0.0,0.0,0.0,0.0,0.0,0.0,0.0,0.0,0.0,0.0,0.0,0.0,0.0,0.0,0.0,0.0,0.0,0.0,0.0,0.0,0.0,0.0,0.0,0.0,0.0,0.0,0.0,0.0,0.0,0.0,0.0,0.0,0.0,0.0,0.0,0.0,0.0,0.0,0.0,0.0,0.0,0.0,0.0,0.0,0.0,0.0,0.0,0.0,0.0,0.0,0.0,0.0,0.0,0.0,0.0,0.0,0.0,0.0,0.0,0.0,0.0,0.0,0.0,0.0,0.0,0.0,0.0,0.0,0.0,0.0,0.0,0.0,0.0,0.0,0.0,0.0,0.0,0.0,0.0,0.0,0.0,0.0,0.0,0.0,0.0,0.0,0.0,0.0,0.0,0.0,0.0,0.0,0.0,0.0,0.0,0.0,0.0,0.0,0.0,0.0,0.0,0.0,0.0,0.0,0.0,0.0,0.0,0.0,0.0,0.0,0.0,0.0,0.0,0.0,0.0,0.0,0.0,0.0,0.0,0.0,0.0,0.0,0.0,0.0,0.0,0.0,0.0,0.0,0.0,0.0,0.0,0.0,0.0,0.0,0.0,0.0,0.0,0.0,0.0,0.0,0.0,0.0,0.0,0.0,0.0,0.0,0.0,0.0,0.0,0.0,0.0,0.0,0.0,0.0,0.0,0.0,0.0,0.0,0.0,0.0,0.0,0.0,0.0,0.0,0.0,0.0,0.0,0.0,0.0,0.0,0.0,0.0,0.0,0.0,0.0,0.0,0.0,0.0,0.0,0.0,0.0,0.0,0.0,0.0,0.0,0.0,0.0,0.0,0.0,0.0,0.0,0.0,0.0,0.0,0.0,0.0,0.0,0.0,0.0,0.0,0.0,0.0,0.0,0.0,0.0,0.0,0.0,0.0,0.0,0.0,0.0,0.0,0.0,0.0,0.0,0.0,0.0,0.0,0.0,0.0,0.0,0.0,0.0,0.0,0.0,0.0,0.0,0.0,0.0,0.0,0.0,0.0,0.0,0.0,0.0,0.0,0.0,0.0,0.0,0.0,0.0,0.0,0.0,0.0,0.0,0.0,0.0,0.0,0.0,0.0,0.0,0.0,0.0,0.0,0.0,0.0,0.0,0.0,0.0,0.0,0.0,0.0,0.0,0.0,0.0,0.0,0.0,0.0,0.0,0.0,0.0,0.0,0.0,0.0,0.0,0.0,0.0,0.0,0.0,0.0,0.0,0.0,0.0,0.0,0.0,0.0,0.0,0.0,0.0,0.0,0.0,0.0,0.0,0.0,0.0,0.0,0.0,0.0,0.0,0.0,0.0,0.0,0.0,0.0,0.0,0.0,0.0,0.0,0.0,0.0,0.0,0.0,0.0,0.0,0.0,0.0,0.0,0.0,0.0,0.0,0.0,0.0,0.0,0.0,0.0,0.0,0.0,0.0,0.0,0.0,0.0,0.0,0.0,0.0,0.0,0.0,0.0,0.0,0.0,0.0,0.0,0.0,0.0,0.0,0.0,0.0,0.0,0.0,0.0,0.0,0.0,0.0,0.0,0.0,0.0,0.0,0.0,0.0,0.0,0.0,0.0,0.0,0.0,0.0,0.0,0.0,0.0,0.0,0.0,0.0,0.0,0.0,0.0,0.0,0.0,0.0,0.0,0.0,0.0,0.0,0.0,0.0,0.0,0.0,0.0,0.0,0.0,0.0,0.0,0.0,0.0,0.0,0.0,0.0,0.0,0.0,0.0,0.0,0.0,0.0,0.0,0.0,0.0,0.0,0.0,0.0,0.0,0.0,0.0,0.0,0.0,0.0,0.0,0.0,0.0,0.0,0.0,0.0,0.0,0.0,0.0,0.0,0.0,0.0,0.0,0.0,0.0,0.0,0.0,0.0,0.0,0.0,0.0,0.0,0.0,0.0,0.0,0.0,0.0,0.0,0.0,0.0,0.0,0.0,0.0,0.0,0.0,0.0,0.0,0.0,0.0,0.0,0.0,0.0,0.0,0.0,0.0,0.0,0.0,0.0,0.0,0.0,0.0,0.0,0.0,0.0,0.0,0.0,0.0,0.0,0.0,0.0,0.0,0.0,0.0,0.0,0.0,0.0,0.0,0.0,0.0,0.0,0.0,0.0,0.0,0.0,0.0,0.0,0.0,0.0,0.0,0.0,0.0,0.0,0.0,0.0,0.0,0.0,0.0,0.0,0.0,0.0,0.0,0.0,0.0,0.0,0.0,0.0,0.0,0.0,0.0,0.0,0.0,0.0,0.0,0.0,0.0,0.0,0.0,0.0,0.0,0.0,0.0,0.0,0.0,0.0,0.0,0.0,0.0,0.0,0.0,0.0,0.0,0.0,0.0,0.0,0.0,0.0,0.0,0.0,0.0,0.0,0.0,0.0,0.0,0.0,0.0,0.0,0.0,0.0,0.0,0.0,0.0,0.0,0.0,0.0,0.0,0.0,0.0,0.0,0.0,0.0,0.0,0.0,0.0,0.0,0.0,0.0,0.0,0.0,0.0,0.0,0.0,0.0,0.0,0.0,0.0,0.0,0.0,0.0,0.0,0.0,0.0,0.0,0.0,0.0,0.0,0.0,0.0,0.0,0.0,0.0,0.0,0.0,0.0,0.0,0.0,0.0,0.0,0.0,0.0,0.0,0.0,0.0,0.0,0.0,0.0,0.0,0.0,0.0,0.0,0.0,0.0,0.0,0.0,0.0,0.0,0.0,0.0,0.0,0.0,0.0,0.0,0.0,0.0,0.0,0.0,0.0,0.0,0.0,0.0,0.0,0.0,0.0,0.0,0.0,0.0,0.0,0.0,0.0,0.0,0.0,0.0,0.0,0.0,0.0,0.0,0.0,0.0,0.0,0.0,0.0,0.0,0.0,0.0,0.0,0.0,0.0,0.0,0.0,0.0,0.0,0.0,0.0,0.0,0.0,0.0,0.0,0.0,0.0,0.0,0.0,0.0,0.0,0.0,0.0,0.0,0.0,0.0,0.0,0.0,0.0,0.0,0.0,0.0,0.0,0.0,0.0,0.0,0.0,0.0,0.0,0.0,0.0,0.0,0.0,0.0,0.0,0.0,0.0,0.0,0.0,0.0,0.0,0.0,0.0,0.0,0.0,0.0,0.0,0.0,0.0,0.0,0.0,0.0,0.0,0.0,0.0,0.0,0.0,0.0,0.0,0.0,0.0,0.0,0.0,0.0,0.0,0.0,0.0,0.0,0.0,0.0,0.0,0.0,0.0,0.0,0.0,0.0,0.0,0.0,0.0,0.0,0.0,0.0,0.0,0.0,0.0,0.0,0.0,0.0,0.0,0.0,0.0,0.0,0.0,0.0,0.0,0.0,0.0,0.0,0.0,0.0,0.0,0.0,0.0,0.0,0.0,0.0,0.0,0.0,0.0,0.0,0.0,0.0,0.0,0.0,0.0,0.0,0.0,0.0,0.0,0.0,0.0,0.0,0.0,0.0,0.0,0.0,0.0,0.0,0.0,0.0,0.0,0.0,0.0,0.0,0.0,0.0,0.0,0.0,0.0,0.0,0.0,0.0,0.0,0.0,0.0,0.0,0.0,0.0,0.0,0.0,0.0,0.0,0.0,0.0,0.0,0.0,0.0,0.0,0.0,0.0,0.0,0.0,0.0,0.0,0.0,0.0,0.0,0.0,0.0,0.0,0.0,0.0,0.0,0.0,0.0,0.0,0.0,0.0,0.0,0.0,0.0,0.0,0.0,0.0,0.0,0.0,0.0,0.0,0.0,0.0,0.0,0.0,0.0,0.0,0.0,0.0,0.0,0.0,0.0,0.0,0.0,0.0,0.0,0.0,0.0,0.0,0.0,0.0,0.0,0.0,0.0,0.0,0.0,0.0,0.0,0.0,0.0,0.0,0.0,0.0,0.0,0.0,0.0,0.0,0.0,0.0,0.0,0.0,0.0,0.0,0.0,0.0,0.0,0.0,0.0,0.0,0.0,0.0,0.0,0.0,0.0,0.0,0.0,0.0,0.0,0.0,0.0,0.0,0.0,0.0,0.0,0.0,0.0,0.0,0.0,0.0,0.0,0.0,0.0,0.0,0.0,0.0,0.0,0.0,0.0,0.0,0.0,0.0,0.0,0.0,0.0,0.0,0.0,0.0,0.0,0.0,0.0,0.0,0.0,0.0,0.0,0.0,0.0,0.0,0.0,0.0,0.0,0.0,0.0,0.0,0.0,0.0,0.0,0.0,0.0,0.0,1.6172,0.0,0.0,0.0,0.0,0.0,0.0,0.0,0.0,0.0,0.0,0.0,0.0,0.0,0.0,0.0,0.0,0.0,0.0,0.0,0.0,0.0,0.0,0.0,0.0,0.0,0.0,0.0,0.0,0.0,0.0,0.0,0.0,0.0,0.0,0.0,0.0,0.0,0.0,0.0,0.0,0.0,0.0,0.0,0.0,0.0,0.0,0.0,0.0,0.0,0.0,0.0,0.0,0.0,0.0,0.0,0.0,0.0,0.0,0.0,0.0,0.0,0.0,0.0,0.0,0.0,0.0,0.0,0.0,0.0,0.0,0.0,0.0,0.0,0.0,0.0,0.0,0.0,0.0,0.0,0.0,0.0,0.0,0.0,0.0,0.0,0.0,0.0,0.0,0.0,0.0,0.0,0.0,0.0,0.0,0.0,0.0,0.0,0.0,0.0,0.0,0.0,0.0,0.0,0.0,0.0,0.0,0.0,0.0,0.0,0.0,1.7584,1.5566,1.9609,1.9844,1.5649,0.0,0.0,0.0,0.0,0.0,0.0,0.0,0.0,0.0,0.0,0.0,0.0,0.0,0.0,0.0,0.0,0.0,0.0,0.0,0.0,0.0,0.0,0.0,0.0,0.0,0.0,0.0,0.0,0.0,0.0,0.0,0.0,0.0,0.0,0.0,0.0,0.0,0.0,0.0,0.0,0.0,0.0,0.0,0.0,0.0,0.0,0.0,0.0,0.0,0.0,0.0,0.0,0.0,0.0,0.0,0.0,0.0,0.0,0.0,0.0,0.0,0.0,0.0,0.0,0.0,0.0,0.0,0.0,0.0,0.0,0.0,0.0,0.0,0.0,0.0,0.0,0.0,0.0,0.0,0.0,0.0,0.0,0.0,0.0,0.0,0.0,0.0,0.0,0.0,0.0,0.0,0.0,0.0,0.0,0.0,0.0,0.0,0.0,0.0,0.0,0.0,0.0,0.0,0.0,0.0,0.0,0.0,0.0,0.0,0.0,0.0,0.0,1.9394,1.9531,1.6176,0.0,0.0,0.0,0.0,0.0,0.0,0.0,0.0,0.0,0.0,0.0,0.0,0.0,0.0,0.0,0.0,0.0,0.0,0.0,0.0,0.0,0.0,0.0,0.0,0.0,0.0,0.0,0.0,0.0,0.0,0.0,0.0,0.0,0.0,0.0,0.0,0.0,0.0,0.0,0.0,0.0,0.0,0.0,0.0,0.0,0.0,0.0,0.0,0.0,0.0,0.0,0.0,0.0,0.0,0.0,0.0,0.0,0.0,0.0,0.0,0.0,0.0,0.0,0.0,0.0,0.0,0.0,0.0,0.0,0.0,0.0,0.0,0.0,0.0,0.0,0.0,0.0,0.0,0.0,0.0,0.0,0.0,0.0,0.0,0.0,0.0,0.0,0.0,0.0,0.0,0.0,0.0,0.0,0.0,0.0,0.0,0.0,0.0,0.0,0.0,0.0,0.0,0.0,0.0,0.0,0.0,0.0,0.0,0.0,0.0,1.6527,1.8247,1.8695,0.0,1.7715,0.0,0.0,0.0,0.0,0.0,0.0,0.0,0.0,0.0,0.0,0.0,0.0,0.0,0.0,0.0,0.0,0.0,0.0,0.0,0.0,0.0,0.0,0.0,0.0,0.0,0.0,0.0,0.0,0.0,0.0,0.0,0.0,0.0,0.0,0.0,0.0,0.0,0.0,0.0,0.0,0.0,0.0,0.0,0.0,0.0,0.0,0.0,0.0,0.0,0.0,0.0,0.0,0.0,0.0,0.0,0.0,0.0,0.0,0.0,0.0,0.0,0.0,0.0,0.0,0.0,0.0,0.0,0.0,0.0,0.0,0.0,0.0,0.0,0.0,0.0,0.0,0.0,0.0,0.0,0.0,0.0,0.0,0.0,0.0,0.0,0.0,0.0,0.0,0.0,0.0,0.0,0.0,0.0,0.0,0.0,0.0,0.0,0.0,0.0,0.0,0.0,0.0,0.0,0.0,0.0,0.0,0.0,0.0,0.0,0.0,1.7074,1.8947,1.8734,1.8049,0.0,0.0,0.0,0.0,0.0,0.0,0.0,0.0,0.0,0.0,0.0,0.0,0.0,0.0,0.0,0.0,0.0,0.0,0.0,0.0,0.0,0.0,0.0,0.0,0.0,0.0,0.0,0.0,0.0,0.0,0.0,0.0,0.0,0.0,0.0,0.0,0.0,0.0,0.0,0.0,0.0,0.0,0.0,0.0,0.0,0.0,0.0,0.0,0.0,0.0,0.0,0.0,0.0,0.0,0.0,0.0,0.0,0.0,0.0,0.0,0.0,0.0,0.0,0.0,0.0,0.0,0.0,0.0,0.0,0.0,0.0,0.0,0.0,0.0,0.0,0.0,0.0,0.0,0.0,0.0,0.0,0.0,0.0,0.0,0.0,0.0,0.0,0.0,0.0,0.0,0.0,0.0,0.0,0.0,0.0,0.0,0.0,0.0,0.0,0.0,0.0,0.0,0.0,0.0,0.0,0.0,0.0,0.0,0.0,0.0,1.7759,1.8437,2.0,1.881,1.762,1.6637,0.0,0.0,0.0,0.0,0.0,0.0,0.0,0.0,0.0,0.0,0.0,0.0,0.0,0.0,0.0,0.0,0.0,0.0,0.0,0.0,0.0,0.0,0.0,0.0,0.0,0.0,0.0,0.0,0.0,0.0,0.0,0.0,0.0,0.0,0.0,0.0,0.0,0.0,0.0,0.0,0.0,0.0,0.0,0.0,0.0,0.0,0.0,0.0,0.0,0.0,0.0,0.0,0.0,0.0,0.0,0.0,0.0,0.0,0.0,0.0,0.0,0.0,0.0,0.0,0.0,0.0,0.0,0.0,0.0,0.0,0.0,0.0,0.0,0.0,0.0,0.0,0.0,0.0,0.0,0.0,0.0,0.0,0.0,0.0,0.0,0.0,0.0,0.0,0.0,0.0,0.0,0.0,0.0,0.0,0.0,0.0,0.0,0.0,0.0,0.0,0.0,0.0,0.0,0.0,0.0,0.0,0.0,0.0,2.1367,2.0391,2.0586,2.2168,1.8771,1.7171,0.0,0.0,0.0,0.0,0.0,0.0,0.0,0.0,0.0,0.0,0.0,0.0,0.0,0.0,0.0,0.0,0.0,0.0,0.0,0.0,0.0,0.0,0.0,0.0,0.0,0.0,0.0,0.0,0.0,0.0,0.0,0.0,0.0,0.0,0.0,0.0,0.0,0.0,0.0,0.0,0.0,0.0,0.0,0.0,0.0,0.0,0.0,0.0,0.0,0.0,0.0,0.0,0.0,0.0,0.0,0.0,0.0,0.0,0.0,0.0,0.0,0.0,0.0,0.0,0.0,0.0,0.0,0.0,0.0,0.0,0.0,0.0,0.0,0.0,0.0,0.0,0.0,0.0,0.0,0.0,0.0,0.0,0.0,0.0,0.0,0.0,0.0,0.0,0.0,0.0,0.0,0.0,0.0,0.0,0.0,0.0,0.0,0.0,0.0,0.0,0.0,0.0,0.0,0.0,0.0,0.0,0.0,0.0,0.0,1.9022,2.1211,2.2147,2.1679,2.1133,2.0371,0.0,0.0,0.0,0.0,0.0,0.0,0.0,0.0,0.0,0.0,0.0,0.0,0.0,0.0,0.0,0.0,0.0,0.0,0.0,0.0,0.0,0.0,0.0,0.0,0.0,0.0,0.0,0.0,0.0,0.0,0.0,0.0,0.0,0.0,0.0,0.0,0.0,0.0,0.0,0.0,0.0,0.0,0.0,0.0,0.0,0.0,0.0,0.0,0.0,0.0,0.0,0.0,0.0,0.0,0.0,0.0,0.0,0.0,0.0,0.0,0.0,0.0,0.0,0.0,0.0,0.0,0.0,0.0,0.0,0.0,0.0,0.0,0.0,0.0,0.0,0.0,0.0,0.0,0.0,0.0,0.0,0.0,0.0,0.0,0.0,0.0,0.0,0.0,0.0,0.0,0.0,0.0,0.0,0.0,0.0,0.0,0.0,0.0,0.0,0.0,0.0,0.0,0.0,0.0,0.0,0.0,0.0,0.0,0.0,1.9686,0.0,2.4254,2.3142,2.2599,2.1524,0.0,0.0,0.0,0.0,0.0,0.0,0.0,0.0,0.0,0.0,0.0,0.0,0.0,0.0,0.0,0.0,0.0,0.0,0.0,0.0,0.0,0.0,0.0,0.0,0.0,0.0,0.0,0.0,0.0,0.0,0.0,0.0,0.0,0.0,0.0,0.0,0.0,0.0,0.0,0.0,0.0,0.0,0.0,0.0,0.0,0.0,0.0,0.0,0.0,0.0,0.0,0.0,0.0,0.0,0.0,0.0,0.0,0.0,0.0,0.0,0.0,0.0,0.0,0.0,0.0,0.0,0.0,0.0,0.0,0.0,0.0,0.0,0.0,0.0,0.0,0.0,0.0,0.0,0.0,0.0,0.0,0.0,0.0,0.0,0.0,0.0,0.0,0.0,0.0,0.0,0.0,0.0,0.0,0.0,0.0,0.0,0.0,0.0,0.0,0.0,0.0,0.0,0.0,0.0,0.0,0.0,0.0,0.0,1.924,2.404,2.5971,2.6875,2.6894,2.2971,2.0332,0.0,0.0,0.0,0.0,0.0,0.0,0.0,0.0,0.0,0.0,0.0,0.0,0.0,0.0,0.0,0.0,0.0,0.0,0.0,0.0,0.0,0.0,0.0,0.0,0.0,0.0,0.0,0.0,0.0,0.0,0.0,0.0,0.0,0.0,0.0,0.0,0.0,0.0,0.0,0.0,0.0,0.0,0.0,0.0,0.0,0.0,0.0,0.0,0.0,0.0,0.0,0.0,0.0,0.0,0.0,0.0,0.0,0.0,0.0,0.0,0.0,0.0,0.0,0.0,0.0,0.0,0.0,0.0,0.0,0.0,0.0,0.0,0.0,0.0,0.0,0.0,0.0,0.0,0.0,0.0,0.0,0.0,0.0,0.0,0.0,0.0,0.0,0.0,0.0,0.0,0.0,0.0,0.0,0.0,0.0,0.0,0.0,0.0,0.0,0.0,0.0,0.0,0.0,0.0,0.0,0.0,0.0,0.0,0.0,2.1837,2.5532,2.7487,2.7389,2.473,2.2969,0.0,0.0,0.0,0.0,0.0,0.0,0.0,0.0,0.0,0.0,0.0,0.0,0.0,0.0,0.0,0.0,0.0,0.0,0.0,0.0,0.0,0.0,0.0,0.0,0.0,0.0,0.0,0.0,0.0,0.0,0.0,0.0,0.0,0.0,0.0,0.0,0.0,0.0,0.0,0.0,0.0,0.0,0.0,0.0,0.0,0.0,0.0,0.0,0.0,0.0,0.0,0.0,0.0,0.0,0.0,0.0,0.0,0.0,0.0,0.0,0.0,0.0,0.0,0.0,0.0,0.0,0.0,0.0,0.0,0.0,0.0,0.0,0.0,0.0,0.0,0.0,0.0,0.0,0.0,0.0,0.0,0.0,0.0,0.0,0.0,0.0,0.0,0.0,0.0,0.0,0.0,0.0,0.0,0.0,0.0,0.0,0.0,0.0,0.0,0.0,0.0,0.0,0.0,0.0,0.0,0.0,0.0,0.0,0.0,2.3401,2.6939,2.8894,2.8894,2.584,2.3949,2.3329,0.0,0.0,0.0,0.0,0.0,0.0,0.0,0.0,0.0,0.0,0.0,0.0,0.0,0.0,0.0,0.0,0.0,0.0,0.0,0.0,0.0,0.0,0.0,0.0,0.0,0.0,0.0,0.0,0.0,0.0,0.0,0.0,0.0,0.0,0.0,0.0,0.0,0.0,0.0,0.0,0.0,0.0,0.0,0.0,0.0,0.0,0.0,0.0,0.0,0.0,0.0,0.0,0.0,0.0,0.0,0.0,0.0,0.0,0.0,0.0,0.0,0.0,0.0,0.0,0.0,0.0,0.0,0.0,0.0,0.0,0.0,0.0,0.0,0.0,0.0,0.0,0.0,0.0,0.0,0.0,0.0,0.0,0.0,0.0,0.0,0.0,0.0,0.0,0.0,0.0,0.0,0.0,0.0,0.0,0.0,0.0,0.0,0.0,0.0,0.0,0.0,0.0,0.0,0.0,0.0,0.0,0.0,0.0,2.7663,2.9794,3.0888,3.0801,2.6314,2.3493,0.0,0.0,0.0,0.0,0.0,0.0,0.0,0.0,0.0,0.0,0.0,0.0,0.0,0.0,0.0,0.0,0.0,0.0,0.0,0.0,0.0,0.0,0.0,0.0,0.0,0.0,0.0,0.0,0.0,0.0,0.0,0.0,0.0,0.0,0.0,0.0,0.0,0.0,0.0,0.0,0.0,0.0,0.0,0.0,0.0,0.0,0.0,0.0,0.0,0.0,0.0,0.0,0.0,0.0,0.0,0.0,0.0,0.0,0.0,0.0,0.0,0.0,0.0,0.0,0.0,0.0,0.0,0.0,0.0,0.0,0.0,0.0,0.0,0.0,0.0,0.0,0.0,0.0,0.0,0.0,0.0,0.0,0.0,0.0,0.0,0.0,0.0,0.0,0.0,0.0,0.0,0.0,0.0,0.0,0.0,0.0,0.0,0.0,0.0,0.0,0.0,0.0,0.0,0.0,0.0,0.0,0.0,0.0,0.0,2.7663,2.9813,3.0928,3.0801,2.6582,2.4147,0.0,0.0,0.0,0.0,0.0,0.0,0.0,0.0,0.0,0.0,0.0,0.0,0.0,0.0,0.0,0.0,0.0,0.0,0.0,0.0,0.0,0.0,0.0,0.0,0.0,0.0,0.0,0.0,0.0,0.0,0.0,0.0,0.0,0.0,0.0,0.0,0.0,0.0,0.0,0.0,0.0,0.0,0.0,0.0,0.0,0.0,0.0,0.0,0.0,0.0,0.0,0.0,0.0,0.0,0.0,0.0,0.0,0.0,0.0,0.0,0.0,0.0,0.0,0.0,0.0,0.0,0.0,0.0,0.0,0.0,0.0,0.0,0.0,0.0,0.0,0.0,0.0,0.0,0.0,0.0,0.0,0.0,0.0,0.0,0.0,0.0,0.0,0.0,0.0,0.0,0.0,0.0,0.0,0.0,0.0,0.0,0.0,0.0,0.0,0.0,0.0,0.0,0.0,0.0,0.0,0.0,0.0,0.0,2.5918,2.8973,3.0234,3.0928,3.0928,2.7604,2.5208,0.0,0.0,0.0,0.0,0.0,0.0,0.0,0.0,0.0,0.0,0.0,0.0,0.0,0.0,0.0,0.0,0.0,0.0,0.0,0.0,0.0,0.0,0.0,0.0,0.0,0.0,0.0,0.0,0.0,0.0,0.0,0.0,0.0,0.0,0.0,0.0,0.0,0.0,0.0,0.0,0.0,0.0,0.0,0.0,0.0,0.0,0.0,0.0,0.0,0.0,0.0,0.0,0.0,0.0,0.0,0.0,0.0,0.0,0.0,0.0,0.0,0.0,0.0,0.0,0.0,0.0,0.0,0.0,0.0,0.0,0.0,0.0,0.0,0.0,0.0,0.0,0.0,0.0,0.0,0.0,0.0,0.0,0.0,0.0,0.0,0.0,0.0,0.0,0.0,0.0,0.0,0.0,0.0,0.0,0.0,0.0,0.0,0.0,0.0,0.0,0.0,0.0,0.0,0.0,0.0,0.0,0.0,0.0,2.6465,3.0781,3.0762,3.0704,3.0645,2.8735,2.6293,0.0,0.0,0.0,0.0,0.0,0.0,0.0,0.0,0.0,0.0,0.0,0.0,0.0,0.0,0.0,0.0,0.0,0.0,0.0,0.0,0.0,0.0,0.0,0.0,0.0,0.0,0.0,0.0,0.0,0.0,0.0,0.0,0.0,0.0,0.0,0.0,0.0,0.0,0.0,0.0,0.0,0.0,0.0,0.0,0.0,0.0,0.0,0.0,0.0,0.0,0.0,0.0,0.0,0.0,0.0,0.0,0.0,0.0,0.0,0.0,0.0,0.0,0.0,0.0,0.0,0.0,0.0,0.0,0.0,0.0,0.0,0.0,0.0,0.0,0.0,0.0,0.0,0.0,0.0,0.0,0.0,0.0,0.0,0.0,0.0,0.0,0.0,0.0,0.0,0.0,0.0,0.0,0.0,0.0,0.0,0.0,0.0,0.0,0.0,0.0,0.0,0.0,0.0,0.0,0.0,0.0,0.0,0.0,2.6191,3.0723,2.9873,2.9324,2.9335,2.8279,2.6133,0.0,0.0,0.0,0.0,0.0,0.0,0.0,0.0,0.0,0.0,0.0,0.0,0.0,0.0,0.0,0.0,0.0,0.0,0.0,0.0,0.0,0.0,0.0,0.0,0.0,0.0,0.0,0.0,0.0,0.0,0.0,0.0,0.0,0.0,0.0,0.0,0.0,0.0,0.0,0.0,0.0,0.0,0.0,0.0,0.0,0.0,0.0,0.0,1.5314,0.0,0.0,0.0,0.0,0.0,0.0,0.0,0.0,0.0,0.0,0.0,0.0,0.0,0.0,0.0,0.0,0.0,0.0,0.0,0.0,0.0,0.0,0.0,0.0,0.0,0.0,0.0,0.0,0.0,0.0,0.0,0.0,0.0,0.0,0.0,0.0,0.0,0.0,0.0,0.0,0.0,0.0,0.0,0.0,0.0,0.0,0.0,0.0,0.0,0.0,0.0,0.0,0.0,0.0,0.0,0.0,0.0,0.0,0.0,2.7593,3.0387,2.9839,2.9155,2.8493,2.8081,2.5827,0.0,0.0,0.0,0.0,0.0,0.0,0.0,0.0,0.0,0.0,0.0,0.0,0.0,0.0,0.0,0.0,0.0,0.0,0.0,0.0,0.0,0.0,0.0,0.0,0.0,0.0,0.0,0.0,0.0,0.0,0.0,0.0,0.0,0.0,0.0,0.0,0.0,0.0,0.0,0.0,0.0,0.0,0.0,0.0,0.0,0.0,0.0,0.0,0.0,0.0,0.0,0.0,0.0,0.0,0.0,0.0,0.0,0.0,0.0,0.0,0.0,0.0,0.0,0.0,0.0,0.0,0.0,0.0,0.0,0.0,0.0,0.0,0.0,0.0,0.0,0.0,0.0,0.0,0.0,0.0,0.0,0.0,0.0,0.0,0.0,0.0,0.0,0.0,0.0,0.0,0.0,0.0,0.0,0.0,0.0,0.0,0.0,0.0,0.0,0.0,0.0,0.0,0.0,0.0,0.0,0.0,0.0,2.7148,2.8821,3.0051,2.9883,2.9119,2.7739,2.7487,2.4973,1.9929,0.0,0.0,0.0,0.0,0.0,0.0,0.0,0.0,0.0,0.0,0.0,0.0,0.0,0.0,0.0,0.0,0.0,0.0,0.0,0.0,0.0,0.0,0.0,0.0,0.0,0.0,0.0,0.0,0.0,0.0,0.0,0.0,0.0,0.0,0.0,0.0,0.0,0.0,1.4563,1.5551,0.0,0.0,0.0,0.0,0.0,0.0,0.0,0.0,1.5939,0.0,0.0,0.0,0.0,0.0,0.0,0.0,0.0,0.0,0.0,0.0,0.0,0.0,0.0,0.0,0.0,0.0,0.0,0.0,0.0,0.0,0.0,0.0,0.0,0.0,0.0,0.0,0.0,0.0,0.0,0.0,0.0,0.0,0.0,0.0,0.0,0.0,0.0,0.0,0.0,0.0,0.0,0.0,0.0,0.0,0.0,0.0,0.0,0.0,0.0,0.0,0.0,0.0,0.0,0.0,0.0,2.5004,2.5137,2.6753,2.9971,2.9012,2.7756,2.636,2.5286,2.2452,1.7814,0.0,0.0,0.0,0.0,0.0,0.0,0.0,0.0,0.0,0.0,0.0,0.0,0.0,0.0,0.0,0.0,0.0,0.0,0.0,0.0,0.0,0.0,0.0,0.0,0.0,0.0,0.0,0.0,0.0,0.0,0.0,0.0,0.0,0.0,0.0,0.0,0.0,0.0,0.0,1.7622,1.7969,0.0,0.0,0.0,0.0,0.0,0.0,0.0,0.0,1.6404,0.0,0.0,0.0,0.0,0.0,0.0,0.0,0.0,0.0,0.0,0.0,0.0,0.0,0.0,0.0,0.0,0.0,0.0,0.0,0.0,0.0,0.0,0.0,0.0,0.0,0.0,0.0,0.0,0.0,0.0,0.0,0.0,0.0,0.0,0.0,0.0,0.0,0.0,0.0,0.0,0.0,0.0,0.0,0.0,0.0,0.0,0.0,0.0,0.0,0.0,0.0,0.0,0.0,0.0,0.0,2.5347,2.7107,2.8505,2.9538,2.8298,2.7001,2.5771,2.5004,2.25,0.0,0.0,0.0,0.0,0.0,0.0,0.0,0.0,0.0,0.0,0.0,0.0,0.0,0.0,0.0,0.0,0.0,0.0,0.0,0.0,0.0,0.0,0.0,0.0,0.0,0.0,0.0,0.0,0.0,0.0,0.0,0.0,0.0,0.0,0.0,0.0,0.0,0.0,0.0,0.0,1.8049,1.8449,1.9063,0.0,0.0,0.0,0.0,0.0,0.0,1.6578,1.6444,0.0,0.0,0.0,0.0,0.0,0.0,0.0,0.0,0.0,0.0,0.0,0.0,0.0,0.0,0.0,0.0,0.0,0.0,0.0,0.0,0.0,0.0,0.0,0.0,0.0,0.0,0.0,0.0,0.0,0.0,0.0,0.0,0.0,0.0,0.0,0.0,0.0,0.0,0.0,0.0,0.0,0.0,0.0,0.0,0.0,0.0,0.0,0.0,0.0,0.0,0.0,0.0,0.0,0.0,0.0,2.5465,2.8649,2.9898,2.8991,2.7895,2.6725,2.5539,2.5285,2.3085,0.0,0.0,0.0,0.0,0.0,0.0,0.0,0.0,0.0,0.0,0.0,0.0,0.0,0.0,0.0,0.0,0.0,0.0,0.0,0.0,0.0,0.0,0.0,0.0,0.0,0.0,0.0,0.0,0.0,0.0,0.0,0.0,0.0,0.0,0.0,0.0,0.0,0.0,0.0,0.0,0.0,1.8796,1.9703,1.8768,0.0,0.0,0.0,0.0,1.722,1.7327,0.0,0.0,0.0,0.0,0.0,0.0,0.0,0.0,0.0,0.0,0.0,0.0,0.0,0.0,0.0,0.0,0.0,0.0,0.0,0.0,0.0,0.0,0.0,0.0,0.0,0.0,0.0,0.0,0.0,0.0,0.0,0.0,0.0,0.0,0.0,0.0,0.0,0.0,0.0,0.0,0.0,0.0,0.0,0.0,0.0,0.0,0.0,0.0,0.0,0.0,0.0,0.0,0.0,0.0,0.0,0.0,2.426,2.6036,2.7382,2.8184,2.809,2.7173,2.5453,2.5375,2.3099,0.0,0.0,0.0,0.0,0.0,0.0,0.0,0.0,0.0,0.0,0.0,0.0,0.0,0.0,0.0,0.0,0.0,0.0,0.0,0.0,0.0,0.0,0.0,0.0,0.0,0.0,0.0,0.0,0.0,0.0,0.0,0.0,0.0,0.0,0.0,0.0,0.0,0.0,0.0,0.0,0.0,1.9637,1.8811,1.8317,1.8063,0.0,0.0,0.0,2.0307,2.0806,0.0,0.0,0.0,0.0,0.0,0.0,0.0,0.0,0.0,0.0,0.0,0.0,0.0,0.0,0.0,0.0,0.0,0.0,0.0,0.0,0.0,0.0,0.0,0.0,0.0,0.0,0.0,0.0,0.0,0.0,0.0,0.0,0.0,0.0,0.0,0.0,0.0,0.0,0.0,0.0,0.0,0.0,0.0,0.0,0.0,0.0,0.0,0.0,0.0,0.0,0.0,0.0,0.0,0.0,0.0,2.3033,2.3531,2.5799,2.7246,2.7705,2.6743,2.597,2.5342,2.5172,2.3065,0.0,0.0,0.0,0.0,0.0,0.0,0.0,0.0,0.0,0.0,0.0,0.0,0.0,0.0,0.0,0.0,0.0,0.0,0.0,0.0,0.0,0.0,0.0,0.0,0.0,0.0,0.0,0.0,0.0,0.0,0.0,0.0,0.0,0.0,0.0,0.0,0.0,0.0,0.0,0.0,0.0,0.0,2.1435,2.0655,0.0,0.0,0.0,2.0231,2.0134,0.0,0.0,0.0,0.0,0.0,0.0,0.0,0.0,0.0,0.0,0.0,0.0,0.0,0.0,0.0,0.0,0.0,0.0,0.0,0.0,0.0,0.0,0.0,0.0,0.0,0.0,0.0,0.0,0.0,0.0,0.0,0.0,0.0,0.0,0.0,0.0,0.0,0.0,0.0,0.0,0.0,0.0,0.0,0.0,0.0,0.0,0.0,0.0,0.0,0.0,0.0,0.0,0.0,0.0,0.0,0.0,0.0,2.2759,2.5841,2.7418,2.7261,2.5956,2.5327,2.5491,2.5233,0.0,0.0,0.0,0.0,0.0,0.0,0.0,0.0,0.0,0.0,0.0,0.0,0.0,0.0,0.0,0.0,0.0,0.0,0.0,0.0,0.0,0.0,0.0,0.0,0.0,0.0,0.0,1.2893,0.0,0.0,0.0,0.0,0.0,0.0,0.0,0.0,0.0,0.0,0.0,0.0,0.0,0.0,2.1617,2.3054,2.2358,2.185,0.0,0.0,2.1689,2.1047,2.185,2.2184,0.0,0.0,0.0,0.0,0.0,0.0,0.0,0.0,0.0,0.0,0.0,0.0,0.0,0.0,0.0,0.0,0.0,0.0,0.0,0.0,0.0,0.0,0.0,0.0,0.0,0.0,0.0,0.0,0.0,0.0,0.0,0.0,0.0,0.0,0.0,0.0,0.0,0.0,0.0,0.0,0.0,0.0,0.0,0.0,0.0,0.0,0.0,0.0,0.0,0.0,0.0,0.0,0.0,0.0,0.0,2.1932,2.5437,2.7135,2.6772,2.6621,2.6422,2.6033,2.6019,2.3773,0.0,0.0,0.0,0.0,0.0,0.0,0.0,0.0,0.0,0.0,0.0,0.0,0.0,0.0,0.0,0.0,0.0,0.0,0.0,0.0,0.0,0.0,0.0,0.0,0.0,0.0,0.0,0.0,0.0,0.0,0.0,0.0,0.0,0.0,0.0,0.0,0.0,0.0,0.0,0.0,0.0,2.1256,2.1676,2.1877,2.2552,0.0,0.0,2.3335,2.485,2.5119,2.5117,2.4743,0.0,0.0,0.0,0.0,0.0,0.0,0.0,0.0,0.0,0.0,0.0,0.0,0.0,0.0,0.0,0.0,0.0,0.0,0.0,0.0,0.0,0.0,0.0,0.0,0.0,0.0,0.0,0.0,0.0,0.0,0.0,0.0,0.0,0.0,0.0,0.0,0.0,0.0,0.0,0.0,0.0,0.0,0.0,0.0,0.0,0.0,0.0,0.0,0.0,0.0,0.0,0.0,0.0,2.2033,2.1104,2.4909,2.6724,2.6343,2.6077,2.59,2.5747,2.5747,2.426,0.0,0.0,0.0,0.0,0.0,0.0,0.0,0.0,0.0,0.0,0.0,0.0,0.0,0.0,0.0,0.0,0.0,0.0,0.0,0.0,0.0,0.0,0.0,0.0,0.0,0.0,0.0,0.0,1.6743,1.6822,1.5992,0.0,0.0,0.0,0.0,0.0,0.0,0.0,0.0,0.0,0.0,2.3151,2.3186,2.3763,0.0,0.0,2.4411,2.4345,2.5017,2.5122,2.5082,2.4977,2.5192,0.0,0.0,0.0,0.0,0.0,0.0,0.0,0.0,0.0,0.0,0.0,0.0,0.0,0.0,0.0,0.0,0.0,0.0,0.0,0.0,0.0,0.0,0.0,0.0,0.0,0.0,0.0,0.0,0.0,0.0,0.0,0.0,0.0,0.0,0.0,0.0,0.0,0.0,0.0,0.0,0.0,0.0,0.0,0.0,0.0,0.0,0.0,0.0,0.0,0.0,0.0,0.0,2.1712,2.0583,2.4644,2.6581,2.621,2.5888,2.5772,2.5772,2.5772,2.477,0.0,0.0,0.0,0.0,0.0,0.0,0.0,0.0,0.0,0.0,0.0,0.0,0.0,0.0,0.0,0.0,0.0,0.0,0.0,0.0,0.0,0.0,0.0,0.0,0.0,0.0,0.0,0.0,1.7569,1.7355,1.666,0.0,0.0,0.0,0.0,0.0,0.0,0.0,0.0,0.0,0.0,2.3146,2.4047,2.4483,2.474,2.4971,2.5217,2.5346,2.5346,2.4791,2.4351,2.4351,0.0,0.0,0.0,0.0,0.0,0.0,0.0,0.0,0.0,0.0,0.0,0.0,0.0,0.0,0.0,0.0,0.0,0.0,0.0,0.0,0.0,0.0,0.0,0.0,0.0,0.0,0.0,0.0,0.0,0.0,2.1829,0.0,0.0,0.0,0.0,0.0,0.0,0.0,0.0,0.0,0.0,0.0,0.0,0.0,0.0,0.0,0.0,0.0,0.0,0.0,0.0,0.0,0.0,0.0,2.0465,2.4764,2.6794,2.6399,2.6373,2.636,2.636,2.6373,2.5264,2.2947,0.0,0.0,0.0,0.0,0.0,0.0,0.0,0.0,0.0,0.0,0.0,0.0,0.0,0.0,0.0,0.0,0.0,0.0,0.0,0.0,0.0,0.0,0.0,0.0,0.0,0.0,1.6337,1.662,1.7488,0.0,0.0,0.0,0.0,0.0,0.0,0.0,0.0,0.0,0.0,2.0146,2.0362,2.3649,2.3354,2.3315,2.4919,2.578,2.6281,2.6149,2.4485,2.3128,0.0,0.0,0.0,0.0,0.0,0.0,0.0,0.0,0.0,0.0,0.0,0.0,0.0,0.0,0.0,0.0,0.0,0.0,0.0,0.0,0.0,0.0,0.0,0.0,0.0,0.0,0.0,2.1468,2.1668,0.0,0.0,0.0,0.0,0.0,0.0,0.0,0.0,0.0,0.0,0.0,3.1958,3.1992,0.0,0.0,0.0,0.0,0.0,0.0,0.0,0.0,0.0,0.0,0.0,0.0,2.0575,2.0405,2.4684,2.6795,2.6426,2.64,2.64,2.64,2.64,2.5277,2.2974,0.0,0.0,0.0,0.0,0.0,0.0,0.0,0.0,0.0,0.0,0.0,0.0,0.0,0.0,0.0,0.0,0.0,0.0,0.0,0.0,0.0,0.0,0.0,0.0,0.0,1.9629,0.0,0.0,0.0,0.0,0.0,0.0,0.0,0.0,0.0,0.0,0.0,1.9629,2.1563,2.0295,1.9524,2.0375,2.0678,2.0962,0.0,0.0,0.0,0.0,0.0,0.0,0.0,0.0,0.0,0.0,0.0,0.0,0.0,0.0,1.4356,1.7095,1.8057,1.8491,1.8562,0.0,0.0,0.0,0.0,0.0,0.0,0.0,0.0,0.0,0.0,0.0,0.0,0.0,0.0,2.453,0.0,2.312,0.0,0.0,0.0,0.0,0.0,0.0,0.0,0.0,2.9513,3.1373,3.2167,3.2159,3.2146,0.0,3.0903,2.8862,0.0,0.0,0.0,0.0,0.0,0.0,0.0,0.0,2.1613,2.1493,2.514,2.6973,2.6734,2.6694,2.6694,2.6734,2.6587,2.5758,2.4178,2.3442,2.2291,0.0,0.0,0.0,0.0,0.0,0.0,0.0,0.0,0.0,0.0,0.0,0.0,0.0,0.0,0.0,0.0,0.0,0.0,0.0,0.0,0.0,0.0,0.0,2.2203,0.0,0.0,0.0,0.0,0.0,0.0,0.0,0.0,0.0,2.1513,1.9577,1.8496,1.9684,1.8331,1.7565,1.8504,0.0,0.0,0.0,0.0,0.0,0.0,0.0,1.9978,1.8566,1.9153,1.9558,1.8856,1.7007,1.5812,1.6477,0.0,0.0,1.6813,1.776,1.8128,1.8168,1.7883,1.7687,1.7687,1.7249,1.6972,0.0,0.0,0.0,0.0,0.0,0.0,0.0,0.0,2.9445,2.9331,0.0,2.5809,0.0,0.0,0.0,0.0,0.0,2.5213,0.0,0.0,3.0178,3.0792,2.9437,2.9304,2.9179,2.9139,2.8746,2.8501,2.8305,2.6107,0.0,0.0,0.0,0.0,0.0,0.0,2.3593,2.362,2.5995,2.7296,2.7296,2.7296,2.7296,2.7282,2.6987,2.668,2.6346,2.4529,2.33,2.288,1.916,0.0,0.0,0.0,0.0,0.0,0.0,0.0,0.0,0.0,0.0,0.0,0.0,0.0,0.0,0.0,0.0,0.0,0.0,0.0,0.0,2.2549,0.0,0.0,0.0,0.0,0.0,0.0,0.0,0.0,0.0,0.0,1.9553,1.7874,1.641,1.6221,0.0,0.0,0.0,0.0,1.7123,1.8808,1.945,1.9653,1.9653,1.7973,1.6632,1.6549,0.0,0.0,1.6103,1.4984,1.438,1.6042,1.4927,1.3707,1.3555,1.4901,1.5917,1.5958,1.5966,1.5908,1.5834,1.4904,1.388,3.2806,0.0,0.0,0.0,0.0,2.8476,2.8926,2.9534,2.8699,2.8157,2.7777,2.5935,0.0,0.0,0.0,0.0,0.0,0.0,2.5167,2.6289,2.6867,2.7659,2.874,2.8718,2.8679,2.8679,2.8557,2.8354,2.8042,2.7378,2.5978,2.3989,0.0,0.0,0.0,0.0,2.374,2.3888,2.6104,2.7309,2.7309,2.7309,2.7309,2.7309,2.7188,2.7108,2.7055,2.6479,2.5355,2.3616,2.2592,0.0,0.0,0.0,0.0,0.0,0.0,0.0,0.0,0.0,0.0,0.0,0.0,0.0,0.0,0.0,0.0,0.0,0.0,0.0,2.4982,2.3856,2.2389,0.0,0.0,0.0,0.0,0.0,0.0,0.0,0.0,0.0,1.7807,1.5907,1.5378,0.0,0.0,1.4514,1.6852,1.5716,1.4802,1.5302,1.5471,0.0,0.0,1.6347,1.6431,1.4837,1.4125,1.3918,1.4465,1.4137,1.3966,1.4522,1.4137,1.3768,1.3736,1.4048,1.4422,1.4422,1.4422,1.4422,1.4387,1.4004,1.3741,3.5155,3.1653,3.08,3.0436,3.0395,2.9988,3.0394,3.1387,3.0666,3.0261,2.999,2.7568,2.6343,2.6024,2.4797,0.0,0.0,0.0,2.5273,2.7074,2.6972,2.7667,2.8993,2.898,2.8952,2.8994,2.8799,2.859,2.8353,2.8353,2.7663,2.6407,0.0,0.0,2.3286,2.463,2.5331,2.5436,2.6867,2.7657,2.7657,2.7657,2.7603,2.7483,2.7442,2.7429,2.7309,2.7309,2.6653,2.5262,2.4436,2.338,0.0,0.0,0.0,0.0,0.0,0.0,0.0,0.0,0.0,0.0,0.0,1.7283,0.0,0.0,0.0,0.0,2.0354,2.2629,2.4464,2.2877,0.0,0.0,0.0,0.0,0.0,0.0,0.0,1.9359,1.7239,1.5786,1.5786,1.4621,1.4578,1.6641,1.5131,1.4223,1.5361,0.0,1.3795,1.3795,1.3795,1.3795,1.3795,1.4899,1.5341,1.4134,1.3933,1.396,1.3971,1.3977,1.3977,1.4021,1.4021,1.3977,1.3977,1.3977,1.393,1.3822,1.3795,1.3795,1.3795,1.3842,1.3933,3.5521,3.5553,3.2749,3.1702,3.1702,3.0173,3.1319,3.4086,3.3987,3.4113,3.4054,3.007,2.8243,2.8059,2.419,0.0,2.5611,2.5561,2.6822,2.9035,2.9356,2.9593,2.98,2.9676,2.964,2.9626,2.9206,2.9001,2.8975,2.8988,2.9001,2.8961,2.7949,2.7443,2.7456,2.7655,2.7802,2.7802,2.8112,2.8259,2.8259,2.8259,2.8125,2.7816,2.7802,2.7669,2.7429,2.7416,2.7403,2.7309,2.5277,2.4079,2.4026,0.0,0.0,0.0,0.0,0.0,0.0,0.0,0.0,0.0,0.0,0.0,0.0,0.0,0.0,0.0,1.9558,0.0,2.164,2.0406,0.0,0.0,0.0,1.8449,1.9661,1.6789,1.5285,1.6712,0.0,0.0,1.3849,1.4021,1.4061,1.3883,1.3849,1.3878,1.4043,1.4014,1.3835,1.3849,1.3849,1.3856,1.3896,1.4032,1.4137,1.4173,1.4122,1.419,1.4306,1.4333,1.4333,1.4333,1.434,1.434,1.4333,1.4333,1.4251,1.395,1.3876,1.3869,1.391,1.4061,1.415,3.3948,3.3826,3.1914,3.1831,3.2953,3.2574,3.2857,3.3446,3.2205,3.1714,3.1626,2.9409,2.8715,2.9131,2.8114,2.8197,2.9146,2.88,2.8935,2.9484,2.9265,2.9174,2.9198,2.9179,2.9162,2.9175,2.9088,2.9001,2.9001,2.9001,2.9001,2.8988,2.8708,2.8575,2.8617,2.8641,2.8668,2.8681,2.8748,2.8831,2.8788,2.8831,2.8791,2.8681,2.8681,2.8591,2.8297,2.8283,2.8177,2.7978,2.7114,2.662,2.6607,2.3862,0.0,0.0,0.0,0.0,0.0,0.0,0.0,0.0,0.0,1.8971,2.2878,0.0,2.141,0.0,1.6246,1.6705,2.0313,1.8894,0.0,0.0,1.8821,1.8486,1.5894,1.6104,1.6094,1.506,1.4497,1.4231,1.434,1.4387,1.4434,1.4464,1.4326,1.471,1.6007,1.506,1.419,1.4197,1.4228,1.4346,1.4309,1.441,1.4478,1.4577,1.4532,1.4552,1.4586,1.4593,1.4593,1.4593,1.4586,1.4586,1.4624,1.4638,1.4566,1.4491,1.4434,1.4387,1.4457,1.455,1.4577,3.2094,3.2075,3.0255,2.9569,2.9775,3.0779,3.1312,3.1369,3.0472,3.0188,3.0384,2.9424,2.9116,2.9249,2.9263,2.9455,2.9727,2.951,2.9447,2.9582,2.9454,2.9455,2.9633,2.9753,2.982,2.982,2.982,2.982,2.9775,2.9552,2.9462,2.9462,2.9238,2.9149,2.9122,2.8815,2.8793,2.8925,2.8574,2.8391,2.8378,2.8391,2.8391,2.8378,2.8391,2.8313,2.8156,2.8156,2.8078,2.7951,2.7693,2.7564,2.7496,2.5883,2.5545,0.0,0.0,0.0,0.0,0.0,0.0,0.0,0.0,0.0,0.0,0.0,1.9632,1.8445,1.5716,1.54,1.8691,1.7153,1.5984,1.6017,1.7016,1.6816,1.4589,1.5371,1.5645,1.4585,1.4496,1.4523,1.4559,1.4572,1.4599,1.4681,1.4597,1.4847,1.569,1.5116,1.4496,1.4502,1.4518,1.4566,1.4618,1.464,1.4694,1.4694,1.4694,1.4694,1.4694,1.4694,1.4694,1.4694,1.4694,1.4694,1.4694,1.4694,1.4708,1.4814,1.4774,1.4733,1.4687,1.4694,1.4694,3.0255,3.0425,2.8647,2.6987,2.5769,2.7753,2.8382,2.8089,2.8089,2.8562,2.9355,2.951,2.9406,2.9055,2.9055,2.9095,2.9161,2.9205,2.9366,2.9659,2.9913,3.0122,3.0375,3.0583,3.0657,3.061,3.061,3.061,3.061,3.0148,2.9917,2.9917,2.9499,2.9314,2.9314,2.8661,2.8497,2.8877,2.8156,2.7807,2.7807,2.7782,2.7756,2.7756,2.7718,2.7693,2.7655,2.7655,2.7642,2.7604,2.7516,2.7504,2.7504,2.7473,2.7429,0.0,2.7429,0.0,0.0,0.0,0.0,0.0,0.0,0.0,0.0,1.6866,1.7461,1.9416,1.6411,1.5068,1.6792,1.5517,1.4597,1.4674,1.4694,1.4694,1.4694,1.4694,1.4694,1.4694,1.4694,1.4694,1.4721,1.4721,1.4728,1.4808,1.4762,1.4794,1.4787,1.4753,1.4667,1.4694,1.4714,1.4774,1.4801,1.4762,1.4769,1.4762,1.4775,1.4748,1.4769,1.4762,1.4755,1.4762,1.4769,1.4775,1.4775,1.4789,1.4889,1.5045,1.5119,1.5011,1.4823,1.4821,1.4748,2.9108,2.9281,2.8907,2.8548,2.8268,2.8706,2.6785,2.3349,2.3315,2.4449,2.6448,2.8303,2.9253,2.9392,2.9392,2.9659,3.01,3.0159,3.0261,3.0555,3.0608,3.0432,3.007,3.0122,2.9963,2.9579,2.9579,2.9579,2.9579,2.9487,2.944,2.944,2.9347,2.9416,2.9559,0.0,0.0,0.0,2.9055,2.8983,2.8983,2.8767,2.8652,2.864,2.8436,0.0,2.7947,2.7934,2.7833,2.7617,2.7241,0.0,0.0,0.0,0.0,0.0,0.0,0.0,0.0,0.0,0.0,0.0,1.822,1.7831,1.7453,1.604,1.5875,1.769,1.5911,1.4756,1.5139,1.4874,1.466,1.4687,1.4694,1.4694,1.4694,1.4694,1.4694,1.4694,1.4694,1.4794,1.4916,1.493,1.4977,1.5079,1.5099,1.5099,1.5099,1.4903,1.4701,1.4701,1.4869,1.4977,1.5079,1.5099,1.5099,1.5099,1.5099,1.5099,1.5099,1.5099,1.5099,1.5099,1.5099,1.514,1.5248,1.5235,1.5309,1.5431,1.5499,1.5432,1.516,1.5099,1.5099,2.8868,0.0,2.9001,2.8414,0.0,2.7522,2.5665,2.2779,2.4663,2.6226,2.7562,2.8784,2.9378,2.9488,2.8224,2.7771,2.8037,2.6846,2.703,2.8256,2.8413,2.8981,2.9844,2.9986,2.9956,2.9708,2.9708,2.9708,2.9661,2.9485,2.9344,2.9344,2.9061,2.9041,2.9117,2.8757,2.856,2.8557,2.8557,2.8557,2.8511,2.7434,2.684,2.6794,0.0,0.0,0.0,0.0,0.0,0.0,0.0,0.0,0.0,0.0,0.0,2.3769,2.3718,2.3247,2.2262,2.13,1.9879,1.7975,1.6949,1.635,1.6151,1.5234,1.5097,1.6,1.5234,1.4774,1.4841,1.4855,1.4882,1.495,1.4957,1.4957,1.4964,1.5025,1.5019,1.5079,1.5093,1.5174,1.5289,1.5303,1.533,1.5398,1.5411,1.5404,1.5384,1.5153,1.4938,1.5012,1.5201,1.5323,1.5391,1.5411,1.5404,1.5404,1.5404,1.5411,1.5411,1.5411,1.5411,1.5404,1.5411,1.5438,1.5499,1.552,1.5547,1.5566,1.5587,1.5553,1.5432,1.5404,1.5411,2.9108,2.9148,2.9148,2.8172,2.6653,2.6613,2.579,2.4539,0.0,0.0,0.0,2.9325,2.9533,2.9391,2.7281,2.6348,2.6259,2.4354,2.4547,2.6463,2.6808,2.794,2.9782,3.0124,3.0192,3.0144,3.0144,3.0144,3.0083,2.9709,2.9528,2.9479,2.9092,2.8886,2.8837,2.8825,2.8392,2.7582,2.7805,2.7757,2.7369,2.5664,2.4593,2.4214,2.2515,2.1592,2.1592,2.1592,2.1592,2.1592,2.1592,2.1592,2.1583,2.1471,2.133,2.1367,2.1273,2.1039,2.0667,1.9129,1.8015,1.7687,1.632,1.5235,1.4843,1.4836,1.485,1.4856,1.485,1.4957,1.5072,1.5092,1.5133,1.5248,1.5262,1.5262,1.5269,1.5371,1.5438,1.5466,1.5492,1.5587,1.5566,1.5566,1.5587,1.5587,1.5566,1.5587,1.556,1.5418,1.5303,1.5411,1.5458,1.5566,1.5587,1.5573,1.5587,1.556,1.5573,1.5587,1.5587,1.5587,1.5587,1.556,1.5587,1.5593,1.5621,1.5676,1.5641,1.571,1.5668,1.5668,1.5668,1.5668,1.5648,2.9566,2.9748,2.9793,2.9499,2.9083,2.9115,2.8847,2.836,2.733,2.6597,2.6389,2.8463,2.933,2.9317,2.8953,2.8907,2.9098,2.88,2.892,2.9505,2.9978,3.0169,3.0155,3.0652,3.0638,3.0236,3.0173,3.0185,3.0185,3.0123,3.0085,3.0073,2.9984,2.9851,2.9646,2.9634,2.8573,2.6425,2.7751,2.7625,2.5849,2.5317,2.4159,2.2461,2.183,2.1592,2.1592,2.1554,2.1592,2.1592,2.1592,2.1592,2.1592,2.1469,2.1546,2.1546,2.1517,2.0787,1.9084,1.8702,1.7802,1.6145,1.5691,1.5479,1.5343,1.5391,1.5465,1.5465,1.5438,1.5472,1.5499,1.5479,1.5527,1.5512,1.5519,1.5526,1.5512,1.5539,1.556,1.556,1.5573,1.56,1.5614,1.5607,1.5621,1.56,1.5634,1.56,1.5614,1.556,1.5533,1.5553,1.5573,1.5587,1.5621,1.5593,1.5614,1.5587,1.5607,1.5627,1.5627,1.5627,1.5627,1.56,1.5627,1.5716,1.586,1.5874,1.5942,1.5995,1.6015,1.6022,1.6022,1.6022,1.5947,2.9899,2.9773,2.9873,2.9743,2.9446,2.96,2.9403,2.9046,2.8388,2.7921,2.777,2.8653,2.9109,2.8962,2.7747,2.7261,2.7323,2.619,2.6438,2.7744,2.7995,2.8728,2.975,3.0007,2.9967,2.9779,2.9779,2.9779,2.9779,2.9779,2.9779,2.9779,2.9779,2.9096,2.7858,2.7808,2.6643,2.4428,2.6266,2.6207,2.4077,2.2833,2.1699,2.0759,1.9544,1.8819,1.8819,1.8819,1.8779,1.8741,1.8733,1.8686,1.8598,1.8551,1.8495,1.8487,1.8408,1.7927,1.7021,1.6973,1.6587,1.5683,1.571,1.5723,1.5704,1.5642,1.5587,1.5587,1.5587,1.5587,1.5587,1.5587,1.5587,1.5587,1.5587,1.5587,1.56,1.5716,1.575,1.5764,1.5825,1.5879,1.5879,1.5879,1.5879,1.5879,1.5879,1.5879,1.5879,1.5879,1.5845,1.5778,1.5825,1.5872,1.5879,1.5879,1.5879,1.5879,1.5879,1.5879,1.5879,1.5879,1.5879,1.5886,1.594,1.6022,1.6096,1.6164,1.6239,1.6286,1.632,1.632,1.632,1.632,1.6239,3.0004,2.9559,2.978,2.9618,2.9229,2.9366,2.9233,2.8987,2.9184,2.9312,2.9309,2.9043,2.8951,2.8806,2.7151,2.6399,2.6066,2.4697,2.4951,2.6475,2.6716,2.7811,2.9453,2.9695,2.9767,2.9767,2.9767,2.9767,2.9767,2.9755,2.9755,2.9717,2.9255,2.8106,2.6412,2.5859,2.4518,2.2508,2.3913,2.3915,2.2118,2.0503,1.949,1.8889,1.7378,1.6517,1.6517,1.6517,1.6469,1.6368,1.6361,1.63,1.6185,1.6069,1.6051,1.6044,1.59,1.579,1.579,1.579,1.579,1.579,1.594,1.6051,1.6044,1.5906,1.5756,1.5702,1.5702,1.5702,1.5757,1.5784,1.5742,1.5742,1.5769,1.5817,1.5803,1.594,1.6051,1.6064,1.611,1.6178,1.6178,1.6185,1.6178,1.6185,1.6178,1.6178,1.6178,1.6178,1.6123,1.6112,1.6083,1.6117,1.6137,1.6164,1.6178,1.6178,1.6178,1.6178,1.6178,1.6178,1.6178,1.6191,1.6266,1.6327,1.6361,1.6429,1.6483,1.649,1.6483,1.6503,1.6497,1.6537,1.6517,2.9739,2.9356,2.936,2.922,2.8966,2.881,2.8861,2.8971,2.9019,2.9189,2.9396,2.9079,2.9164,2.9345,2.9284,2.9127,2.8958,2.9067,2.8994,2.9031,2.9586,2.9936,3.0141,3.0588,3.0853,3.0793,3.0769,3.0657,3.0605,3.0654,3.0765,3.0582,2.8834,2.7513,2.6886,2.5084,2.2974,2.0594,2.075,2.0583,2.0021,1.9794,1.8788,1.6823,1.6626,1.6517,1.6537,1.6517,1.6517,1.6503,1.6503,1.6497,1.6476,1.6456,1.6456,1.6449,1.6435,1.6442,1.6429,1.6435,1.6415,1.6391,1.6422,1.6435,1.6435,1.6429,1.632,1.611,1.6042,1.6042,1.6049,1.6157,1.6212,1.6212,1.6313,1.6435,1.6402,1.6398,1.6412,1.6463,1.6429,1.6476,1.6449,1.6442,1.6456,1.6435,1.6422,1.6429,1.6429,1.6435,1.6435,1.6408,1.6374,1.63,1.63,1.6402,1.6429,1.6449,1.6469,1.6449,1.6429,1.6442,1.6425,1.6402,1.6476,1.6497,1.6503,1.6517,1.6544,1.6585,1.6578,1.6544,1.6544,1.6588,1.6608,2.9509,2.9099,2.9262,2.9202,2.8969,2.8862,2.9006,2.9236,2.9248,2.9393,2.961,2.9526,2.9538,2.9646,2.9755,2.9815,2.9888,2.9996,2.9984,2.99,3.0117,3.0214,3.025,3.0419,3.0539,3.0539,3.0539,3.0169,2.954,2.8923,2.8087,2.7135,2.613,2.4565,2.2298,2.1256,1.9657,1.7423,1.7363,1.7256,1.7203,1.776,1.7715,1.6892,1.6788,1.6795,1.6788,1.6795,1.6754,1.6615,1.6608,1.6567,1.6524,1.6517,1.6517,1.6517,1.6517,1.6517,1.6517,1.6517,1.6517,1.6517,1.6517,1.6517,1.6517,1.6517,1.6463,1.6374,1.6341,1.6341,1.6347,1.6402,1.6435,1.6442,1.649,1.6524,1.6517,1.6524,1.6517,1.6517,1.6517,1.6524,1.6517,1.6517,1.6517,1.6517,1.6524,1.6486,1.6473,1.6517,1.6517,1.6524,1.6486,1.653,1.6469,1.6476,1.6524,1.6524,1.6517,1.6517,1.6537,1.6524,1.6517,1.653,1.6547,1.655,1.6608,1.6741,1.6795,1.673,1.6788,1.6795,1.6795,1.6842,1.6842,2.9315,2.889,2.9136,2.9213,2.9115,2.9115,2.9272,2.9501,2.9513,2.9658,2.99,2.9912,2.9948,3.0008,3.002,3.0105,3.0163,2.9981,2.9816,2.9706,2.9452,2.9288,2.9288,2.9288,2.9288,2.9288,2.9248,2.8614,2.7418,2.6128,2.4885,2.3784,2.3113,2.1406,1.8865,1.8082,1.6944,1.5493,1.5283,1.5283,1.5441,1.6078,1.6558,1.6558,1.6663,1.6768,1.6768,1.6926,1.6931,1.6822,1.6757,1.6768,1.6659,1.6646,1.6646,1.6646,1.6646,1.6646,1.6646,1.6646,1.6646,1.6646,1.6646,1.6646,1.6646,1.6646,1.6646,1.6646,1.6646,1.6625,1.6524,1.6506,1.6533,1.6585,1.6619,1.6646,1.6653,1.6646,1.6659,1.6646,1.6673,1.6543,1.644,1.635,1.6305,1.615,1.6137,1.6182,1.6176,1.6137,1.6137,1.6182,1.6223,1.6371,1.6516,1.6646,1.6639,1.6646,1.6666,1.6673,1.6646,1.6653,1.6491,1.643,1.6522,1.6386,1.6132,1.6335,1.6545,1.6499,1.6545,1.6538,1.6361,1.6499,1.6604,2.9076,2.8692,2.8934,2.9151,2.9381,2.9393,2.9538,2.9779,2.9779,2.9936,3.0153,3.0076,3.0271,3.0413,3.0286,3.038,3.0121,2.9379,2.8871,2.8575,2.7634,2.7082,2.7031,2.7031,2.7133,2.7338,2.7174,2.6241,2.4566,2.2949,2.2113,2.1863,2.0003,1.8813,1.8082,1.6426,1.5441,1.5178,1.5178,1.523,1.523,1.5336,1.5394,1.5447,1.5868,1.6131,1.6183,1.6663,1.6971,1.6965,1.6905,1.6905,1.6951,1.6899,1.6885,1.6892,1.6899,1.6951,1.6885,1.6931,1.6937,1.6944,1.6924,1.6944,1.6917,1.691,1.6917,1.6951,1.6917,1.6822,1.6509,1.657,1.6682,1.6696,1.6863,1.6924,1.6944,1.6858,1.6951,1.6885,1.6812,1.6537,1.6138,1.6111,1.587,1.5549,1.541,1.5404,1.549,1.5398,1.5444,1.5444,1.5502,1.5647,1.6425,1.6542,1.6688,1.6688,1.6491,1.6812,1.6951,1.6912,1.6577,1.6295,1.6191,1.5928,1.5534,1.5435,1.5546,1.5599,1.5657,1.5599,1.5815,1.5493,1.5657,2.9165,2.9127,2.9224,2.9417,2.9646,2.9646,2.9815,3.0057,3.0057,3.0117,3.0049,2.9491,2.9232,2.9263,2.8547,2.8695,2.9277,2.8233,2.762,2.7491,2.7071,2.6877,2.6877,2.6877,2.6877,2.6764,2.5769,2.4051,2.182,2.0419,1.923,1.8238,1.7409,1.6525,1.5428,1.4598,1.4235,1.4235,1.4235,1.4235,1.4235,1.4235,1.4182,1.4288,1.5131,1.5599,1.5605,1.5815,1.592,1.592,1.592,1.592,1.592,1.592,1.592,1.592,1.6236,1.64,1.6453,1.6768,1.6978,1.6978,1.6978,1.6978,1.6978,1.6978,1.6821,1.6558,1.6821,1.6649,1.6073,1.6393,1.6897,1.6904,1.6944,1.6978,1.6926,1.6663,1.6453,1.64,1.6131,1.5815,1.571,1.5605,1.55,1.5336,1.5283,1.523,1.5283,1.5283,1.523,1.5283,1.5283,1.5428,1.5654,1.5817,1.5914,1.5914,1.5855,1.5849,1.5967,1.6026,1.5744,1.5685,1.5605,1.55,1.5125,1.5072,1.5072,1.5125,1.5125,1.502,1.5283,1.5072,1.523,2.9296,2.9513,2.9526,2.9682,2.9924,2.9924,3.0033,3.0214,3.0214,3.0011,2.9593,2.892,2.841,2.79,2.6877,2.686,2.7671,2.6798,2.6365,2.6365,2.6005,2.5851,2.5841,2.5841,2.5532,2.4699,2.2761,2.0679,1.9021,1.7625,1.6426,1.5382,1.5277,1.4756,1.376,1.3607,1.3607,1.3607,1.3607,1.3607,1.3607,1.3607,1.3607,1.3708,1.4341,1.4815,1.5026,1.5178,1.5283,1.5283,1.5283,1.5283,1.5283,1.5283,1.5283,1.5336,1.5657,1.5868,1.5868,1.6236,1.6453,1.6453,1.6446,1.6453,1.6453,1.6446,1.6236,1.6026,1.6183,1.6078,1.5657,1.5973,1.6453,1.6453,1.6453,1.6453,1.6446,1.6078,1.5868,1.5815,1.5599,1.5289,1.5026,1.5026,1.492,1.4815,1.4756,1.4756,1.4756,1.4756,1.4762,1.4762,1.4657,1.4657,1.4745,1.475,1.5236,1.5342,1.5394,1.523,1.5178,1.5178,1.5125,1.5026,1.4973,1.492,1.4868,1.4815,1.4815,1.4809,1.4604,1.4393,1.4551,1.4651,1.4756,2.9562,2.9779,2.9803,2.9948,3.0153,3.0177,3.0151,3.0112,3.0112,2.9491,2.8614,2.845,2.7696,2.6826,2.5748,2.5347,2.5419,2.5347,2.5295,2.5182,2.4306,2.379,2.3677,2.3677,2.2685,2.1068,1.7887,1.6374,1.6164,1.4862,1.3971,1.376,1.3866,1.3813,1.3607,1.3607,1.3607,1.3607,1.3607,1.3607,1.3607,1.3607,1.3607,1.3607,1.3708,1.3919,1.4399,1.492,1.5125,1.5178,1.5178,1.5283,1.5125,1.5125,1.5236,1.5125,1.5283,1.5283,1.5283,1.5342,1.55,1.5493,1.5394,1.5493,1.5552,1.5493,1.5441,1.5336,1.5388,1.5336,1.523,1.5283,1.5394,1.5336,1.5493,1.5493,1.5447,1.5336,1.5283,1.523,1.5125,1.4967,1.4551,1.4399,1.4288,1.3919,1.3813,1.3813,1.3866,1.3919,1.3713,1.3713,1.3866,1.4024,1.3813,1.3708,1.4341,1.4868,1.4967,1.4967,1.4862,1.4809,1.4604,1.4499,1.4446,1.4341,1.4182,1.413,1.4024,1.4024,1.3866,1.3866,1.3971,1.413,1.413,2.9839,3.0069,3.0081,3.0129,3.0214,3.0214,2.9808,2.9135,2.9072,2.8461,2.744,2.6672,2.6108,2.5594,2.4616,2.4151,2.41,2.41,2.41,2.3996,2.3738,2.2953,2.2072,2.1855,2.0392,1.7939,1.6636,1.5487,1.4493,1.3866,1.3607,1.3607,1.3607,1.3607,1.3607,1.3607,1.3607,1.3607,1.3607,1.3607,1.3607,1.3607,1.3607,1.3607,1.3607,1.3708,1.3871,1.4024,1.413,1.4182,1.413,1.413,1.413,1.413,1.413,1.4182,1.4499,1.4657,1.471,1.5026,1.523,1.5283,1.5283,1.5283,1.5283,1.523,1.5078,1.4815,1.5026,1.502,1.4393,1.4499,1.4815,1.523,1.5283,1.523,1.5125,1.492,1.4551,1.4182,1.413,1.4024,1.3919,1.3866,1.3813,1.3655,1.3607,1.3607,1.3607,1.3607,1.3607,1.3607,1.3607,1.3607,1.3549,1.3285,1.328,1.3808,1.4124,1.4493,1.4446,1.4341,1.413,1.3813,1.376,1.3496,1.3391,1.3607,1.3607,1.3549,1.3549,1.3602,1.3602,1.3708,1.3813,3.0057,3.0214,3.0214,3.0214,3.0112,2.9796,2.9225,2.8563,2.8144,2.7327,2.6313,2.5656,2.5038,2.4564,2.3893,2.3221,2.2746,2.2642,2.2331,2.1959,2.2486,2.2011,2.092,1.9715,1.8305,1.6374,1.5435,1.4651,1.3655,1.3607,1.3607,1.3607,1.3607,1.3635,1.3667,1.3673,1.3689,1.3727,1.3738,1.3738,1.3738,1.3732,1.3732,1.3738,1.3738,1.3738,1.3732,1.3694,1.3651,1.3613,1.3607,1.3607,1.3607,1.3607,1.3607,1.366,1.3866,1.413,1.413,1.4393,1.4657,1.4657,1.4657,1.4657,1.4657,1.4657,1.4446,1.4288,1.4393,1.4393,1.3813,1.3871,1.4288,1.4604,1.4604,1.4657,1.4598,1.4341,1.4024,1.376,1.3655,1.3607,1.3607,1.3607,1.3607,1.3607,1.3607,1.3607,1.3607,1.3607,1.3607,1.3607,1.3607,1.3549,1.3496,1.3016,1.2324,1.2641,1.3069,1.3597,1.3866,1.3813,1.3708,1.2905,1.2588,1.1579,1.1368,1.2963,1.3549,1.3444,1.2805,1.3496,1.3602,1.3607,1.3708,3.0214,3.0214,3.0112,3.0011,2.9909,2.892,2.8359,2.8144,2.7287,2.6211,2.5347,2.4822,2.4306,2.3583,2.2953,2.2072,2.118,2.0972,2.0288,1.961,2.0027,2.04,1.9931,1.752,1.6059,1.5592,1.4388,1.376,1.3607,1.3607,1.3613,1.3629,1.364,1.3678,1.3776,1.3798,1.3841,1.396,1.3988,1.3988,1.3988,1.3993,1.3993,1.3988,1.3982,1.3982,1.396,1.3836,1.3732,1.3624,1.3607,1.3607,1.3607,1.3607,1.3607,1.3607,1.3607,1.366,1.366,1.376,1.3766,1.3813,1.376,1.3607,1.376,1.3813,1.3813,1.3708,1.376,1.3708,1.3607,1.366,1.3708,1.366,1.3813,1.3813,1.3655,1.3655,1.3655,1.366,1.3607,1.3607,1.3607,1.3607,1.3607,1.3607,1.3607,1.3607,1.3607,1.3607,1.3607,1.3607,1.3607,1.2963,1.2694,1.1897,1.1099,1.0253,1.0729,1.1262,1.1954,1.2007,1.1901,1.1209,1.094,0.9988,0.9723,1.0998,1.1421,1.0623,1.1103,1.2752,1.2857,1.2113,1.1954,3.0214,3.0112,2.9338,2.9022,2.8869,2.7838,2.6877,2.6211,2.5913,2.5131,2.4048,2.2746,2.2166,2.1648,2.0548,1.961,1.935,1.9245,1.9141,1.8514,1.7625,1.7475,1.7056,1.5382,1.4335,1.4235,1.3866,1.3607,1.3607,1.3607,1.3651,1.3738,1.3732,1.3792,1.3949,1.3912,1.3977,1.4004,1.4015,1.402,1.402,1.4026,1.4009,1.4009,1.402,1.402,1.4015,1.3982,1.3809,1.3624,1.3607,1.3607,1.3613,1.3607,1.3607,1.3607,1.3607,1.3607,1.3607,1.3607,1.3607,1.3607,1.3607,1.3607,1.3607,1.3607,1.3607,1.3607,1.3607,1.3607,1.3607,1.3607,1.3607,1.3607,1.3607,1.3607,1.3607,1.3607,1.3607,1.3607,1.3607,1.3607,1.3607,1.3607,1.3607,1.3607,1.3607,1.3607,1.3607,1.3607,1.3602,1.3549,1.3338,1.2377,1.1575,1.0777,0.9719,0.813,0.7865,0.7918,0.8448,0.866,0.8395,0.7918,0.866,0.8183,0.7706,0.8077,0.7756,0.8021,0.8554,0.9617,0.8978,0.8342,0.8607,3.0214,3.0112,2.9022,2.8603,2.8399,2.6928,2.5851,2.5295,2.478,2.4254,2.3324,2.1855,2.1076,2.092,1.9402,1.8201,1.7625,1.758,1.7161,1.6321,1.5487,1.5119,1.4809,1.3919,1.3607,1.3607,1.3607,1.3607,1.3607,1.3607,1.3673,1.376,1.3787,1.3868,1.4026,1.4031,1.4059,1.4102,1.4108,1.4108,1.4108,1.4108,1.4113,1.4113,1.4108,1.4091,1.4048,1.4031,1.3944,1.3787,1.3711,1.3684,1.3673,1.3629,1.3607,1.3607,1.3607,1.3607,1.3607,1.3607,1.3607,1.3607,1.3607,1.3607,1.3607,1.3607,1.3607,1.3607,1.3607,1.3607,1.3607,1.3607,1.3607,1.3607,1.3607,1.3607,1.3607,1.3607,1.3607,1.3607,1.3607,1.3607,1.3607,1.3607,1.3607,1.3607,1.3607,1.3607,1.3607,1.3549,1.318,1.2752,1.2007,1.0835,0.9133,0.8021,0.7223,0.5793,0.4839,0.4892,0.5848,0.6061,0.5902,0.5955,0.6432,0.6326,0.5424,0.5264,0.622,0.643,0.6432,0.6539,0.6432,0.5795,0.5955,3.0112,2.9948,2.8869,2.8348,2.7838,2.6057,2.5079,2.4873,2.41,2.3686,2.316,2.1648,2.0608,2.0712,1.841,1.7161,1.5855,1.5855,1.5066,1.4335,1.3813,1.3866,1.3866,1.376,1.3607,1.3607,1.3607,1.3607,1.3613,1.3618,1.3694,1.3803,1.383,1.395,1.4118,1.4156,1.4161,1.4276,1.4282,1.4276,1.4276,1.4276,1.4271,1.4271,1.4276,1.4238,1.4178,1.4096,1.4102,1.4053,1.3874,1.3809,1.3787,1.3689,1.3635,1.3624,1.3624,1.3607,1.3607,1.3607,1.3607,1.3607,1.3607,1.3607,1.3607,1.3607,1.3607,1.3607,1.3607,1.3607,1.3607,1.3607,1.3607,1.3607,1.3607,1.3607,1.3607,1.3607,1.3607,1.3607,1.3607,1.3607,1.3607,1.3607,1.3607,1.3607,1.3607,1.3607,1.3232,1.2752,1.2002,1.0993,1.0037,0.8868,0.696,0.4997,0.42,0.3191,0.2075,0.2075,0.3989,0.4361,0.4148,0.4148,0.3936,0.3086,0.1863,0.2448,0.0,0.4255,0.3776,0.4786,0.5581,0.4467,0.4148,2.9706,2.8869,2.7747,2.6775,2.5851,2.4564,2.3945,2.3893,2.3686,2.3315,2.2849,2.0444,1.9193,1.8984,1.6321,1.444,1.4335,1.4288,1.3866,1.376,1.3607,1.3607,1.3607,1.3607,1.3607,1.3607,1.3607,1.3607,1.3618,1.37,1.3803,1.3906,1.3999,1.408,1.4249,1.4265,1.4287,1.432,1.432,1.432,1.432,1.432,1.432,1.432,1.432,1.4309,1.4292,1.4282,1.4265,1.42,1.4053,1.3934,1.3901,1.3814,1.3749,1.3716,1.3651,1.3613,1.3607,1.3607,1.3607,1.3607,1.3607,1.3607,1.3607,1.3607,1.3607,1.3607,1.3607,1.3607,1.3607,1.3607,1.3607,1.3607,1.3607,1.3607,1.3607,1.3607,1.3607,1.3607,1.3607,1.3607,1.3607,1.3607,1.3607,1.3607,1.3496,1.3549,1.2857,1.1901,1.0407,0.8974,0.7968,0.6748,0.4837,0.3191,0.2554,0.0,0.0,0.0,0.0,0.0,0.0,0.0,0.1012,0.0,0.0,0.0,0.0,0.0,0.0,0.0,0.0,0.0,0.0,2.9123,2.8461,2.6826,2.58,2.5028,2.3263,2.2435,2.2279,2.1544,2.1284,2.0712,1.8462,1.7468,1.7213,1.4862,1.366,1.3607,1.3607,1.3607,1.3607,1.3607,1.3607,1.3607,1.3607,1.3607,1.3607,1.3607,1.3607,1.3635,1.3727,1.3836,1.4009,1.408,1.4134,1.4303,1.432,1.4314,1.432,1.432,1.432,1.432,1.432,1.432,1.432,1.432,1.432,1.432,1.432,1.432,1.4287,1.4195,1.4097,1.4031,1.3934,1.3852,1.3781,1.3738,1.3656,1.3629,1.3607,1.3607,1.3607,1.3607,1.3607,1.3607,1.3607,1.3607,1.3607,1.3607,1.3607,1.3607,1.3607,1.3607,1.3607,1.3607,1.3607,1.3607,1.3607,1.3607,1.3607,1.3607,1.3607,1.3607,1.3607,1.3496,1.3444,1.1844,1.1738,1.1051,0.9984,0.7968,0.6589,0.574,0.4467,0.2661,0.1544,0.1225,0.0,0.0,0.0,0.0,0.0,0.0,0.0,0.0,0.0,0.0,0.0,0.0,0.0,0.0,0.0,0.0,0.0,0.0,2.8501,2.8155,2.6159,2.5089,2.4306,2.2166,2.0972,2.0496,1.9245,1.9037,1.8305,1.6846,1.6374,1.5803,1.444,1.3655,1.3607,1.3607,1.3607,1.3607,1.3607,1.3607,1.3607,1.3607,1.3607,1.3607,1.3607,1.3607,1.3635,1.3727,1.3847,1.4015,1.408,1.42,1.4292,1.432,1.432,1.432,1.432,1.432,1.432,1.432,1.432,1.432,1.432,1.432,1.432,1.432,1.432,1.432,1.432,1.4265,1.4173,1.4053,1.4004,1.3847,1.3814,1.3732,1.3662,1.3624,1.3607,1.3607,1.3607,1.3607,1.3607,1.3607,1.3607,1.3607,1.3607,1.3607,1.3607,1.3607,1.3607,1.3607,1.3607,1.3607,1.3607,1.3607,1.3607,1.3607,1.3607,1.3607,1.3607,1.3607,1.3391,1.2857,1.1152,0.9768,0.9084,0.7915,0.5952,0.452,0.3723,0.3033,0.1331,0.0,0.0,0.0,0.0,0.0,0.0,0.0,0.0,0.0,0.0,0.0,0.0,0.0,0.0,0.0,0.0,0.0,0.0,0.0,0.0,2.8042,2.7082,2.581,2.3987,2.1907,2.1232,2.0183,1.9089,1.8566,1.8566,1.8201,1.6846,1.5954,1.5592,1.4341,1.3655,1.3607,1.3607,1.3607,1.3607,1.3607,1.3607,1.3607,1.3607,1.3607,1.3607,1.3607,1.3607,1.3635,1.3727,1.39,1.3961,1.408,1.42,1.4287,1.432,1.432,1.432,1.432,1.432,1.432,1.432,1.432,1.432,1.432,1.432,1.432,1.432,1.432,1.432,1.432,1.4309,1.4265,1.4167,1.4097,1.4026,1.389,1.3787,1.3738,1.3651,1.3618,1.3607,1.3607,1.3607,1.3607,1.3607,1.3607,1.3607,1.3607,1.3607,1.3607,1.3607,1.3607,1.3607,1.3607,1.3607,1.3607,1.3391,1.3285,1.3127,1.3285,1.3285,1.291,1.2377,1.1579,1.0782,0.9402,0.8074,0.7173,0.5793,0.3989,0.282,0.181,0.1119,0.016,0.0,0.0,0.0,0.0,0.0,0.0,0.0,0.0,0.0,0.0,0.0,0.0,0.0,0.0,0.0,0.0,0.0,0.0,0.0,0.0,2.6548,2.4699,2.3564,2.1855,1.9871,1.8828,1.8044,1.7213,1.6426,1.6013,1.5803,1.5172,1.4809,1.4598,1.4077,1.3607,1.3607,1.3607,1.3607,1.3607,1.3607,1.3607,1.3607,1.3607,1.3607,1.3607,1.3607,1.3607,1.3618,1.3727,1.3895,1.3961,1.408,1.4145,1.4237,1.432,1.432,1.432,1.432,1.432,1.432,1.432,1.432,1.432,1.432,1.432,1.432,1.432,1.432,1.432,1.432,1.432,1.4303,1.421,1.415,1.4069,1.3972,1.3841,1.3781,1.3678,1.3607,1.3607,1.3607,1.3607,1.3607,1.3607,1.3607,1.3607,1.3607,1.3607,1.3607,1.3607,1.3607,1.3607,1.3549,1.3496,1.3285,1.243,1.206,1.1844,1.1474,1.1258,1.1315,1.057,0.956,0.8551,0.7544,0.6377,0.5211,0.3723,0.0,0.0,0.0,0.0,0.0,0.0,0.0,0.0,0.0,0.0,0.0,0.0,0.0,0.0,0.0,0.0,0.0,0.0,0.0,0.0,0.0,0.0,0.0,0.0,0.0,2.4802,2.2685,2.1224,1.961,1.8044,1.6689,1.596,1.5382,1.4288,1.3813,1.3607,1.366,1.3708,1.3602,1.3655,1.3607,1.3607,1.3607,1.3607,1.3607,1.3607,1.3607,1.3607,1.3607,1.3607,1.3607,1.3607,1.3607,1.3618,1.3689,1.3857,1.3912,1.4037,1.4162,1.4249,1.4303,1.4309,1.432,1.432,1.432,1.432,1.432,1.432,1.432,1.432,1.432,1.432,1.432,1.432,1.432,1.432,1.432,1.432,1.432,1.4276,1.4118,1.4042,1.3917,1.3825,1.3678,1.3607,1.3607,1.3607,1.3607,1.3607,1.3607,1.3607,1.3607,1.3607,1.3607,1.3607,1.3607,1.3285,1.2752,1.2699,1.2535,1.1474,1.0517,0.9666,0.9455,0.9239,0.908,0.8978,0.8925,0.7918,0.6483,0.5421,0.42,0.3033,0.1863,0.0,0.0,0.0,0.0,0.0,0.0,0.0,0.0,0.0,0.0,0.0,0.0,0.0,0.0,0.0,0.0,0.0,0.0,0.0,0.0,0.0,0.0,0.0,0.0,0.0,2.3099,2.2581,1.9975,1.7939,1.6479,1.6111,1.5172,1.4024,1.3708,1.3607,1.3607,1.3607,1.3607,1.3607,1.3607,1.3607,1.3607,1.3607,1.3607,1.3607,1.3607,1.3607,1.3607,1.3607,1.3607,1.3607,1.3607,1.3607,1.3613,1.3629,1.37,1.3825,1.3928,1.4042,1.4178,1.4199,1.432,1.432,1.432,1.432,1.432,1.432,1.432,1.432,1.432,1.432,1.432,1.432,1.432,1.432,1.432,1.432,1.432,1.432,1.432,1.4238,1.4108,1.4004,1.3949,1.3727,1.3607,1.3607,1.3607,1.3607,1.3607,1.3607,1.3607,1.3607,1.3607,1.3607,1.3602,1.3496,1.254,1.1474,1.0782,0.9666,0.8448,0.8127,0.7332,0.6536,0.6165,0.6324,0.6377,0.6432,0.622,0.4733,0.0,0.0,0.0,0.0,0.0,0.0,0.0,0.0,0.0,0.0,0.0,0.0,0.0,0.0,0.0,0.0,0.0,0.0,0.0,0.0,0.0,0.0,0.0,0.0,0.0,0.0,0.0,0.0,0.0,2.1276,2.0236,1.8096,1.6216,1.4756,1.4651,1.4288,1.3708,1.3607,1.3607,1.3607,1.3607,1.3607,1.3607,1.3607,1.3607,1.3607,1.3607,1.3607,1.3607,1.3607,1.3607,1.3607,1.3607,1.3607,1.3607,1.3607,1.3607,1.3607,1.3618,1.3667,1.3776,1.3847,1.3966,1.4047,1.4129,1.4199,1.4298,1.432,1.432,1.432,1.432,1.432,1.432,1.432,1.432,1.432,1.432,1.432,1.432,1.432,1.432,1.432,1.432,1.432,1.4298,1.4091,1.402,1.3982,1.3727,1.3635,1.3607,1.3607,1.3607,1.3607,1.3607,1.3607,1.3607,1.3607,1.3496,1.3069,1.2377,1.1368,1.0248,0.8815,0.7756,0.6432,0.5317,0.468,0.3883,0.0,0.0,0.0,0.0,0.0,0.0,0.0,0.0,0.0,0.0,0.0,0.0,0.0,0.0,0.0,0.0,0.0,0.0,0.0,0.0,0.0,0.0,0.0,0.0,0.0,0.0,0.0,0.0,0.0,0.0,0.0,0.0,0.0,0.0,0.0,2.034,1.9037,1.7003,1.5125,1.366,1.3607,1.3607,1.3607,1.3607,1.3607,1.3607,1.3607,1.3607,1.3607,1.3607,1.3607,1.3607,1.3607,1.3607,1.3607,1.3607,1.3607,1.3607,1.3607,1.3607,1.3607,1.3607,1.3607,1.3607,1.3613,1.3651,1.3743,1.3781,1.3874,1.401,1.4069,1.415,1.4314,1.432,1.432,1.432,1.432,1.432,1.432,1.432,1.432,1.432,1.432,1.432,1.432,1.432,1.432,1.432,1.432,1.4292,1.4238,1.4059,1.3939,1.3863,1.3727,1.3629,1.3607,1.3607,1.3607,1.3607,1.3607,1.3069,1.2588,1.2483,1.2271,1.1685,1.0147,0.8978,0.7862,0.6748,0.6008,0.0,0.0,0.0,0.2129,0.0,0.0,0.0,0.0,0.0,0.0,0.0,0.0,0.0,0.0,0.0,0.0,0.0,0.0,0.0,0.0,0.0,0.0,0.0,0.0,0.0,0.0,0.0,0.0,0.0,0.0,0.0,0.0,0.0,0.0,0.0,0.0,0.0,0.0,0.0,2.1024,2.0652,1.7475,1.5224,1.3708,1.3607,1.3607,1.3607,1.3607,1.3607,1.3607,1.3607,1.3607,1.3607,1.3607,1.3607,1.3607,1.3607,1.3607,1.3607,1.3607,1.3607,1.3607,1.3607,1.3607,1.3607,1.3607,1.3607,1.3607,1.3607,1.3613,1.3629,1.3716,1.3776,1.3896,1.4048,1.4123,1.4282,1.4309,1.432,1.432,1.432,1.432,1.432,1.432,1.432,1.432,1.432,1.432,1.432,1.432,1.432,1.432,1.4298,1.4254,1.4167,1.4021,1.3793,1.3374,1.3487,1.3624,1.3607,1.3607,1.3444,1.3016,1.3391,1.2641,1.0782,1.0464,0.9613,0.8448,0.6963,0.6324,0.5421,0.4467,0.3351,0.0,0.0,0.0,0.0,0.0,0.0,0.0,0.0,0.0,0.0,0.0,0.0,0.0,0.0,0.0,0.0,0.0,0.0,0.0,0.0,0.0,0.0,0.0,0.0,0.0,0.0,0.0,0.0,0.0,0.0,0.0,0.0,0.0,0.0,0.0,0.0,0.0,0.0,0.0,2.144,1.9454,1.8148,1.6689,1.5014,1.4024,1.3607,1.3607,1.3607,1.3607,1.3607,1.3607,1.3607,1.3607,1.3607,1.3607,1.3607,1.3607,1.3607,1.3607,1.3607,1.3607,1.3607,1.3607,1.3607,1.3607,1.3607,1.3607,1.3607,1.3607,1.3607,1.3629,1.3667,1.3722,1.383,1.3988,1.408,1.4211,1.4276,1.432,1.432,1.432,1.432,1.432,1.432,1.432,1.432,1.432,1.432,1.432,1.432,1.4314,1.4298,1.4254,1.4074,1.3889,1.3739,1.2976,1.2161,1.2659,1.3607,1.3607,1.3549,1.2963,1.1685,1.1527,1.0306,0.8978,0.8074,0.7332,0.7069,0.5583,0.4308,0.3299,0.0,0.0,0.0,0.0,0.0,0.0,0.0,0.0,0.0,0.0,0.0,0.0,0.0,0.0,0.0,0.0,0.0,0.0,0.0,0.0,0.0,0.0,0.0,0.0,0.0,0.0,0.0,0.0,0.0,0.0,0.0,0.0,0.0,0.0,0.0,0.0,0.0,0.0,0.0,0.0,0.0,2.2041,1.9254,1.8625,1.7235,1.5323,1.4077,1.3607,1.3607,1.3607,1.3607,1.3607,1.3607,1.3607,1.3607,1.3607,1.3607,1.3607,1.3607,1.3607,1.3607,1.3607,1.3607,1.3607,1.3607,1.3607,1.3607,1.3607,1.3607,1.3607,1.3607,1.3607,1.3607,1.3607,1.3667,1.3743,1.3917,1.4048,1.4108,1.4195,1.421,1.4265,1.4303,1.432,1.432,1.432,1.432,1.432,1.432,1.432,1.432,1.4314,1.4298,1.4249,1.4074,1.3724,1.3238,1.2644,1.1674,1.0499,1.0461,1.1531,1.0998,1.1103,1.0358,0.9666,0.9137,0.8127,0.6167,0.5742,0.5583,0.5211,0.3139,0.2395,0.0,0.0,0.0,0.0,0.0,0.0,0.0,0.0,0.0,0.0,0.0,0.0,0.0,0.0,0.0,0.0,0.0,0.0,0.0,0.0,0.0,0.0,0.0,0.0,0.0,0.0,0.0,0.0,0.0,0.0,0.0,0.0,0.0,0.0,0.0,0.0,0.0,0.0,0.0,0.0,0.0,0.0,2.2929,2.0486,1.8768,1.6435,1.3932,1.3649,1.3586,1.3564,1.3569,1.358,1.358,1.3586,1.3597,1.3602,1.3607,1.3607,1.3607,1.3607,1.3607,1.3607,1.3607,1.3607,1.3607,1.3607,1.3607,1.3607,1.3607,1.3607,1.3607,1.3607,1.3607,1.3607,1.3607,1.3613,1.3624,1.3732,1.3852,1.3961,1.408,1.4129,1.4107,1.4238,1.4282,1.4292,1.4314,1.432,1.432,1.432,1.4314,1.4287,1.3788,1.363,1.3536,1.3226,1.2308,1.0698,1.0508,0.9271,0.724,0.7072,0.7175,0.7865,0.8554,0.7706,0.7122,0.6698,0.5899,0.3831,0.3457,0.2501,0.1331,0.0,0.0,0.0,0.0,0.0,0.0,0.0,0.0,0.0,0.0,0.0,0.0,0.0,0.0,0.0,0.0,0.0,0.0,0.0,0.0,0.0,0.0,0.0,0.0,0.0,0.0,0.0,0.0,0.0,0.0,0.0,0.0,0.0,0.0,0.0,0.0,0.0,0.0,0.0,0.0,0.0,0.0,0.0,0.0,2.2388,1.8897,1.8338,1.6257,1.3565,1.3311,1.3363,1.3305,1.3316,1.3406,1.3471,1.3482,1.3537,1.358,1.3591,1.3591,1.3597,1.3607,1.3607,1.3607,1.3607,1.3607,1.3607,1.3607,1.3607,1.3607,1.3607,1.3607,1.3607,1.3607,1.3607,1.3607,1.3607,1.3607,1.364,1.3716,1.3814,1.3857,1.395,1.4021,1.4031,1.4129,1.42,1.4145,1.421,1.407,1.396,1.3899,1.3646,1.3378,1.2756,1.1873,1.145,1.0916,0.9262,0.8224,0.7991,0.6932,0.4735,0.3776,0.3936,0.537,0.6326,0.5689,0.4892,0.4573,0.3245,0.0,0.0,0.0,0.0266,0.0,0.0,0.0,0.0,0.0,0.0,0.0,0.0,0.0,0.0,0.0,0.0,0.0,0.0,0.0,0.0,0.0,0.0,0.0,0.0,0.0,0.0,0.0,0.0,0.0,0.0,0.0,0.0,0.0,0.0,0.0,0.0,0.0,0.0,0.0,0.0,0.0,0.0,0.0,0.0,0.0,0.0,0.0,0.0,2.1886,1.8064,1.792,1.6044,1.3384,1.3154,1.3238,1.3238,1.3192,1.3235,1.3346,1.3357,1.3395,1.3455,1.3477,1.352,1.3531,1.3537,1.3591,1.3597,1.3607,1.3607,1.3607,1.3602,1.3607,1.3607,1.3607,1.3607,1.3607,1.3607,1.3607,1.3607,1.3607,1.3607,1.3629,1.3678,1.3716,1.3754,1.383,1.3949,1.3928,1.3999,1.4075,1.3818,1.3471,1.2907,1.2746,1.2411,1.1891,1.1398,1.0543,0.9419,0.88,0.8048,0.6556,0.6051,0.4645,0.3725,0.2129,0.1331,0.2022,0.3617,0.0,0.3723,0.2554,0.2288,0.1597,0.0,0.0,0.0,0.0,0.0,0.0,0.0,0.0,0.0,0.0,0.0,0.0,0.0,0.0,0.0,0.0,0.0,0.0,0.0,0.0,0.0,0.0,0.0,0.0,0.0,0.0,0.0,0.0,0.0,0.0,0.0,0.0,0.0,0.0,0.0,0.0,0.0,0.0,0.0,0.0,0.0,0.0,0.0,0.0,0.0,0.0,0.0,0.0,2.1545,1.7897,1.76,1.5778,1.3229,1.3067,1.3159,1.3221,1.3216,1.317,1.3181,1.3181,1.3259,1.3254,1.3203,1.3268,1.3343,1.3412,1.3471,1.3548,1.3553,1.3569,1.3586,1.3597,1.3602,1.3607,1.3607,1.3607,1.3607,1.3607,1.3607,1.3607,1.3607,1.3607,1.3613,1.3624,1.3635,1.3673,1.3722,1.3503,1.315,1.3346,1.296,1.2383,1.1423,1.0674,1.0128,0.9302,0.8303,0.7743,0.7302,0.7046,0.6854,0.6778,0.5247,0.3522,0.1385,0.0,0.0,0.0,0.0,0.0,0.0,0.0,0.0,0.0,0.0,0.0,0.0,0.0,0.0,0.0,0.0,0.0,0.0,0.0,0.0,0.0,0.0,0.0,0.0,0.0,0.0,0.0,0.0,0.0,0.0,0.0,0.0,0.0,0.0,0.0,0.0,0.0,0.0,0.0,0.0,0.0,0.0,0.0,0.0,0.0,0.0,0.0,0.0,0.0,0.0,0.0,0.0,0.0,0.0,0.0,0.0,0.0,0.0,2.2124,1.7699,1.76,1.5764,1.3145,1.296,1.2988,1.2988,1.2993,1.3031,1.3118,1.3118,1.3151,1.3181,1.3192,1.3208,1.3224,1.3241,1.3251,1.3311,1.345,1.3466,1.3504,1.3548,1.3586,1.3602,1.3602,1.3607,1.3607,1.3607,1.3607,1.3607,1.3607,1.3607,1.3607,1.3607,1.3607,1.3613,1.3656,1.2808,1.1871,1.1674,1.095,0.9675,0.8793,0.8153,0.7725,0.7293,0.6683,0.6705,0.5353,0.463,0.4435,0.3044,0.1333,0.1173,0.0,0.0,0.0,0.0,0.0,0.0,0.0,0.0,0.0,0.0,0.0,0.0,0.0,0.0,0.0,0.0,0.0,0.0,0.0,0.0,0.0,0.0,0.0,0.0,0.0,0.0,0.0,0.0,0.0,0.0,0.0,0.0,0.0,0.0,0.0,0.0,0.0,0.0,0.0,0.0,0.0,0.0,0.0,0.0,0.0,0.0,0.0,0.0,0.0,0.0,0.0,0.0,0.0,0.0,0.0,0.0,0.0,0.0,0.0,2.2417,1.8787,1.854,1.675,1.4027,1.3134,1.289,1.289,1.289,1.2933,1.3044,1.2999,1.3037,1.308,1.3091,1.3118,1.3172,1.3178,1.3205,1.323,1.3314,1.3336,1.339,1.3466,1.351,1.3542,1.358,1.3607,1.3607,1.3607,1.3607,1.3607,1.3607,1.3607,1.3607,1.3607,1.3607,1.3607,1.329,1.2166,1.102,1.0093,0.8822,0.7078,0.631,0.5724,0.5567,0.5243,0.0,0.0,0.2521,0.2196,0.2024,0.0746,0.0,0.0,0.0,0.0,0.0,0.0,0.0,0.0,0.0,0.0,0.0,0.0,0.0,0.0,0.0,0.0,0.0,0.0,0.0,0.0,0.0,0.0,0.0,0.0,0.0,0.0,0.0,0.0,0.0,0.0,0.0,0.0,0.0,0.0,0.0,0.0,0.0,0.0,0.0,0.0,0.0,0.0,0.0,0.0,0.0,0.0,0.0,0.0,0.0,0.0,0.0,0.0,0.0,0.0,0.0,0.0,0.0,0.0,0.0,0.0,0.0,2.2525,1.9873,1.9717,1.7692,1.526,1.3584,1.289,1.289,1.289,1.289,1.2895,1.2895,1.2906,1.2944,1.2944,1.2982,1.3031,1.3058,1.3091,1.3211,1.3216,1.3227,1.3259,1.3341,1.3395,1.345,1.3504,1.3569,1.3602,1.3607,1.3607,1.3607,1.3607,1.3607,1.3607,1.3607,1.3338,1.2646,1.2483,1.1685,1.009,0.9352,0.8604,0.6063,0.4368,0.3091,0.2664,0.0,0.0,0.0,0.0,0.0,0.0,0.0,0.0,0.0,0.0,0.0,0.0,0.0,0.0,0.0,0.0,0.0,0.0,0.0,0.0,0.0,0.0,0.0,0.0,0.0,0.0,0.0,0.0,0.0,0.0,0.0,0.0,0.0,0.0,0.0,0.0,0.0,0.0,0.0,0.0,0.0,0.0,0.0,0.0,0.0,0.0,0.0,0.0,0.0,0.0,0.0,0.0,0.0,0.0,0.0,0.0,0.0,0.0,0.0,0.0,0.0,0.0,0.0,0.0,0.0,0.0,0.0,0.0,2.3111,1.9766,1.7444,1.5907,1.5111,1.3584,1.289,1.289,1.289,1.289,1.289,1.289,1.289,1.289,1.289,1.2922,1.2933,1.296,1.295,1.3015,1.3069,1.3107,1.3129,1.3227,1.3224,1.3273,1.3401,1.351,1.3569,1.3591,1.3602,1.3607,1.3607,1.3607,1.3549,1.3496,1.2699,1.1579,1.0517,0.9613,0.7865,0.5634,0.3936,0.0,0.0,0.0,0.0,0.0,0.0,0.0,0.0,0.0,0.0,0.0,0.0,0.0,0.0,0.0,0.0,0.0,0.0,0.0,0.0,0.0,0.0,0.0,0.0,0.0,0.0,0.0,0.0,0.0,0.0,0.0,0.0,0.0,0.0,0.0,0.0,0.0,0.0,0.0,0.0,0.0,0.0,0.0,0.0,0.0,0.0,0.0,0.0,0.0,0.0,0.0,0.0,0.0,0.0,0.0,0.0,0.0,0.0,0.0,0.0,0.0,0.0,0.0,0.0,0.0,0.0,0.0,0.0,0.0,0.0,0.0,0.0,2.4048,2.1388,1.784,1.6304,1.5907,1.3878,1.289,1.289,1.289,1.289,1.289,1.289,1.289,1.289,1.289,1.289,1.289,1.289,1.2906,1.2928,1.295,1.2977,1.3037,1.3107,1.3145,1.3194,1.3287,1.3395,1.3504,1.3526,1.3526,1.3586,1.3602,1.3549,1.3391,1.2699,1.1579,1.0248,0.8498,0.6695,0.5317,0.3829,0.2183,0.0,0.0,0.0,0.0,0.0,0.0,0.0,0.0,0.0,0.0,0.0,0.0,0.0,0.0,0.0,0.0,0.0,0.0,0.0,0.0,0.0,0.0,0.0,0.0,0.0,0.0,0.0,0.0,0.0,0.0,0.0,0.0,0.0,0.0,0.0,0.0,0.0,0.0,0.0,0.0,0.0,0.0,0.0,0.0,0.0,0.0,0.0,0.0,0.0,0.0,0.0,0.0,0.0,0.0,0.0,0.0,0.0,0.0,0.0,0.0,0.0,0.0,0.0,0.0,0.0,0.0,0.0,0.0,0.0,0.0,0.0,0.0,2.5032,2.3463,1.9322,1.76,1.7105,1.4227,1.289,1.289,1.289,1.289,1.289,1.289,1.289,1.289,1.289,1.289,1.289,1.289,1.289,1.289,1.2895,1.2917,1.295,1.2993,1.3047,1.3102,1.3183,1.3287,1.3395,1.3354,1.345,1.3553,1.3533,1.3427,1.2641,1.1421,0.9931,0.8021,0.6058,0.3883,0.3191,0.298,0.1597,0.0,0.0,0.0,0.0,0.0,0.0,0.0,0.0,0.0,0.0,0.0,0.0,0.0,0.0,0.0,0.0,0.0,0.0,0.0,0.0,0.0,0.0,0.0,0.0,0.0,0.0,0.0,0.0,0.0,0.0,0.0,0.0,0.0,0.0,0.0,0.0,0.0,0.0,0.0,0.0,0.0,0.0,0.0,0.0,0.0,0.0,0.0,0.0,0.0,0.0,0.0,0.0,0.0,0.0,0.0,0.0,0.0,0.0,0.0,0.0,0.0,0.0,0.0,0.0,0.0,0.0,0.0,0.0,0.0,0.0,0.0,0.0,2.5701,2.3609,1.9372,1.76,1.7105,1.4227,1.289,1.289,1.289,1.289,1.289,1.289,1.289,1.289,1.289,1.289,1.289,1.289,1.289,1.289,1.289,1.289,1.2901,1.2939,1.3038,1.3042,1.3091,1.3162,1.3259,1.3281,1.3336,1.345,1.3299,1.255,1.0932,0.9606,0.8117,0.6,0.4306,0.0,0.0,0.0,0.0,0.0,0.0,0.0,0.0,0.0,0.0,0.0,0.0,0.0,0.0,0.0,0.0,0.0,0.0,0.0,0.0,0.0,0.0,0.0,0.0,0.0,0.0,0.0,0.0,0.0,0.0,0.0,0.0,0.0,0.0,0.0,0.0,0.0,0.0,0.0,0.0,0.0,0.0,0.0,0.0,0.0,0.0,0.0,0.0,0.0,0.0,0.0,0.0,0.0,0.0,0.0,0.0,0.0,0.0,0.0,0.0,0.0,0.0,0.0,0.0,0.0,0.0,0.0,0.0,0.0,0.0,0.0,0.0,0.0,0.0,0.0,0.0]},{"header":{"parameterUnit":"m.s-1","parameterCategory":1,"la1":31.0,"la2":29.5877,"lo1":-88.7671,"lo2":-86.6584,"dy":0.0162,"dx":0.0185,"nx":115,"ny":88,"refTime":"2023-04-06T18:00:00:Z","depth":0,"parameterNumber":3,"parameterNumberName":"V-component_of_WINDS"},"data":[0.0,0.0,0.0,0.0,0.0,0.0,0.0,0.0,0.0,0.0,0.0,0.0,0.0,0.0,0.0,0.0,0.0,0.0,0.0,0.0,0.0,0.0,0.0,0.0,0.0,0.0,0.0,0.0,0.0,0.0,0.0,0.0,0.0,0.0,0.0,0.0,0.0,0.0,0.0,0.0,0.0,0.0,0.0,0.0,0.0,0.0,0.0,0.0,0.0,0.0,0.0,0.0,0.0,0.0,0.0,0.0,0.0,0.0,0.0,0.0,0.0,0.0,0.0,0.0,0.0,0.0,0.0,0.0,0.0,0.0,0.0,0.0,0.0,0.0,0.0,0.0,0.0,0.0,0.0,0.0,0.0,0.0,0.0,0.0,0.0,0.0,0.0,0.0,0.0,0.0,0.0,0.0,0.0,0.0,0.0,0.0,0.0,0.0,0.0,0.0,0.0,0.0,0.0,0.0,0.0,0.0,0.0,0.0,0.0,0.0,0.0,0.0,0.0,0.0,0.0,0.0,0.0,0.0,0.0,0.0,0.0,0.0,0.0,0.0,0.0,0.0,0.0,0.0,0.0,0.0,0.0,0.0,0.0,0.0,0.0,0.0,0.0,0.0,0.0,0.0,0.0,0.0,0.0,0.0,0.0,0.0,0.0,0.0,0.0,0.0,0.0,0.0,0.0,0.0,0.0,0.0,0.0,0.0,0.0,0.0,0.0,0.0,0.0,0.0,0.0,0.0,0.0,0.0,0.0,0.0,0.0,0.0,0.0,0.0,0.0,0.0,0.0,0.0,0.0,0.0,0.0,0.0,0.0,0.0,0.0,0.0,0.0,0.0,0.0,0.0,0.0,0.0,0.0,0.0,0.0,0.0,0.0,0.0,0.0,0.0,0.0,0.0,0.0,0.0,0.0,0.0,0.0,0.0,0.0,0.0,0.0,0.0,0.0,0.0,0.0,0.0,0.0,0.0,0.0,0.0,0.0,0.0,0.0,0.0,0.0,0.0,0.0,0.0,0.0,0.0,0.0,0.0,0.0,0.0,0.0,0.0,0.0,0.0,0.0,0.0,0.0,0.0,0.0,0.0,0.0,0.0,0.0,0.0,0.0,0.0,0.0,0.0,0.0,0.0,0.0,0.0,0.0,0.0,0.0,0.0,0.0,0.0,0.0,0.0,0.0,0.0,0.0,0.0,0.0,0.0,0.0,0.0,0.0,0.0,0.0,0.0,0.0,0.0,0.0,0.0,0.0,0.0,0.0,0.0,0.0,0.0,0.0,0.0,0.0,0.0,0.0,0.0,0.0,0.0,0.0,0.0,0.0,0.0,0.0,0.0,0.0,0.0,0.0,0.0,0.0,0.0,0.0,0.0,0.0,0.0,0.0,0.0,0.0,0.0,0.0,0.0,0.0,0.0,0.0,0.0,0.0,0.0,0.0,0.0,0.0,0.0,0.0,0.0,0.0,0.0,0.0,0.0,0.0,0.0,0.0,0.0,0.0,0.0,0.0,0.0,0.0,0.0,0.0,0.0,0.0,0.0,0.0,0.0,0.0,0.0,0.0,0.0,0.0,0.0,0.0,0.0,0.0,0.0,0.0,0.0,0.0,0.0,0.0,0.0,0.0,0.0,0.0,0.0,0.0,0.0,0.0,0.0,0.0,0.0,0.0,0.0,0.0,0.0,0.0,0.0,0.0,0.0,0.0,0.0,0.0,0.0,0.0,0.0,0.0,0.0,0.0,0.0,0.0,0.0,0.0,0.0,0.0,0.0,0.0,0.0,0.0,0.0,0.0,0.0,0.0,0.0,0.0,0.0,0.0,0.0,0.0,0.0,0.0,0.0,0.0,0.0,0.0,0.0,0.0,0.0,0.0,0.0,0.0,0.0,0.0,0.0,0.0,0.0,0.0,0.0,0.0,0.0,0.0,0.0,0.0,0.0,0.0,0.0,0.0,0.0,0.0,0.0,0.0,0.0,0.0,0.0,0.0,0.0,0.0,0.0,0.0,0.0,0.0,0.0,0.0,0.0,0.0,0.0,0.0,0.0,0.0,0.0,0.0,0.0,0.0,0.0,0.0,0.0,0.0,0.0,0.0,0.0,0.0,0.0,0.0,0.0,0.0,0.0,0.0,0.0,0.0,0.0,0.0,0.0,0.0,0.0,0.0,0.0,0.0,0.0,0.0,0.0,0.0,0.0,0.0,0.0,0.0,0.0,0.0,0.0,0.0,0.0,0.0,0.0,0.0,0.0,0.0,0.0,0.0,0.0,0.0,0.0,0.0,0.0,0.0,0.0,0.0,0.0,0.0,0.0,0.0,0.0,0.0,0.0,0.0,0.0,0.0,0.0,0.0,0.0,0.0,0.0,0.0,0.0,0.0,0.0,0.0,0.0,0.0,0.0,0.0,0.0,0.0,0.0,0.0,0.0,0.0,0.0,0.0,0.0,0.0,0.0,0.0,0.0,0.0,0.0,0.0,0.0,0.0,0.0,0.0,0.0,0.0,0.0,0.0,0.0,0.0,0.0,0.0,0.0,0.0,0.0,0.0,0.0,0.0,0.0,0.0,0.0,0.0,0.0,0.0,0.0,0.0,0.0,0.0,0.0,0.0,0.0,0.0,0.0,0.0,0.0,0.0,0.0,0.0,0.0,0.0,0.0,0.0,0.0,0.0,0.0,0.0,0.0,0.0,0.0,0.0,0.0,0.0,0.0,0.0,0.0,0.0,0.0,0.0,0.0,0.0,0.0,0.0,0.0,0.0,0.0,0.0,0.0,0.0,0.0,0.0,0.0,0.0,0.0,0.0,0.0,0.0,0.0,0.0,0.0,0.0,0.0,0.0,0.0,0.0,0.0,0.0,0.0,0.0,0.0,0.0,0.0,0.0,0.0,0.0,0.0,0.0,0.0,0.0,0.0,0.0,0.0,0.0,0.0,0.0,0.0,0.0,0.0,0.0,0.0,0.0,0.0,0.0,0.0,0.0,0.0,0.0,0.0,0.0,0.0,0.0,0.0,0.0,0.0,0.0,0.0,0.0,0.0,0.0,0.0,0.0,0.0,0.0,0.0,0.0,0.0,0.0,0.0,0.0,0.0,0.0,0.0,0.0,0.0,0.0,0.0,0.0,0.0,0.0,0.0,0.0,0.0,0.0,0.0,0.0,0.0,0.0,0.0,0.0,0.0,0.0,0.0,0.0,0.0,0.0,0.0,0.0,0.0,0.0,0.0,0.0,0.0,0.0,0.0,0.0,0.0,0.0,0.0,0.0,0.0,0.0,0.0,0.0,0.0,0.0,0.0,0.0,0.0,0.0,0.0,0.0,0.0,0.0,0.0,0.0,0.0,0.0,0.0,0.0,0.0,0.0,0.0,0.0,0.0,0.0,0.0,0.0,0.0,0.0,0.0,0.0,0.0,0.0,0.0,0.0,0.0,0.0,0.0,0.0,0.0,0.0,0.0,0.0,0.0,0.0,0.0,0.0,0.0,0.0,0.0,0.0,0.0,0.0,0.0,0.0,0.0,0.0,0.0,0.0,0.0,0.0,0.0,0.0,0.0,0.0,0.0,0.0,0.0,0.0,0.0,0.0,0.0,0.0,0.0,0.0,0.0,0.0,0.0,0.0,0.0,0.0,0.0,0.0,0.0,0.0,0.0,0.0,0.0,0.0,0.0,0.0,0.0,0.0,0.0,0.0,0.0,0.0,0.0,0.0,0.0,0.0,0.0,0.0,0.0,0.0,0.0,0.0,0.0,0.0,0.0,0.0,0.0,0.0,0.0,0.0,0.0,0.0,0.0,0.0,0.0,0.0,0.0,0.0,0.0,0.0,0.0,0.0,0.0,0.0,0.0,0.0,0.0,0.0,0.0,0.0,0.0,0.0,0.0,0.0,0.0,0.0,0.0,0.0,0.0,0.0,0.0,0.0,0.0,0.0,0.0,0.0,0.0,0.0,0.0,0.0,0.0,0.0,0.0,0.0,0.0,0.0,0.0,0.0,0.0,0.0,0.0,0.0,0.0,0.0,0.0,0.0,0.0,0.0,0.0,0.0,0.0,0.0,0.0,0.0,0.0,0.0,0.0,0.0,0.0,0.0,0.0,0.0,0.0,0.0,0.0,0.0,0.0,0.0,0.0,0.0,0.0,0.0,0.0,0.0,0.0,0.0,0.0,0.0,0.0,0.0,0.0,0.0,0.0,0.0,0.0,0.0,0.0,0.0,0.0,0.0,0.0,0.0,0.0,0.0,0.0,0.0,0.0,0.0,0.0,0.0,0.0,0.0,0.0,0.0,0.0,2.801,0.0,0.0,0.0,0.0,0.0,0.0,0.0,0.0,0.0,0.0,0.0,0.0,0.0,0.0,0.0,0.0,0.0,0.0,0.0,0.0,0.0,0.0,0.0,0.0,0.0,0.0,0.0,0.0,0.0,0.0,0.0,0.0,0.0,0.0,0.0,0.0,0.0,0.0,0.0,0.0,0.0,0.0,0.0,0.0,0.0,0.0,0.0,0.0,0.0,0.0,0.0,0.0,0.0,0.0,0.0,0.0,0.0,0.0,0.0,0.0,0.0,0.0,0.0,0.0,0.0,0.0,0.0,0.0,0.0,0.0,0.0,0.0,0.0,0.0,0.0,0.0,0.0,0.0,0.0,0.0,0.0,0.0,0.0,0.0,0.0,0.0,0.0,0.0,0.0,0.0,0.0,0.0,0.0,0.0,0.0,0.0,0.0,0.0,0.0,0.0,0.0,0.0,0.0,0.0,0.0,0.0,0.0,0.0,0.0,0.0,3.0533,2.6962,3.3964,3.437,2.7139,0.0,0.0,0.0,0.0,0.0,0.0,0.0,0.0,0.0,0.0,0.0,0.0,0.0,0.0,0.0,0.0,0.0,0.0,0.0,0.0,0.0,0.0,0.0,0.0,0.0,0.0,0.0,0.0,0.0,0.0,0.0,0.0,0.0,0.0,0.0,0.0,0.0,0.0,0.0,0.0,0.0,0.0,0.0,0.0,0.0,0.0,0.0,0.0,0.0,0.0,0.0,0.0,0.0,0.0,0.0,0.0,0.0,0.0,0.0,0.0,0.0,0.0,0.0,0.0,0.0,0.0,0.0,0.0,0.0,0.0,0.0,0.0,0.0,0.0,0.0,0.0,0.0,0.0,0.0,0.0,0.0,0.0,0.0,0.0,0.0,0.0,0.0,0.0,0.0,0.0,0.0,0.0,0.0,0.0,0.0,0.0,0.0,0.0,0.0,0.0,0.0,0.0,0.0,0.0,0.0,0.0,0.0,0.0,0.0,0.0,0.0,0.0,3.3592,3.3829,2.8053,0.0,0.0,0.0,0.0,0.0,0.0,0.0,0.0,0.0,0.0,0.0,0.0,0.0,0.0,0.0,0.0,0.0,0.0,0.0,0.0,0.0,0.0,0.0,0.0,0.0,0.0,0.0,0.0,0.0,0.0,0.0,0.0,0.0,0.0,0.0,0.0,0.0,0.0,0.0,0.0,0.0,0.0,0.0,0.0,0.0,0.0,0.0,0.0,0.0,0.0,0.0,0.0,0.0,0.0,0.0,0.0,0.0,0.0,0.0,0.0,0.0,0.0,0.0,0.0,0.0,0.0,0.0,0.0,0.0,0.0,0.0,0.0,0.0,0.0,0.0,0.0,0.0,0.0,0.0,0.0,0.0,0.0,0.0,0.0,0.0,0.0,0.0,0.0,0.0,0.0,0.0,0.0,0.0,0.0,0.0,0.0,0.0,0.0,0.0,0.0,0.0,0.0,0.0,0.0,0.0,0.0,0.0,0.0,0.0,0.0,2.8662,3.1684,3.2462,0.0,3.0683,0.0,0.0,0.0,0.0,0.0,0.0,0.0,0.0,0.0,0.0,0.0,0.0,0.0,0.0,0.0,0.0,0.0,0.0,0.0,0.0,0.0,0.0,0.0,0.0,0.0,0.0,0.0,0.0,0.0,0.0,0.0,0.0,0.0,0.0,0.0,0.0,0.0,0.0,0.0,0.0,0.0,0.0,0.0,0.0,0.0,0.0,0.0,0.0,0.0,0.0,0.0,0.0,0.0,0.0,0.0,0.0,0.0,0.0,0.0,0.0,0.0,0.0,0.0,0.0,0.0,0.0,0.0,0.0,0.0,0.0,0.0,0.0,0.0,0.0,0.0,0.0,0.0,0.0,0.0,0.0,0.0,0.0,0.0,0.0,0.0,0.0,0.0,0.0,0.0,0.0,0.0,0.0,0.0,0.0,0.0,0.0,0.0,0.0,0.0,0.0,0.0,0.0,0.0,0.0,0.0,0.0,0.0,0.0,0.0,0.0,2.961,3.2858,3.253,3.1302,0.0,0.0,0.0,0.0,0.0,0.0,0.0,0.0,0.0,0.0,0.0,0.0,0.0,0.0,0.0,0.0,0.0,0.0,0.0,0.0,0.0,0.0,0.0,0.0,0.0,0.0,0.0,0.0,0.0,0.0,0.0,0.0,0.0,0.0,0.0,0.0,0.0,0.0,0.0,0.0,0.0,0.0,0.0,0.0,0.0,0.0,0.0,0.0,0.0,0.0,0.0,0.0,0.0,0.0,0.0,0.0,0.0,0.0,0.0,0.0,0.0,0.0,0.0,0.0,0.0,0.0,0.0,0.0,0.0,0.0,0.0,0.0,0.0,0.0,0.0,0.0,0.0,0.0,0.0,0.0,0.0,0.0,0.0,0.0,0.0,0.0,0.0,0.0,0.0,0.0,0.0,0.0,0.0,0.0,0.0,0.0,0.0,0.0,0.0,0.0,0.0,0.0,0.0,0.0,0.0,0.0,0.0,0.0,0.0,0.0,3.0838,3.1935,3.4641,3.2621,3.0557,2.8779,0.0,0.0,0.0,0.0,0.0,0.0,0.0,0.0,0.0,0.0,0.0,0.0,0.0,0.0,0.0,0.0,0.0,0.0,0.0,0.0,0.0,0.0,0.0,0.0,0.0,0.0,0.0,0.0,0.0,0.0,0.0,0.0,0.0,0.0,0.0,0.0,0.0,0.0,0.0,0.0,0.0,0.0,0.0,0.0,0.0,0.0,0.0,0.0,0.0,0.0,0.0,0.0,0.0,0.0,0.0,0.0,0.0,0.0,0.0,0.0,0.0,0.0,0.0,0.0,0.0,0.0,0.0,0.0,0.0,0.0,0.0,0.0,0.0,0.0,0.0,0.0,0.0,0.0,0.0,0.0,0.0,0.0,0.0,0.0,0.0,0.0,0.0,0.0,0.0,0.0,0.0,0.0,0.0,0.0,0.0,0.0,0.0,0.0,0.0,0.0,0.0,0.0,0.0,0.0,0.0,0.0,0.0,0.0,3.7009,3.5318,3.5701,3.8396,3.2554,2.9779,0.0,0.0,0.0,0.0,0.0,0.0,0.0,0.0,0.0,0.0,0.0,0.0,0.0,0.0,0.0,0.0,0.0,0.0,0.0,0.0,0.0,0.0,0.0,0.0,0.0,0.0,0.0,0.0,0.0,0.0,0.0,0.0,0.0,0.0,0.0,0.0,0.0,0.0,0.0,0.0,0.0,0.0,0.0,0.0,0.0,0.0,0.0,0.0,0.0,0.0,0.0,0.0,0.0,0.0,0.0,0.0,0.0,0.0,0.0,0.0,0.0,0.0,0.0,0.0,0.0,0.0,0.0,0.0,0.0,0.0,0.0,0.0,0.0,0.0,0.0,0.0,0.0,0.0,0.0,0.0,0.0,0.0,0.0,0.0,0.0,0.0,0.0,0.0,0.0,0.0,0.0,0.0,0.0,0.0,0.0,0.0,0.0,0.0,0.0,0.0,0.0,0.0,0.0,0.0,0.0,0.0,0.0,0.0,0.0,3.2905,3.6738,3.8408,3.7596,3.6603,3.5239,0.0,0.0,0.0,0.0,0.0,0.0,0.0,0.0,0.0,0.0,0.0,0.0,0.0,0.0,0.0,0.0,0.0,0.0,0.0,0.0,0.0,0.0,0.0,0.0,0.0,0.0,0.0,0.0,0.0,0.0,0.0,0.0,0.0,0.0,0.0,0.0,0.0,0.0,0.0,0.0,0.0,0.0,0.0,0.0,0.0,0.0,0.0,0.0,0.0,0.0,0.0,0.0,0.0,0.0,0.0,0.0,0.0,0.0,0.0,0.0,0.0,0.0,0.0,0.0,0.0,0.0,0.0,0.0,0.0,0.0,0.0,0.0,0.0,0.0,0.0,0.0,0.0,0.0,0.0,0.0,0.0,0.0,0.0,0.0,0.0,0.0,0.0,0.0,0.0,0.0,0.0,0.0,0.0,0.0,0.0,0.0,0.0,0.0,0.0,0.0,0.0,0.0,0.0,0.0,0.0,0.0,0.0,0.0,0.0,3.4055,0.0,4.2063,4.0134,3.9094,3.7234,0.0,0.0,0.0,0.0,0.0,0.0,0.0,0.0,0.0,0.0,0.0,0.0,0.0,0.0,0.0,0.0,0.0,0.0,0.0,0.0,0.0,0.0,0.0,0.0,0.0,0.0,0.0,0.0,0.0,0.0,0.0,0.0,0.0,0.0,0.0,0.0,0.0,0.0,0.0,0.0,0.0,0.0,0.0,0.0,0.0,0.0,0.0,0.0,0.0,0.0,0.0,0.0,0.0,0.0,0.0,0.0,0.0,0.0,0.0,0.0,0.0,0.0,0.0,0.0,0.0,0.0,0.0,0.0,0.0,0.0,0.0,0.0,0.0,0.0,0.0,0.0,0.0,0.0,0.0,0.0,0.0,0.0,0.0,0.0,0.0,0.0,0.0,0.0,0.0,0.0,0.0,0.0,0.0,0.0,0.0,0.0,0.0,0.0,0.0,0.0,0.0,0.0,0.0,0.0,0.0,0.0,0.0,0.0,3.3366,4.169,4.5041,4.6549,4.6583,3.9737,3.5171,0.0,0.0,0.0,0.0,0.0,0.0,0.0,0.0,0.0,0.0,0.0,0.0,0.0,0.0,0.0,0.0,0.0,0.0,0.0,0.0,0.0,0.0,0.0,0.0,0.0,0.0,0.0,0.0,0.0,0.0,0.0,0.0,0.0,0.0,0.0,0.0,0.0,0.0,0.0,0.0,0.0,0.0,0.0,0.0,0.0,0.0,0.0,0.0,0.0,0.0,0.0,0.0,0.0,0.0,0.0,0.0,0.0,0.0,0.0,0.0,0.0,0.0,0.0,0.0,0.0,0.0,0.0,0.0,0.0,0.0,0.0,0.0,0.0,0.0,0.0,0.0,0.0,0.0,0.0,0.0,0.0,0.0,0.0,0.0,0.0,0.0,0.0,0.0,0.0,0.0,0.0,0.0,0.0,0.0,0.0,0.0,0.0,0.0,0.0,0.0,0.0,0.0,0.0,0.0,0.0,0.0,0.0,0.0,0.0,3.7775,4.4167,4.7549,4.738,4.278,3.9783,0.0,0.0,0.0,0.0,0.0,0.0,0.0,0.0,0.0,0.0,0.0,0.0,0.0,0.0,0.0,0.0,0.0,0.0,0.0,0.0,0.0,0.0,0.0,0.0,0.0,0.0,0.0,0.0,0.0,0.0,0.0,0.0,0.0,0.0,0.0,0.0,0.0,0.0,0.0,0.0,0.0,0.0,0.0,0.0,0.0,0.0,0.0,0.0,0.0,0.0,0.0,0.0,0.0,0.0,0.0,0.0,0.0,0.0,0.0,0.0,0.0,0.0,0.0,0.0,0.0,0.0,0.0,0.0,0.0,0.0,0.0,0.0,0.0,0.0,0.0,0.0,0.0,0.0,0.0,0.0,0.0,0.0,0.0,0.0,0.0,0.0,0.0,0.0,0.0,0.0,0.0,0.0,0.0,0.0,0.0,0.0,0.0,0.0,0.0,0.0,0.0,0.0,0.0,0.0,0.0,0.0,0.0,0.0,0.0,4.0481,4.6602,4.9984,4.9984,4.4756,4.1743,4.1287,0.0,0.0,0.0,0.0,0.0,0.0,0.0,0.0,0.0,0.0,0.0,0.0,0.0,0.0,0.0,0.0,0.0,0.0,0.0,0.0,0.0,0.0,0.0,0.0,0.0,0.0,0.0,0.0,0.0,0.0,0.0,0.0,0.0,0.0,0.0,0.0,0.0,0.0,0.0,0.0,0.0,0.0,0.0,0.0,0.0,0.0,0.0,0.0,0.0,0.0,0.0,0.0,0.0,0.0,0.0,0.0,0.0,0.0,0.0,0.0,0.0,0.0,0.0,0.0,0.0,0.0,0.0,0.0,0.0,0.0,0.0,0.0,0.0,0.0,0.0,0.0,0.0,0.0,0.0,0.0,0.0,0.0,0.0,0.0,0.0,0.0,0.0,0.0,0.0,0.0,0.0,0.0,0.0,0.0,0.0,0.0,0.0,0.0,0.0,0.0,0.0,0.0,0.0,0.0,0.0,0.0,0.0,0.0,4.7853,5.1539,5.3433,5.3348,4.552,4.1418,0.0,0.0,0.0,0.0,0.0,0.0,0.0,0.0,0.0,0.0,0.0,0.0,0.0,0.0,0.0,0.0,0.0,0.0,0.0,0.0,0.0,0.0,0.0,0.0,0.0,0.0,0.0,0.0,0.0,0.0,0.0,0.0,0.0,0.0,0.0,0.0,0.0,0.0,0.0,0.0,0.0,0.0,0.0,0.0,0.0,0.0,0.0,0.0,0.0,0.0,0.0,0.0,0.0,0.0,0.0,0.0,0.0,0.0,0.0,0.0,0.0,0.0,0.0,0.0,0.0,0.0,0.0,0.0,0.0,0.0,0.0,0.0,0.0,0.0,0.0,0.0,0.0,0.0,0.0,0.0,0.0,0.0,0.0,0.0,0.0,0.0,0.0,0.0,0.0,0.0,0.0,0.0,0.0,0.0,0.0,0.0,0.0,0.0,0.0,0.0,0.0,0.0,0.0,0.0,0.0,0.0,0.0,0.0,0.0,4.7853,5.1573,5.3501,5.3348,4.6041,4.2035,0.0,0.0,0.0,0.0,0.0,0.0,0.0,0.0,0.0,0.0,0.0,0.0,0.0,0.0,0.0,0.0,0.0,0.0,0.0,0.0,0.0,0.0,0.0,0.0,0.0,0.0,0.0,0.0,0.0,0.0,0.0,0.0,0.0,0.0,0.0,0.0,0.0,0.0,0.0,0.0,0.0,0.0,0.0,0.0,0.0,0.0,0.0,0.0,0.0,0.0,0.0,0.0,0.0,0.0,0.0,0.0,0.0,0.0,0.0,0.0,0.0,0.0,0.0,0.0,0.0,0.0,0.0,0.0,0.0,0.0,0.0,0.0,0.0,0.0,0.0,0.0,0.0,0.0,0.0,0.0,0.0,0.0,0.0,0.0,0.0,0.0,0.0,0.0,0.0,0.0,0.0,0.0,0.0,0.0,0.0,0.0,0.0,0.0,0.0,0.0,0.0,0.0,0.0,0.0,0.0,0.0,0.0,0.0,4.4891,5.0119,5.2367,5.3501,5.3501,4.7752,4.3993,0.0,0.0,0.0,0.0,0.0,0.0,0.0,0.0,0.0,0.0,0.0,0.0,0.0,0.0,0.0,0.0,0.0,0.0,0.0,0.0,0.0,0.0,0.0,0.0,0.0,0.0,0.0,0.0,0.0,0.0,0.0,0.0,0.0,0.0,0.0,0.0,0.0,0.0,0.0,0.0,0.0,0.0,0.0,0.0,0.0,0.0,0.0,0.0,0.0,0.0,0.0,0.0,0.0,0.0,0.0,0.0,0.0,0.0,0.0,0.0,0.0,0.0,0.0,0.0,0.0,0.0,0.0,0.0,0.0,0.0,0.0,0.0,0.0,0.0,0.0,0.0,0.0,0.0,0.0,0.0,0.0,0.0,0.0,0.0,0.0,0.0,0.0,0.0,0.0,0.0,0.0,0.0,0.0,0.0,0.0,0.0,0.0,0.0,0.0,0.0,0.0,0.0,0.0,0.0,0.0,0.0,0.0,0.0,4.5838,5.3315,5.3551,5.3584,5.3483,4.9895,4.6297,0.0,0.0,0.0,0.0,0.0,0.0,0.0,0.0,0.0,0.0,0.0,0.0,0.0,0.0,0.0,0.0,0.0,0.0,0.0,0.0,0.0,0.0,0.0,0.0,0.0,0.0,0.0,0.0,0.0,0.0,0.0,0.0,0.0,0.0,0.0,0.0,0.0,0.0,0.0,0.0,0.0,0.0,0.0,0.0,0.0,0.0,0.0,0.0,0.0,0.0,0.0,0.0,0.0,0.0,0.0,0.0,0.0,0.0,0.0,0.0,0.0,0.0,0.0,0.0,0.0,0.0,0.0,0.0,0.0,0.0,0.0,0.0,0.0,0.0,0.0,0.0,0.0,0.0,0.0,0.0,0.0,0.0,0.0,0.0,0.0,0.0,0.0,0.0,0.0,0.0,0.0,0.0,0.0,0.0,0.0,0.0,0.0,0.0,0.0,0.0,0.0,0.0,0.0,0.0,0.0,0.0,0.0,0.0,4.5365,5.3213,5.3962,5.4219,5.4168,5.011,4.6073,0.0,0.0,0.0,0.0,0.0,0.0,0.0,0.0,0.0,0.0,0.0,0.0,0.0,0.0,0.0,0.0,0.0,0.0,0.0,0.0,0.0,0.0,0.0,0.0,0.0,0.0,0.0,0.0,0.0,0.0,0.0,0.0,0.0,0.0,0.0,0.0,0.0,0.0,0.0,0.0,0.0,0.0,0.0,0.0,0.0,0.0,0.0,0.0,4.2148,0.0,0.0,0.0,0.0,0.0,0.0,0.0,0.0,0.0,0.0,0.0,0.0,0.0,0.0,0.0,0.0,0.0,0.0,0.0,0.0,0.0,0.0,0.0,0.0,0.0,0.0,0.0,0.0,0.0,0.0,0.0,0.0,0.0,0.0,0.0,0.0,0.0,0.0,0.0,0.0,0.0,0.0,0.0,0.0,0.0,0.0,0.0,0.0,0.0,0.0,0.0,0.0,0.0,0.0,0.0,0.0,0.0,0.0,0.0,4.8523,5.475,5.5316,5.5636,5.5846,5.3729,4.9089,0.0,0.0,0.0,0.0,0.0,0.0,0.0,0.0,0.0,0.0,0.0,0.0,0.0,0.0,0.0,0.0,0.0,0.0,0.0,0.0,0.0,0.0,0.0,0.0,0.0,0.0,0.0,0.0,0.0,0.0,0.0,0.0,0.0,0.0,0.0,0.0,0.0,0.0,0.0,0.0,0.0,0.0,0.0,0.0,0.0,0.0,0.0,0.0,0.0,0.0,0.0,0.0,0.0,0.0,0.0,0.0,0.0,0.0,0.0,0.0,0.0,0.0,0.0,0.0,0.0,0.0,0.0,0.0,0.0,0.0,0.0,0.0,0.0,0.0,0.0,0.0,0.0,0.0,0.0,0.0,0.0,0.0,0.0,0.0,0.0,0.0,0.0,0.0,0.0,0.0,0.0,0.0,0.0,0.0,0.0,0.0,0.0,0.0,0.0,0.0,0.0,0.0,0.0,0.0,0.0,0.0,0.0,4.7022,5.1464,5.6444,5.6798,5.715,5.7832,5.7952,5.2876,4.2255,0.0,0.0,0.0,0.0,0.0,0.0,0.0,0.0,0.0,0.0,0.0,0.0,0.0,0.0,0.0,0.0,0.0,0.0,0.0,0.0,0.0,0.0,0.0,0.0,0.0,0.0,0.0,0.0,0.0,0.0,0.0,0.0,0.0,0.0,0.0,0.0,0.0,0.0,4.001,4.2727,0.0,0.0,0.0,0.0,0.0,0.0,0.0,0.0,4.3791,0.0,0.0,0.0,0.0,0.0,0.0,0.0,0.0,0.0,0.0,0.0,0.0,0.0,0.0,0.0,0.0,0.0,0.0,0.0,0.0,0.0,0.0,0.0,0.0,0.0,0.0,0.0,0.0,0.0,0.0,0.0,0.0,0.0,0.0,0.0,0.0,0.0,0.0,0.0,0.0,0.0,0.0,0.0,0.0,0.0,0.0,0.0,0.0,0.0,0.0,0.0,0.0,0.0,0.0,0.0,0.0,4.3254,4.3538,4.7831,5.6442,5.7248,5.7867,5.8516,5.9031,5.4121,4.3611,0.0,0.0,0.0,0.0,0.0,0.0,0.0,0.0,0.0,0.0,0.0,0.0,0.0,0.0,0.0,0.0,0.0,0.0,0.0,0.0,0.0,0.0,0.0,0.0,0.0,0.0,0.0,0.0,0.0,0.0,0.0,0.0,0.0,0.0,0.0,0.0,0.0,0.0,0.0,4.8416,4.937,0.0,0.0,0.0,0.0,0.0,0.0,0.0,0.0,4.4993,0.0,0.0,0.0,0.0,0.0,0.0,0.0,0.0,0.0,0.0,0.0,0.0,0.0,0.0,0.0,0.0,0.0,0.0,0.0,0.0,0.0,0.0,0.0,0.0,0.0,0.0,0.0,0.0,0.0,0.0,0.0,0.0,0.0,0.0,0.0,0.0,0.0,0.0,0.0,0.0,0.0,0.0,0.0,0.0,0.0,0.0,0.0,0.0,0.0,0.0,0.0,0.0,0.0,0.0,0.0,4.3958,4.8528,5.3329,5.8207,5.908,5.9941,6.099,6.0928,5.6042,0.0,0.0,0.0,0.0,0.0,0.0,0.0,0.0,0.0,0.0,0.0,0.0,0.0,0.0,0.0,0.0,0.0,0.0,0.0,0.0,0.0,0.0,0.0,0.0,0.0,0.0,0.0,0.0,0.0,0.0,0.0,0.0,0.0,0.0,0.0,0.0,0.0,0.0,0.0,0.0,4.9674,5.0775,5.2464,0.0,0.0,0.0,0.0,0.0,0.0,4.5471,4.5104,0.0,0.0,0.0,0.0,0.0,0.0,0.0,0.0,0.0,0.0,0.0,0.0,0.0,0.0,0.0,0.0,0.0,0.0,0.0,0.0,0.0,0.0,0.0,0.0,0.0,0.0,0.0,0.0,0.0,0.0,0.0,0.0,0.0,0.0,0.0,0.0,0.0,0.0,0.0,0.0,0.0,0.0,0.0,0.0,0.0,0.0,0.0,0.0,0.0,0.0,0.0,0.0,0.0,0.0,0.0,4.5239,5.3739,5.9076,6.0611,6.1209,6.2111,6.3409,6.288,5.7954,0.0,0.0,0.0,0.0,0.0,0.0,0.0,0.0,0.0,0.0,0.0,0.0,0.0,0.0,0.0,0.0,0.0,0.0,0.0,0.0,0.0,0.0,0.0,0.0,0.0,0.0,0.0,0.0,0.0,0.0,0.0,0.0,0.0,0.0,0.0,0.0,0.0,0.0,0.0,0.0,0.0,5.173,5.4226,5.174,0.0,0.0,0.0,0.0,4.7232,4.7526,0.0,0.0,0.0,0.0,0.0,0.0,0.0,0.0,0.0,0.0,0.0,0.0,0.0,0.0,0.0,0.0,0.0,0.0,0.0,0.0,0.0,0.0,0.0,0.0,0.0,0.0,0.0,0.0,0.0,0.0,0.0,0.0,0.0,0.0,0.0,0.0,0.0,0.0,0.0,0.0,0.0,0.0,0.0,0.0,0.0,0.0,0.0,0.0,0.0,0.0,0.0,0.0,0.0,0.0,0.0,0.0,4.6603,5.2796,5.8304,6.275,6.3092,6.3534,6.4411,6.4316,5.9208,0.0,0.0,0.0,0.0,0.0,0.0,0.0,0.0,0.0,0.0,0.0,0.0,0.0,0.0,0.0,0.0,0.0,0.0,0.0,0.0,0.0,0.0,0.0,0.0,0.0,0.0,0.0,0.0,0.0,0.0,0.0,0.0,0.0,0.0,0.0,0.0,0.0,0.0,0.0,0.0,0.0,5.4043,5.1683,5.0325,4.9711,0.0,0.0,0.0,5.5794,5.7068,0.0,0.0,0.0,0.0,0.0,0.0,0.0,0.0,0.0,0.0,0.0,0.0,0.0,0.0,0.0,0.0,0.0,0.0,0.0,0.0,0.0,0.0,0.0,0.0,0.0,0.0,0.0,0.0,0.0,0.0,0.0,0.0,0.0,0.0,0.0,0.0,0.0,0.0,0.0,0.0,0.0,0.0,0.0,0.0,0.0,0.0,0.0,0.0,0.0,0.0,0.0,0.0,0.0,0.0,0.0,4.5388,4.7324,5.5723,6.1287,6.3432,6.3971,6.4583,6.5377,6.494,5.9892,0.0,0.0,0.0,0.0,0.0,0.0,0.0,0.0,0.0,0.0,0.0,0.0,0.0,0.0,0.0,0.0,0.0,0.0,0.0,0.0,0.0,0.0,0.0,0.0,0.0,0.0,0.0,0.0,0.0,0.0,0.0,0.0,0.0,0.0,0.0,0.0,0.0,0.0,0.0,0.0,0.0,0.0,5.8792,5.6748,0.0,0.0,0.0,5.5489,5.5317,0.0,0.0,0.0,0.0,0.0,0.0,0.0,0.0,0.0,0.0,0.0,0.0,0.0,0.0,0.0,0.0,0.0,0.0,0.0,0.0,0.0,0.0,0.0,0.0,0.0,0.0,0.0,0.0,0.0,0.0,0.0,0.0,0.0,0.0,0.0,0.0,0.0,0.0,0.0,0.0,0.0,0.0,0.0,0.0,0.0,0.0,0.0,0.0,0.0,0.0,0.0,0.0,0.0,0.0,0.0,0.0,0.0,4.8737,5.943,6.5086,6.5109,6.5682,6.6304,6.6952,6.6382,0.0,0.0,0.0,0.0,0.0,0.0,0.0,0.0,0.0,0.0,0.0,0.0,0.0,0.0,0.0,0.0,0.0,0.0,0.0,0.0,0.0,0.0,0.0,0.0,0.0,0.0,0.0,3.5422,0.0,0.0,0.0,0.0,0.0,0.0,0.0,0.0,0.0,0.0,0.0,0.0,0.0,0.0,5.9391,6.3233,6.1325,5.993,0.0,0.0,5.949,5.7728,5.993,6.0848,0.0,0.0,0.0,0.0,0.0,0.0,0.0,0.0,0.0,0.0,0.0,0.0,0.0,0.0,0.0,0.0,0.0,0.0,0.0,0.0,0.0,0.0,0.0,0.0,0.0,0.0,0.0,0.0,0.0,0.0,0.0,0.0,0.0,0.0,0.0,0.0,0.0,0.0,0.0,0.0,0.0,0.0,0.0,0.0,0.0,0.0,0.0,0.0,0.0,0.0,0.0,0.0,0.0,0.0,0.0,5.2222,6.3156,6.8996,6.918,6.9238,6.9398,6.9628,6.9592,6.4009,0.0,0.0,0.0,0.0,0.0,0.0,0.0,0.0,0.0,0.0,0.0,0.0,0.0,0.0,0.0,0.0,0.0,0.0,0.0,0.0,0.0,0.0,0.0,0.0,0.0,0.0,0.0,0.0,0.0,0.0,0.0,0.0,0.0,0.0,0.0,0.0,0.0,0.0,0.0,0.0,0.0,5.84,5.9453,6.0003,6.1961,0.0,0.0,6.4004,6.8274,6.9132,6.9009,6.7981,0.0,0.0,0.0,0.0,0.0,0.0,0.0,0.0,0.0,0.0,0.0,0.0,0.0,0.0,0.0,0.0,0.0,0.0,0.0,0.0,0.0,0.0,0.0,0.0,0.0,0.0,0.0,0.0,0.0,0.0,0.0,0.0,0.0,0.0,0.0,0.0,0.0,0.0,0.0,0.0,0.0,0.0,0.0,0.0,0.0,0.0,0.0,0.0,0.0,0.0,0.0,0.0,0.0,5.2222,5.2646,6.3743,6.9617,6.9762,6.9862,6.9969,7.0026,7.0026,6.6203,0.0,0.0,0.0,0.0,0.0,0.0,0.0,0.0,0.0,0.0,0.0,0.0,0.0,0.0,0.0,0.0,0.0,0.0,0.0,0.0,0.0,0.0,0.0,0.0,0.0,0.0,0.0,0.0,4.6159,4.6296,4.3938,0.0,0.0,0.0,0.0,0.0,0.0,0.0,0.0,0.0,0.0,6.5149,6.6048,6.63,0.0,0.0,6.8225,6.8041,6.9917,7.0211,7.0101,6.9807,6.9688,0.0,0.0,0.0,0.0,0.0,0.0,0.0,0.0,0.0,0.0,0.0,0.0,0.0,0.0,0.0,0.0,0.0,0.0,0.0,0.0,0.0,0.0,0.0,0.0,0.0,0.0,0.0,0.0,0.0,0.0,0.0,0.0,0.0,0.0,0.0,0.0,0.0,0.0,0.0,0.0,0.0,0.0,0.0,0.0,0.0,0.0,0.0,0.0,0.0,0.0,0.0,0.0,5.299,5.3187,6.4516,7.0507,7.0688,7.0765,7.0807,7.0807,7.0807,6.8054,0.0,0.0,0.0,0.0,0.0,0.0,0.0,0.0,0.0,0.0,0.0,0.0,0.0,0.0,0.0,0.0,0.0,0.0,0.0,0.0,0.0,0.0,0.0,0.0,0.0,0.0,0.0,0.0,4.8352,4.7765,4.5773,0.0,0.0,0.0,0.0,0.0,0.0,0.0,0.0,0.0,0.0,7.0065,7.0462,7.0602,7.0719,7.0638,7.0841,7.096,7.096,7.1115,7.1226,7.1226,0.0,0.0,0.0,0.0,0.0,0.0,0.0,0.0,0.0,0.0,0.0,0.0,0.0,0.0,0.0,0.0,0.0,0.0,0.0,0.0,0.0,0.0,0.0,0.0,0.0,0.0,0.0,0.0,0.0,0.0,3.642,0.0,0.0,0.0,0.0,0.0,0.0,0.0,0.0,0.0,0.0,0.0,0.0,0.0,0.0,0.0,0.0,0.0,0.0,0.0,0.0,0.0,0.0,0.0,5.4194,6.6016,7.2263,7.2408,7.2459,7.2422,7.2422,7.2459,6.9412,6.2939,0.0,0.0,0.0,0.0,0.0,0.0,0.0,0.0,0.0,0.0,0.0,0.0,0.0,0.0,0.0,0.0,0.0,0.0,0.0,0.0,0.0,0.0,0.0,0.0,0.0,0.0,4.481,4.5663,4.8049,0.0,0.0,0.0,0.0,0.0,0.0,0.0,0.0,0.0,0.0,7.1432,7.1452,7.068,7.1477,7.2023,7.1608,7.205,7.2451,7.2457,7.2913,7.3354,0.0,0.0,0.0,0.0,0.0,0.0,0.0,0.0,0.0,0.0,0.0,0.0,0.0,0.0,0.0,0.0,0.0,0.0,0.0,0.0,0.0,0.0,0.0,0.0,0.0,0.0,0.0,3.5817,3.6061,0.0,0.0,0.0,0.0,0.0,0.0,0.0,0.0,0.0,0.0,0.0,6.6163,6.6233,0.0,0.0,0.0,0.0,0.0,0.0,0.0,0.0,0.0,0.0,0.0,0.0,5.3776,5.4759,6.6129,7.2387,7.2481,7.2532,7.2532,7.2532,7.2532,6.9449,6.3013,0.0,0.0,0.0,0.0,0.0,0.0,0.0,0.0,0.0,0.0,0.0,0.0,0.0,0.0,0.0,0.0,0.0,0.0,0.0,0.0,0.0,0.0,0.0,0.0,0.0,5.3838,0.0,0.0,0.0,0.0,0.0,0.0,0.0,0.0,0.0,0.0,0.0,7.0482,7.2649,7.3337,7.3506,7.3315,7.3474,7.3556,0.0,0.0,0.0,0.0,0.0,0.0,0.0,0.0,0.0,0.0,0.0,0.0,0.0,0.0,6.9589,6.9209,6.9045,6.9011,6.9275,0.0,0.0,0.0,0.0,0.0,0.0,0.0,0.0,0.0,0.0,0.0,0.0,0.0,0.0,4.154,0.0,4.0146,0.0,0.0,0.0,0.0,0.0,0.0,0.0,0.0,6.2136,6.6615,7.038,7.077,7.0948,0.0,7.1498,6.7995,0.0,0.0,0.0,0.0,0.0,0.0,0.0,0.0,5.7519,5.8064,6.7918,7.3237,7.3325,7.334,7.334,7.3325,7.3046,7.077,6.6316,6.4297,6.1141,0.0,0.0,0.0,0.0,0.0,0.0,0.0,0.0,0.0,0.0,0.0,0.0,0.0,0.0,0.0,0.0,0.0,0.0,0.0,0.0,0.0,0.0,0.0,6.163,0.0,0.0,0.0,0.0,0.0,0.0,0.0,0.0,0.0,6.7843,7.1347,7.4013,7.4272,7.4738,7.4962,7.4735,0.0,0.0,0.0,0.0,0.0,0.0,0.0,7.4234,7.4639,7.4733,7.4951,7.5453,7.5931,7.6229,7.6088,0.0,0.0,7.5254,7.4875,7.4787,7.4777,7.4846,7.4933,7.4933,7.5275,7.5579,0.0,0.0,0.0,0.0,0.0,0.0,0.0,0.0,5.1064,5.0995,0.0,4.7104,0.0,0.0,0.0,0.0,0.0,5.2198,0.0,0.0,6.8788,7.1886,7.2746,7.3684,7.4195,7.4211,7.428,7.4249,7.3738,6.7134,0.0,0.0,0.0,0.0,0.0,0.0,6.3951,6.4024,7.1058,7.4867,7.4867,7.4867,7.4867,7.483,7.4147,7.3303,7.2386,6.7393,6.4016,6.2756,5.2553,0.0,0.0,0.0,0.0,0.0,0.0,0.0,0.0,0.0,0.0,0.0,0.0,0.0,0.0,0.0,0.0,0.0,0.0,0.0,0.0,6.4119,0.0,0.0,0.0,0.0,0.0,0.0,0.0,0.0,0.0,0.0,7.4266,7.4808,7.5183,7.5304,0.0,0.0,0.0,0.0,7.5104,7.474,7.4535,7.4482,7.4482,7.4865,7.5214,7.5232,0.0,0.0,7.7844,7.8226,7.83,7.7976,7.8157,7.7984,7.6385,7.5775,7.5489,7.548,7.5518,7.545,7.5506,7.6451,7.7239,5.6113,0.0,0.0,0.0,0.0,4.9323,5.0101,5.1283,5.2379,5.254,5.2035,5.2018,0.0,0.0,0.0,0.0,0.0,0.0,5.9379,6.5171,6.6917,6.9881,7.3905,7.4207,7.4348,7.4348,7.4395,7.4472,7.4507,7.2503,6.823,6.2089,0.0,0.0,0.0,0.0,6.4895,6.5299,7.1476,7.4903,7.4903,7.4903,7.4903,7.4903,7.4698,7.4478,7.4206,7.2628,6.9545,6.4774,6.2071,0.0,0.0,0.0,0.0,0.0,0.0,0.0,0.0,0.0,0.0,0.0,0.0,0.0,0.0,0.0,0.0,0.0,0.0,0.0,6.9224,7.0404,6.9162,0.0,0.0,0.0,0.0,0.0,0.0,0.0,0.0,0.0,7.675,7.6688,7.6437,0.0,0.0,7.76,7.7006,7.7245,7.7505,7.7368,7.7335,0.0,0.0,7.7114,7.7096,7.7459,7.787,7.8185,7.8284,7.8423,7.8454,7.8353,7.8423,7.833,7.79,7.7685,7.7577,7.7577,7.7577,7.7577,7.7623,7.7931,7.8176,6.3585,5.7621,5.5637,5.4767,5.4834,5.5592,5.7013,5.8875,5.9781,6.0118,5.9904,5.9036,5.8395,5.7939,5.703,0.0,0.0,0.0,6.3852,6.9733,7.015,7.231,7.5776,7.624,7.6418,7.6402,7.6517,7.6596,7.6725,7.6725,7.4732,7.0865,0.0,0.0,6.3439,6.744,6.9596,6.9765,7.3692,7.5858,7.5858,7.5858,7.5711,7.538,7.5395,7.5234,7.4903,7.4903,7.3105,6.9288,6.7136,6.4237,0.0,0.0,0.0,0.0,0.0,0.0,0.0,0.0,0.0,0.0,0.0,5.566,0.0,0.0,0.0,0.0,6.7098,7.0562,7.3784,7.4537,0.0,0.0,0.0,0.0,0.0,0.0,0.0,7.7824,7.796,7.8028,7.8028,7.8175,7.7945,7.7051,7.784,7.8408,7.8113,0.0,7.8484,7.8484,7.8484,7.8484,7.8484,7.8242,7.8237,7.89,7.9015,7.9169,7.9485,7.9523,7.9523,7.9515,7.9515,7.9523,7.9523,7.9523,7.9254,7.8638,7.8484,7.8484,7.8484,7.8754,7.9015,6.8968,6.9215,6.3585,6.1224,6.1224,6.1949,6.5386,7.047,7.0561,7.1021,7.1396,6.7341,6.5541,6.5407,6.1214,0.0,6.7157,6.7134,7.0332,7.601,7.6724,7.747,7.8269,7.9109,7.954,7.9503,7.97,7.9816,7.9743,7.9779,7.9816,7.9706,7.679,7.527,7.5307,7.5983,7.6387,7.6387,7.7105,7.7509,7.7509,7.7509,7.7142,7.6423,7.6387,7.6019,7.5234,7.5197,7.516,7.4903,6.9449,6.6269,6.6122,0.0,0.0,0.0,0.0,0.0,0.0,0.0,0.0,0.0,0.0,0.0,0.0,0.0,0.0,0.0,7.7008,0.0,7.6571,7.6828,0.0,0.0,0.0,7.7402,7.7063,7.7939,7.8407,7.7995,0.0,0.0,7.8792,7.9515,7.9746,7.8984,7.8792,7.8707,7.8639,7.8723,7.8715,7.8792,7.8792,7.883,7.9061,7.9077,7.9415,8.0123,8.0092,8.0477,8.1131,8.1285,8.1285,8.1285,8.1323,8.1323,8.1285,8.1285,8.0823,7.9369,7.8946,7.8907,7.9138,7.9746,8.0246,7.1273,7.1418,7.0538,6.9846,6.9281,6.946,7.0362,7.1726,7.2334,7.2721,7.2845,7.2336,7.2782,7.3836,7.2765,7.3696,7.6177,7.6267,7.7134,7.8597,7.8929,7.9212,7.9411,7.9627,7.9716,7.9753,7.9784,7.9816,7.9816,7.9816,7.9816,7.9779,7.9008,7.8641,7.8626,7.8825,7.8898,7.8935,7.9119,7.9213,7.9229,7.9213,7.9103,7.8935,7.8935,7.8552,7.7745,7.7708,7.7414,7.6738,7.5389,7.4654,7.4617,6.8212,0.0,0.0,0.0,0.0,0.0,0.0,0.0,0.0,0.0,6.9286,7.5272,0.0,7.6392,0.0,7.7894,7.7757,7.6813,7.7214,0.0,0.0,7.7835,7.8316,7.9003,7.9598,7.9999,8.0279,8.0422,8.0708,8.1323,8.1593,8.1862,8.2293,8.1246,8.0344,8.0016,8.0279,8.0477,8.0516,8.0946,8.1362,8.1408,8.1985,8.237,8.267,8.2678,8.2793,8.2986,8.3024,8.3024,8.3024,8.2986,8.2986,8.2939,8.3016,8.287,8.2447,8.1862,8.1593,8.2255,8.2516,8.267,7.2939,7.3331,7.4185,7.3072,7.079,7.2401,7.332,7.3678,7.4138,7.4718,7.5439,7.6279,7.7233,7.8101,7.8137,7.865,7.9507,7.9588,7.9819,8.0186,8.0649,8.1064,8.1415,8.1746,8.1929,8.1929,8.1929,8.1929,8.1946,8.2026,8.2059,8.2059,8.2139,8.217,8.2097,8.0672,8.0058,8.0425,8.0136,8.0035,7.9998,8.0035,8.0035,7.9998,8.0035,7.9814,7.9373,7.9373,7.9152,7.8658,7.8749,7.8794,7.8735,7.5036,7.445,0.0,0.0,0.0,0.0,0.0,0.0,0.0,0.0,0.0,0.0,0.0,7.7836,7.8527,7.9237,7.9459,7.899,7.9419,7.9901,8.0293,8.0486,8.0848,8.1438,8.1691,8.1918,8.2192,8.2208,8.2362,8.2832,8.2909,8.3062,8.3524,8.2785,8.2106,8.1909,8.2057,8.2208,8.2247,8.2601,8.287,8.2901,8.3293,8.3601,8.3601,8.3601,8.3601,8.3601,8.3601,8.3601,8.3601,8.3601,8.3601,8.3601,8.3601,8.3678,8.4016,8.3785,8.3555,8.3563,8.3601,8.3601,7.4649,7.5423,7.6241,7.4147,7.0559,7.3739,7.4545,7.3654,7.3654,7.4895,7.7101,7.8796,7.9709,7.9963,7.9963,8.0073,8.0257,8.0241,8.0681,8.1489,8.2186,8.29,8.3598,8.4312,8.4659,8.4676,8.4676,8.4676,8.4676,8.4842,8.4923,8.4923,8.5069,8.5133,8.5133,8.2218,8.1034,8.1687,8.1194,8.0901,8.0901,8.0827,8.0753,8.0753,8.0643,8.0569,8.0458,8.0458,8.0421,8.031,8.034,8.0303,8.0303,8.0355,8.037,0.0,8.037,0.0,0.0,0.0,0.0,0.0,0.0,0.0,0.0,7.956,7.9791,8.0102,8.0891,8.1549,8.185,8.222,8.2785,8.3486,8.3601,8.3601,8.3601,8.3601,8.3601,8.3601,8.3601,8.3601,8.3755,8.3755,8.3793,8.3978,8.3986,8.3901,8.3862,8.367,8.3447,8.3601,8.3717,8.3785,8.3939,8.3986,8.4024,8.3986,8.4063,8.3909,8.4024,8.3986,8.3947,8.3986,8.4024,8.4063,8.4063,8.414,8.4439,8.5324,8.547,8.5132,8.4332,8.4055,8.3909,7.8112,7.8839,7.9019,7.8568,7.7797,7.8469,7.2849,6.3291,6.3304,6.6383,7.1932,7.7368,8.0099,8.0755,8.0755,8.1489,8.27,8.272,8.3141,8.3948,8.4095,8.4325,8.4621,8.4768,8.4907,8.5,8.5,8.5,8.5,8.5032,8.5048,8.5048,8.508,8.5429,8.5999,0.0,0.0,0.0,8.4231,8.4173,8.4173,8.3545,8.3213,8.3176,8.2585,0.0,8.1307,8.1271,8.0975,8.0347,8.0393,0.0,0.0,0.0,0.0,0.0,0.0,0.0,0.0,0.0,0.0,0.0,8.2184,8.191,8.2111,8.2518,8.2629,8.234,8.2821,8.3154,8.3204,8.3292,8.3409,8.3563,8.3601,8.3601,8.3601,8.3601,8.3601,8.3601,8.3601,8.3901,8.4593,8.467,8.4939,8.5517,8.5632,8.5632,8.5632,8.4516,8.364,8.364,8.4324,8.4939,8.5517,8.5632,8.5632,8.5632,8.5632,8.5632,8.5632,8.5632,8.5632,8.5632,8.5632,8.5863,8.6478,8.6679,8.6824,8.7795,8.7902,8.7517,8.5978,8.5632,8.5632,7.9449,0.0,7.9816,7.8201,0.0,7.5616,7.0513,6.2585,6.776,7.2055,7.5726,7.9895,8.1964,8.2132,7.9017,7.8017,7.8627,7.5029,7.5544,7.9379,7.982,8.1981,8.5611,8.6017,8.6234,8.6278,8.6278,8.6278,8.6295,8.6396,8.6444,8.6444,8.654,8.6794,8.718,8.6888,8.6295,8.5349,8.5349,8.5349,8.5364,8.5224,8.5126,8.5141,0.0,0.0,0.0,0.0,0.0,0.0,0.0,0.0,0.0,0.0,0.0,8.3235,8.2884,8.2774,8.3085,8.3296,8.3606,8.4116,8.4727,8.4606,8.3332,8.3465,8.349,8.3281,8.3465,8.3785,8.417,8.4247,8.4401,8.4786,8.4824,8.4824,8.4863,8.5209,8.5448,8.5517,8.5871,8.6333,8.6709,8.6786,8.694,8.7325,8.7401,8.7363,8.7248,8.594,8.4986,8.5409,8.6209,8.6901,8.7286,8.7401,8.7363,8.7363,8.7363,8.7401,8.7401,8.7401,8.7401,8.7363,8.7401,8.7555,8.7902,8.8017,8.8171,8.8564,8.8679,8.8487,8.7517,8.7363,8.7401,8.011,8.022,8.022,7.7665,7.3479,7.3494,7.1341,6.8345,0.0,0.0,0.0,8.2812,8.3982,8.3576,7.8396,7.6115,7.5857,6.9985,7.0538,7.6448,7.7444,8.1145,8.6955,8.7953,8.8466,8.8483,8.8483,8.8483,8.8462,8.863,8.8731,8.8747,8.8875,8.8901,8.8753,8.8716,8.8035,8.6654,8.6213,8.6064,8.6147,8.6467,8.6656,8.6762,8.7057,8.721,8.721,8.721,8.721,8.721,8.721,8.721,8.7172,8.6516,8.6149,8.6099,8.5519,8.5174,8.5265,8.5623,8.5905,8.5973,8.6998,8.6679,8.4447,8.4409,8.4486,8.4524,8.4486,8.4824,8.5478,8.5593,8.5824,8.6478,8.6555,8.6555,8.6594,8.7171,8.7555,8.7709,8.8141,8.8679,8.8564,8.8564,8.8679,8.8679,8.8564,8.8679,8.8526,8.744,8.6786,8.7401,8.7948,8.8564,8.8679,8.8603,8.8679,8.8526,8.8603,8.8679,8.8679,8.8679,8.8679,8.8526,8.8679,8.8718,8.8872,8.8902,8.8987,8.9094,8.9141,8.9141,8.9141,8.9141,8.9026,8.1232,8.1872,8.1856,8.1879,8.1986,8.1934,8.2029,8.1785,7.7717,7.6029,7.6639,8.2369,8.488,8.4843,8.3936,8.3952,8.4506,8.3493,8.3988,8.5687,8.7218,8.8557,8.9798,9.128,9.2067,9.22,9.2179,9.2216,9.2216,9.2196,9.2249,9.2212,9.2282,9.1873,9.1242,9.1205,9.0969,9.0478,8.8689,8.7951,8.8326,8.7749,8.767,8.8039,8.7554,8.721,8.721,8.726,8.721,8.721,8.721,8.721,8.721,8.712,8.7021,8.7021,8.6907,8.7004,8.7434,8.7516,8.7743,8.8182,8.8423,8.8064,8.7017,8.7564,8.7987,8.7987,8.7833,8.8025,8.8179,8.8064,8.8055,8.8256,8.8295,8.8333,8.8256,8.841,8.8526,8.8526,8.8603,8.8756,8.8833,8.8795,8.8872,8.8756,8.8949,8.8756,8.8833,8.8526,8.8372,8.8487,8.8603,8.8679,8.8872,8.8718,8.8833,8.8679,8.8795,8.891,8.891,8.891,8.891,8.8756,8.891,8.9133,8.9663,8.9739,9.0124,9.071,9.0825,9.0864,9.0864,9.0864,9.0441,8.2566,8.3067,8.3488,8.3991,8.4468,8.491,8.5392,8.572,8.318,8.1523,8.1079,8.441,8.5905,8.5625,8.2778,8.1622,8.1808,7.8274,7.9014,8.3067,8.3972,8.6486,9.0221,9.1165,9.1548,9.165,9.165,9.165,9.165,9.165,9.165,9.165,9.165,9.1583,9.1477,9.1492,9.1594,9.1765,9.0483,9.0094,9.0646,9.0524,9.0602,9.0822,9.0731,9.0725,9.0725,9.0725,9.0534,9.0103,9.0064,8.9835,8.9414,8.8945,8.8677,8.8639,8.8257,8.8116,8.8336,8.8345,8.8418,8.8662,8.9094,8.9171,8.8778,8.8709,8.8679,8.8679,8.8679,8.8679,8.8679,8.8679,8.8679,8.8679,8.8679,8.8679,8.8756,8.9133,8.9325,8.9402,8.9748,9.0056,9.0056,9.0056,9.0056,9.0056,9.0056,9.0056,9.0056,9.0056,8.9863,8.9479,8.9748,9.0017,9.0056,9.0056,9.0056,9.0056,9.0056,9.0056,9.0056,9.0056,9.0056,9.0094,9.0402,9.0864,9.1287,9.1672,9.2095,9.2364,9.2556,9.2556,9.2556,9.2556,9.2095,8.3856,8.4055,8.4682,8.5111,8.5493,8.6354,8.6894,8.7265,8.7858,8.7444,8.6497,8.6958,8.7317,8.7037,8.3099,8.1248,8.0371,7.601,7.679,8.1634,8.2377,8.5595,9.0647,9.139,9.1613,9.1613,9.1613,9.1613,9.1613,9.1576,9.1576,9.1629,9.1737,9.1932,9.2108,9.2265,9.2509,9.2858,9.2465,9.2263,9.2349,9.2721,9.2939,9.3103,9.3476,9.3672,9.3672,9.3672,9.3403,9.2826,9.2787,9.2441,9.1787,9.1133,9.074,9.0701,9.0171,8.9834,8.9834,8.9834,8.9834,8.9834,9.0402,9.074,9.0701,9.021,8.9641,8.9334,8.9334,8.9334,8.9363,8.9517,8.9564,8.9564,8.9718,8.9988,8.9911,9.0402,9.074,9.0816,9.1364,9.1748,9.1748,9.1787,9.1748,9.1787,9.1748,9.1748,9.1748,9.1748,9.1441,9.1086,9.121,9.1402,9.1518,9.1672,9.1748,9.1748,9.1748,9.1748,9.1748,9.1748,9.1748,9.1825,9.2249,9.2595,9.2787,9.3172,9.348,9.3518,9.348,9.3595,9.3557,9.3787,9.3672,8.4862,8.4954,8.5117,8.562,8.6571,8.7529,8.8334,8.8997,8.9146,8.9501,8.9803,8.9331,8.9427,9.0148,9.0127,8.9644,8.9124,8.9459,8.9236,8.9347,9.1056,9.2133,9.2765,9.414,9.4957,9.4771,9.4697,9.4528,9.4544,9.4693,9.4862,9.5003,9.5426,9.5165,9.4735,9.5066,9.5237,9.51,9.5066,9.4303,9.2946,9.2875,9.3123,9.3617,9.3692,9.3672,9.3787,9.3672,9.3672,9.3595,9.3595,9.3557,9.3441,9.3326,9.3326,9.3287,9.321,9.3249,9.3172,9.321,9.3095,9.3258,9.3133,9.321,9.321,9.3172,9.2556,9.1364,9.0979,9.0979,9.1018,9.1633,9.1941,9.1941,9.2518,9.321,9.3018,9.3296,9.3373,9.3364,9.3172,9.3441,9.3287,9.3249,9.3326,9.321,9.3133,9.3172,9.3172,9.321,9.321,9.3056,9.2864,9.2441,9.2441,9.3018,9.3172,9.3287,9.3403,9.3287,9.3172,9.3249,9.345,9.3018,9.3441,9.3557,9.3595,9.3672,9.3826,9.4057,9.4018,9.3826,9.3826,9.4373,9.4489,8.5851,8.6032,8.6513,8.7275,8.8175,8.8663,8.9273,8.9979,9.0016,9.0462,9.113,9.087,9.0907,9.1242,9.1576,9.1762,9.1985,9.2319,9.2282,9.2022,9.2691,9.2988,9.3099,9.3619,9.3991,9.3991,9.3991,9.407,9.4228,9.4419,9.463,9.4827,9.5027,9.5202,9.5397,9.5635,9.5817,9.605,9.6021,9.5723,9.5137,9.4955,9.5003,9.5192,9.5211,9.5249,9.5211,9.5249,9.5018,9.4527,9.4489,9.4258,9.371,9.3672,9.3672,9.3672,9.3672,9.3672,9.3672,9.3672,9.3672,9.3672,9.3672,9.3672,9.3672,9.3672,9.3364,9.2864,9.2672,9.2672,9.271,9.3018,9.321,9.3249,9.3518,9.371,9.3672,9.371,9.3672,9.3672,9.3672,9.371,9.3672,9.3672,9.3672,9.3672,9.371,9.3796,9.3719,9.3672,9.3672,9.371,9.3796,9.3749,9.3403,9.3441,9.371,9.371,9.3672,9.3672,9.3787,9.371,9.3672,9.3749,9.4143,9.4459,9.4489,9.4941,9.5249,9.5181,9.5211,9.5249,9.5249,9.5518,9.5518,8.6825,8.7132,8.7874,8.8753,8.9607,8.9607,9.009,9.0796,9.0833,9.1279,9.2022,9.2059,9.2171,9.2356,9.2393,9.2653,9.3004,9.3309,9.3321,9.3151,9.3232,9.3243,9.3243,9.3243,9.3243,9.3243,9.3296,9.3411,9.3687,9.4015,9.4311,9.4514,9.468,9.5081,9.5657,9.5808,9.6095,9.6459,9.6492,9.6492,9.6467,9.6403,9.6361,9.6361,9.6343,9.6325,9.6325,9.6297,9.6019,9.5403,9.5335,9.5095,9.448,9.4403,9.4403,9.4403,9.4403,9.4403,9.4403,9.4403,9.4403,9.4403,9.4403,9.4403,9.4403,9.4403,9.4403,9.4403,9.4403,9.4287,9.371,9.3912,9.4066,9.4057,9.4249,9.4403,9.4441,9.4403,9.448,9.4403,9.4557,9.4421,9.4439,9.4534,9.4581,9.4608,9.4531,9.4483,9.4445,9.4531,9.4531,9.4483,9.5031,9.4966,9.4267,9.4403,9.4364,9.4403,9.4518,9.4557,9.4403,9.4441,9.443,9.4996,9.5218,9.536,9.5443,9.6003,9.6284,9.6331,9.6284,9.6245,9.6157,9.6331,9.6313,8.7852,8.8143,8.8886,8.9719,9.0424,9.0462,9.0907,9.165,9.165,9.2133,9.2802,9.2909,9.3339,9.395,9.3909,9.3673,9.3223,9.4074,9.4067,9.3464,9.3665,9.3866,9.3881,9.3881,9.3852,9.3792,9.3799,9.4024,9.4354,9.468,9.4839,9.4937,9.5386,9.5668,9.5808,9.6225,9.6467,9.6509,9.6509,9.6501,9.6501,9.6484,9.6514,9.6506,9.6437,9.6394,9.6385,9.6343,9.6249,9.6211,9.6182,9.6182,9.6134,9.6143,9.6066,9.6105,9.6143,9.6134,9.6066,9.6019,9.6057,9.6095,9.598,9.6095,9.5942,9.5903,9.5942,9.6134,9.5942,9.5403,9.4229,9.4575,9.4912,9.4989,9.5634,9.598,9.6095,9.5912,9.6134,9.6066,9.596,9.5929,9.6115,9.6278,9.612,9.6133,9.6274,9.6236,9.6103,9.6197,9.615,9.615,9.618,9.6078,9.5274,9.5333,9.5863,9.5863,9.5659,9.596,9.6134,9.622,9.6159,9.6089,9.6106,9.615,9.6373,9.6429,9.645,9.6442,9.6472,9.6442,9.6446,9.6459,9.6472,8.9098,8.9644,8.9942,9.0536,9.1242,9.1242,9.1762,9.2505,9.2505,9.2691,9.3,9.3179,9.3424,9.3701,9.3921,9.404,9.4106,9.4179,9.3995,9.3747,9.3829,9.3925,9.3925,9.3925,9.3925,9.3917,9.4114,9.4487,9.4987,9.5298,9.5585,9.5779,9.5973,9.6168,9.639,9.6598,9.6692,9.6692,9.6692,9.6692,9.6692,9.6692,9.67,9.6684,9.6556,9.6442,9.648,9.6446,9.6429,9.6429,9.6429,9.6429,9.6429,9.6429,9.6429,9.6429,9.6376,9.6388,9.6379,9.6325,9.6288,9.6288,9.6288,9.6288,9.6288,9.6288,9.6315,9.6361,9.6315,9.5949,9.573,9.5715,9.5826,9.5865,9.6095,9.6288,9.6297,9.6343,9.6379,9.6388,9.6394,9.6446,9.6463,9.648,9.6497,9.6484,9.6492,9.6501,9.6492,9.6492,9.6501,9.6492,9.6492,9.639,9.6116,9.6129,9.639,9.639,9.636,9.6322,9.6382,9.6411,9.6339,9.6309,9.648,9.6497,9.6517,9.6525,9.6525,9.6517,9.6517,9.6534,9.6492,9.6525,9.6501,9.0164,9.0833,9.087,9.1353,9.2096,9.2096,9.2431,9.2988,9.2988,9.3054,9.3146,9.3317,9.3473,9.3626,9.3925,9.4255,9.455,9.4232,9.407,9.407,9.417,9.4213,9.4175,9.4175,9.4259,9.4441,9.4806,9.5242,9.5626,9.5973,9.6225,9.6437,9.6454,9.6574,9.6761,9.6822,9.6822,9.6822,9.6822,9.6822,9.6822,9.6822,9.6822,9.6768,9.6676,9.6605,9.6572,9.6509,9.6492,9.6492,9.6492,9.6492,9.6492,9.6492,9.6492,9.6484,9.6472,9.6437,9.6437,9.6376,9.6379,9.6379,9.634,9.6379,9.6379,9.634,9.6376,9.6411,9.6385,9.6403,9.6472,9.642,9.6379,9.6379,9.6379,9.6379,9.634,9.6403,9.6437,9.6446,9.6442,9.6531,9.6572,9.6572,9.6589,9.6605,9.6574,9.6574,9.6574,9.6574,9.6613,9.6613,9.6629,9.6629,9.6497,9.6536,9.6539,9.6523,9.6514,9.6501,9.6509,9.6509,9.6517,9.6572,9.658,9.6589,9.6597,9.6605,9.6605,9.6566,9.6637,9.6668,9.6645,9.659,9.6574,9.0982,9.165,9.1725,9.2171,9.2802,9.2876,9.2967,9.3021,9.3021,9.3179,9.3411,9.342,9.3687,9.394,9.4241,9.439,9.4452,9.439,9.4404,9.4394,9.4623,9.4754,9.4742,9.4742,9.4945,9.5276,9.5924,9.6234,9.6269,9.6558,9.673,9.6761,9.6746,9.6753,9.6822,9.6822,9.6822,9.6822,9.6822,9.6822,9.6822,9.6822,9.6822,9.6822,9.6768,9.6738,9.6707,9.6589,9.6517,9.6509,9.6509,9.6492,9.6517,9.6517,9.6539,9.6517,9.6492,9.6492,9.6492,9.6523,9.6497,9.6459,9.6514,9.6459,9.6489,9.6459,9.6467,9.6484,9.6476,9.6484,9.6501,9.6492,9.6514,9.6484,9.6459,9.6459,9.6506,9.6484,9.6492,9.6501,9.6517,9.6542,9.6645,9.6707,9.6684,9.6738,9.6753,9.6753,9.6746,9.6738,9.6807,9.6807,9.6746,9.6723,9.6753,9.6768,9.6676,9.6597,9.6542,9.6542,9.6558,9.6566,9.6637,9.6653,9.6661,9.6676,9.67,9.6707,9.6723,9.6723,9.6746,9.6746,9.673,9.6707,9.6707,9.1836,9.2542,9.2579,9.2728,9.2988,9.2988,9.3119,9.3291,9.3269,9.3457,9.3762,9.3984,9.4142,9.4283,9.4543,9.4663,9.4676,9.4676,9.4676,9.4702,9.4767,9.492,9.5129,9.5139,9.5423,9.5915,9.6189,9.642,9.6614,9.6746,9.6822,9.6822,9.6822,9.6822,9.6822,9.6822,9.6822,9.6822,9.6822,9.6822,9.6822,9.6822,9.6822,9.6822,9.6822,9.6768,9.6784,9.6723,9.6707,9.67,9.6707,9.6707,9.6707,9.6707,9.6707,9.67,9.6653,9.6629,9.6621,9.6572,9.6501,9.6492,9.6492,9.6492,9.6492,9.6501,9.6564,9.6605,9.6572,9.6534,9.6668,9.6653,9.6605,9.6501,9.6492,9.6501,9.6517,9.6589,9.6645,9.67,9.6707,9.6723,9.6738,9.6746,9.6753,9.6776,9.6822,9.6822,9.6822,9.6822,9.6822,9.6822,9.6822,9.6822,9.679,9.6827,9.6788,9.6714,9.6669,9.6614,9.6661,9.6676,9.6707,9.6753,9.6761,9.6798,9.6812,9.6822,9.6822,9.679,9.679,9.6783,9.6783,9.6768,9.6753,9.2505,9.2988,9.2988,9.2988,9.3021,9.3082,9.3221,9.3426,9.3513,9.3755,9.4085,9.4307,9.4473,9.4557,9.4728,9.4895,9.497,9.4995,9.5069,9.5115,9.5032,9.5103,9.5349,9.5566,9.5846,9.6234,9.6429,9.659,9.6776,9.6822,9.6822,9.6822,9.6822,9.7015,9.7247,9.7286,9.7402,9.7673,9.775,9.775,9.775,9.7711,9.7711,9.775,9.775,9.775,9.7711,9.7441,9.7131,9.686,9.6822,9.6822,9.6822,9.6822,9.6822,9.6814,9.6746,9.6707,9.6707,9.6668,9.6629,9.6629,9.6629,9.6629,9.6629,9.6629,9.6661,9.6684,9.6668,9.6668,9.6753,9.6784,9.6684,9.6637,9.6637,9.6629,9.6598,9.6676,9.6723,9.6761,9.6776,9.6822,9.6822,9.6822,9.6822,9.6822,9.6822,9.6822,9.6822,9.6822,9.6822,9.6822,9.6822,9.679,9.6798,9.6824,9.6875,9.6834,9.6817,9.6744,9.6746,9.6753,9.6768,9.68,9.6841,9.6928,9.6953,9.6831,9.679,9.6805,9.6852,9.6798,9.6783,9.6822,9.6768,9.2988,9.2988,9.3021,9.3054,9.3086,9.3317,9.3488,9.3513,9.3807,9.4113,9.439,9.4489,9.4623,9.4806,9.492,9.5129,9.5292,9.5337,9.5446,9.5587,9.5501,9.5462,9.5561,9.5992,9.6287,9.6403,9.663,9.6761,9.6822,9.6822,9.686,9.6976,9.7054,9.7325,9.8021,9.8176,9.8485,9.8942,9.9135,9.9135,9.9135,9.9174,9.9174,9.9135,9.9096,9.9096,9.8942,9.8446,9.7711,9.6938,9.6822,9.6822,9.6822,9.6822,9.6822,9.6822,9.6822,9.6814,9.6814,9.6761,9.6799,9.6753,9.6761,9.6822,9.6761,9.6753,9.6753,9.6768,9.6761,9.6768,9.6822,9.6814,9.6768,9.6814,9.6753,9.6753,9.6776,9.6776,9.6776,9.6814,9.6822,9.6822,9.6822,9.6822,9.6822,9.6822,9.6822,9.6822,9.6822,9.6822,9.6822,9.6822,9.6822,9.6831,9.6828,9.6889,9.6945,9.7038,9.6986,9.6965,9.6922,9.6915,9.6928,9.6971,9.6963,9.7065,9.7092,9.6995,9.6947,9.6998,9.6983,9.6859,9.6845,9.6902,9.6922,9.2988,9.3021,9.3227,9.3285,9.3332,9.3604,9.3925,9.4113,9.4236,9.4407,9.4689,9.497,9.5067,9.5186,9.539,9.5587,9.564,9.5661,9.5682,9.5805,9.5973,9.604,9.6115,9.6437,9.6638,9.6692,9.6746,9.6822,9.6822,9.6822,9.7131,9.775,9.7711,9.8137,9.8864,9.8988,9.9058,9.9251,9.9328,9.9367,9.9367,9.9406,9.929,9.929,9.9367,9.9367,9.9328,9.9096,9.8253,9.6938,9.6822,9.6822,9.686,9.6822,9.6822,9.6822,9.6822,9.6822,9.6822,9.6822,9.6822,9.6822,9.6822,9.6822,9.6822,9.6822,9.6822,9.6822,9.6822,9.6822,9.6822,9.6822,9.6822,9.6822,9.6822,9.6822,9.6822,9.6822,9.6822,9.6822,9.6822,9.6822,9.6822,9.6822,9.6822,9.6822,9.6822,9.6822,9.6822,9.6822,9.6783,9.679,9.682,9.6869,9.6889,9.6942,9.7053,9.7199,9.7221,9.7217,9.7172,9.7154,9.7177,9.7217,9.7154,9.7195,9.7234,9.7204,9.7191,9.7169,9.7163,9.7103,9.7125,9.7181,9.7158,9.2988,9.3021,9.3285,9.3373,9.3436,9.3911,9.4213,9.4404,9.454,9.4636,9.487,9.5139,9.5315,9.5349,9.563,9.5865,9.5973,9.6021,9.6097,9.6243,9.642,9.6479,9.6566,9.6738,9.6822,9.6822,9.6822,9.6822,9.6822,9.6822,9.7286,9.7905,9.8098,9.8678,9.98,9.9839,10.0032,10.0342,10.038,10.038,10.038,10.038,10.0419,10.0419,10.038,10.0264,9.9955,9.9839,9.922,9.8098,9.7557,9.7363,9.7286,9.6976,9.6822,9.6822,9.6822,9.6822,9.6822,9.6822,9.6822,9.6822,9.6822,9.6822,9.6822,9.6822,9.6822,9.6822,9.6822,9.6822,9.6822,9.6822,9.6822,9.6822,9.6822,9.6822,9.6822,9.6822,9.6822,9.6822,9.6822,9.6822,9.6822,9.6822,9.6822,9.6822,9.6822,9.6822,9.6822,9.679,9.6841,9.6859,9.6915,9.6975,9.7071,9.7169,9.7193,9.7328,9.7419,9.7416,9.7363,9.735,9.736,9.7357,9.7327,9.7333,9.7388,9.7397,9.734,9.7288,9.7327,9.7319,9.7327,9.7367,9.7357,9.3021,9.3033,9.3332,9.3451,9.3604,9.4156,9.4421,9.4476,9.4676,9.478,9.487,9.5186,9.5417,9.5394,9.5826,9.6097,9.636,9.636,9.6487,9.6638,9.6753,9.6746,9.6746,9.6761,9.6822,9.6822,9.6822,9.6822,9.686,9.6899,9.7441,9.8214,9.8408,9.9259,10.0458,10.0729,10.1162,10.158,10.1618,10.158,10.158,10.158,10.1541,10.1541,10.158,10.1309,10.0883,10.0698,10.0342,9.9599,9.8717,9.8253,9.8098,9.7402,9.7015,9.6938,9.6938,9.6822,9.6822,9.6822,9.6822,9.6822,9.6822,9.6822,9.6822,9.6822,9.6822,9.6822,9.6822,9.6822,9.6822,9.6822,9.6822,9.6822,9.6822,9.6822,9.6822,9.6822,9.6822,9.6822,9.6822,9.6822,9.6822,9.6822,9.6822,9.6822,9.6822,9.6822,9.6834,9.6859,9.6876,9.6957,9.7021,9.7096,9.7251,9.7372,9.7409,9.7487,9.7556,9.7556,9.7457,9.7441,9.7451,9.7451,9.7459,9.7529,9.7599,9.7547,9.7461,9.7446,9.7466,9.7421,9.734,9.7436,9.7451,9.3151,9.3332,9.3672,9.3954,9.4213,9.4557,9.4715,9.4728,9.478,9.4832,9.4945,9.5412,9.5672,9.5713,9.6243,9.6622,9.6638,9.6684,9.6746,9.6761,9.6822,9.6822,9.6822,9.6822,9.6822,9.6822,9.6822,9.6822,9.6899,9.7479,9.8214,9.8949,9.9607,10.0582,10.1386,10.1502,10.1657,10.1889,10.1889,10.1889,10.1889,10.1889,10.1889,10.1889,10.1889,10.1812,10.1696,10.1618,10.1502,10.1038,9.9994,9.9143,9.8911,9.8292,9.7827,9.7595,9.7131,9.686,9.6822,9.6822,9.6822,9.6822,9.6822,9.6822,9.6822,9.6822,9.6822,9.6822,9.6822,9.6822,9.6822,9.6822,9.6822,9.6822,9.6822,9.6822,9.6822,9.6822,9.6822,9.6822,9.6822,9.6822,9.6822,9.6822,9.6822,9.6822,9.6798,9.679,9.6845,9.6928,9.6982,9.7086,9.7174,9.7266,9.738,9.7487,9.7544,9.7578,9.7656,9.7695,9.7578,9.7578,9.7578,9.7617,9.7651,9.7695,9.7695,9.7695,9.7578,9.7617,9.7617,9.7578,9.7539,9.7578,9.7578,9.3253,9.3457,9.394,9.4227,9.4435,9.4845,9.5044,9.5081,9.521,9.5268,9.5394,9.5815,9.6002,9.6087,9.6558,9.6814,9.6822,9.6822,9.6822,9.6822,9.6822,9.6822,9.6822,9.6822,9.6822,9.6822,9.6822,9.6822,9.7015,9.7673,9.8446,9.929,10.0187,10.0968,10.1773,10.1889,10.185,10.1889,10.1889,10.1889,10.1889,10.1889,10.1889,10.1889,10.1889,10.1889,10.1889,10.1889,10.1889,10.1657,10.0999,10.0303,9.9839,9.9143,9.8562,9.806,9.775,9.717,9.6976,9.6822,9.6822,9.6822,9.6822,9.6822,9.6822,9.6822,9.6822,9.6822,9.6822,9.6822,9.6822,9.6822,9.6822,9.6822,9.6822,9.6822,9.6822,9.6822,9.6822,9.6822,9.6822,9.6822,9.6822,9.6822,9.6798,9.6805,9.6896,9.6909,9.6989,9.7027,9.7174,9.7277,9.7331,9.7436,9.7542,9.7605,9.7609,9.7656,9.7656,9.7695,9.7656,9.7656,9.7656,9.7695,9.7695,9.7695,9.7695,9.7695,9.7695,9.7656,9.7656,9.7695,9.7695,9.7656,9.7617,9.3404,9.355,9.4128,9.4459,9.4623,9.5067,9.5337,9.5401,9.5661,9.5703,9.5846,9.6152,9.6234,9.6369,9.6622,9.6776,9.6822,9.6822,9.6822,9.6822,9.6822,9.6822,9.6822,9.6822,9.6822,9.6822,9.6822,9.6822,9.7015,9.7673,9.8524,9.9328,10.0187,10.1038,10.1696,10.1889,10.1889,10.1889,10.1889,10.1889,10.1889,10.1889,10.1889,10.1889,10.1889,10.1889,10.1889,10.1889,10.1889,10.1889,10.1889,10.1502,10.0845,9.9994,9.9251,9.8524,9.8292,9.7711,9.7209,9.6938,9.6822,9.6822,9.6822,9.6822,9.6822,9.6822,9.6822,9.6822,9.6822,9.6822,9.6822,9.6822,9.6822,9.6822,9.6822,9.6822,9.6822,9.6822,9.6822,9.6822,9.6822,9.6822,9.6822,9.6822,9.6812,9.6845,9.6939,9.7009,9.7115,9.7178,9.7318,9.7434,9.7468,9.7531,9.7608,9.7656,9.7656,9.7656,9.7695,9.7695,9.7695,9.7695,9.7695,9.7695,9.7695,9.7695,9.7695,9.7695,9.7695,9.7695,9.7695,9.7695,9.7695,9.7695,9.7695,9.3543,9.3866,9.4265,9.4664,9.5127,9.528,9.5468,9.5693,9.5795,9.5795,9.5865,9.6152,9.6304,9.6403,9.6676,9.6776,9.6822,9.6822,9.6822,9.6822,9.6822,9.6822,9.6822,9.6822,9.6822,9.6822,9.6822,9.6822,9.7015,9.7673,9.8516,9.9336,10.0187,10.1038,10.1657,10.1889,10.1889,10.1889,10.1889,10.1889,10.1889,10.1889,10.1889,10.1889,10.1889,10.1889,10.1889,10.1889,10.1889,10.1889,10.1889,10.1812,10.1502,10.0806,10.0303,9.98,9.8833,9.8098,9.775,9.7131,9.6899,9.6822,9.6822,9.6822,9.6822,9.6822,9.6822,9.6822,9.6822,9.6822,9.6822,9.6822,9.6822,9.6822,9.6822,9.6822,9.6822,9.6812,9.6827,9.6849,9.6827,9.6827,9.6838,9.6869,9.6928,9.698,9.7085,9.7165,9.7236,9.7328,9.7457,9.7537,9.76,9.765,9.7695,9.7695,9.7695,9.7695,9.7695,9.7695,9.7695,9.7695,9.7695,9.7695,9.7695,9.7695,9.7695,9.7695,9.7695,9.7695,9.7695,9.7695,9.7695,9.7695,9.7695,9.3937,9.4441,9.473,9.5139,9.5533,9.5744,9.5895,9.6087,9.6225,9.6334,9.6369,9.647,9.6566,9.6598,9.6715,9.6822,9.6822,9.6822,9.6822,9.6822,9.6822,9.6822,9.6822,9.6822,9.6822,9.6822,9.6822,9.6822,9.6899,9.7673,9.8477,9.9336,10.0187,10.1046,10.1703,10.1889,10.1889,10.1889,10.1889,10.1889,10.1889,10.1889,10.1889,10.1889,10.1889,10.1889,10.1889,10.1889,10.1889,10.1889,10.1889,10.1889,10.1773,10.151,10.1084,10.0504,9.9413,9.8485,9.806,9.7325,9.6822,9.6822,9.6822,9.6822,9.6822,9.6822,9.6822,9.6822,9.6822,9.6822,9.6822,9.6822,9.6822,9.6822,9.679,9.6798,9.6827,9.6862,9.6909,9.6896,9.694,9.6926,9.6959,9.7004,9.7069,9.7124,9.7207,9.7291,9.74,9.7468,9.7578,9.7617,9.7656,9.7656,9.7695,9.7695,9.7695,9.7695,9.7695,9.7695,9.7695,9.7695,9.7695,9.7695,9.7695,9.7695,9.7695,9.7695,9.7695,9.7695,9.7695,9.7695,9.7695,9.7695,9.7695,9.4414,9.4945,9.5242,9.5587,9.5895,9.618,9.6343,9.6437,9.6684,9.6753,9.6822,9.6814,9.6768,9.6783,9.6776,9.6822,9.6822,9.6822,9.6822,9.6822,9.6822,9.6822,9.6822,9.6822,9.6822,9.6822,9.6822,9.6822,9.6899,9.7402,9.8207,9.8988,9.9878,10.0767,10.1386,10.1773,10.1812,10.1889,10.1889,10.1889,10.1889,10.1889,10.1889,10.1889,10.1889,10.1889,10.1889,10.1889,10.1889,10.1889,10.1889,10.1889,10.1889,10.1889,10.158,10.0852,9.9916,9.9027,9.8369,9.7325,9.6822,9.6822,9.6822,9.6822,9.6822,9.6822,9.6822,9.6822,9.6822,9.6822,9.6822,9.6822,9.6827,9.6859,9.6866,9.6848,9.694,9.7009,9.7059,9.708,9.7061,9.7076,9.7125,9.713,9.7217,9.7284,9.7349,9.7409,9.7531,9.7599,9.7656,9.7656,9.7695,9.7695,9.7695,9.7695,9.7695,9.7695,9.7695,9.7695,9.7695,9.7695,9.7695,9.7695,9.7695,9.7695,9.7695,9.7695,9.7695,9.7695,9.7695,9.7695,9.7695,9.7695,9.7695,9.4845,9.4969,9.5511,9.5915,9.6216,9.6278,9.647,9.6723,9.6768,9.6822,9.6822,9.6822,9.6822,9.6822,9.6822,9.6822,9.6822,9.6822,9.6822,9.6822,9.6822,9.6822,9.6822,9.6822,9.6822,9.6822,9.6822,9.6822,9.686,9.6976,9.7479,9.8369,9.9104,9.9916,10.0883,10.1433,10.1889,10.1889,10.1889,10.1889,10.1889,10.1889,10.1889,10.1889,10.1889,10.1889,10.1889,10.1889,10.1889,10.1889,10.1889,10.1889,10.1889,10.1889,10.1889,10.1309,10.038,9.9251,9.8864,9.7673,9.6822,9.6822,9.6822,9.6822,9.6822,9.6822,9.6822,9.6822,9.6822,9.6822,9.6783,9.6798,9.6887,9.694,9.698,9.7059,9.7172,9.716,9.7224,9.728,9.7305,9.7294,9.7291,9.7327,9.734,9.7424,9.75,9.7578,9.7617,9.7656,9.7695,9.7695,9.7695,9.7695,9.7695,9.7695,9.7695,9.7695,9.7695,9.7695,9.7695,9.7695,9.7695,9.7695,9.7695,9.7695,9.7695,9.7695,9.7695,9.7695,9.7695,9.7695,9.7695,9.7695,9.7695,9.523,9.5457,9.5885,9.6261,9.6574,9.659,9.6684,9.6768,9.6822,9.6822,9.6822,9.6822,9.6822,9.6822,9.6822,9.6822,9.6822,9.6822,9.6822,9.6822,9.6822,9.6822,9.6822,9.6822,9.6822,9.6822,9.6822,9.6822,9.6822,9.6899,9.7247,9.8021,9.8524,9.9375,10.0349,10.093,10.1433,10.1734,10.1889,10.1889,10.1889,10.1889,10.1889,10.1889,10.1889,10.1889,10.1889,10.1889,10.1889,10.1889,10.1889,10.1889,10.1889,10.1889,10.1889,10.1734,10.0264,9.9367,9.9096,9.7673,9.7015,9.6822,9.6822,9.6822,9.6822,9.6822,9.6822,9.6822,9.6822,9.6798,9.6817,9.6869,9.6953,9.6999,9.71,9.7191,9.7327,9.7394,9.7427,9.7462,9.75,9.75,9.7461,9.75,9.75,9.7539,9.7578,9.7617,9.7656,9.7656,9.7695,9.7695,9.7695,9.7695,9.7695,9.7695,9.7695,9.7695,9.7695,9.7695,9.7695,9.7695,9.7695,9.7695,9.7695,9.7695,9.7695,9.7695,9.7695,9.7695,9.7695,9.7695,9.7695,9.7695,9.7695,9.5435,9.5703,9.6125,9.6517,9.6814,9.6822,9.6822,9.6822,9.6822,9.6822,9.6822,9.6822,9.6822,9.6822,9.6822,9.6822,9.6822,9.6822,9.6822,9.6822,9.6822,9.6822,9.6822,9.6822,9.6822,9.6822,9.6822,9.6822,9.6822,9.686,9.7131,9.7789,9.806,9.8717,9.9684,10.0504,10.1084,10.185,10.1889,10.1889,10.1889,10.1889,10.1889,10.1889,10.1889,10.1889,10.1889,10.1889,10.1889,10.1889,10.1889,10.1889,10.1889,10.1889,10.1696,10.1309,10.0032,9.9181,9.864,9.7673,9.6976,9.6822,9.6822,9.6822,9.6822,9.6822,9.6817,9.6841,9.6855,9.6882,9.6915,9.7049,9.7125,9.7182,9.7266,9.7354,9.7422,9.7461,9.7539,9.7555,9.7617,9.7656,9.7656,9.7656,9.7656,9.7695,9.7695,9.7695,9.7695,9.7695,9.7695,9.7695,9.7695,9.7695,9.7695,9.7695,9.7695,9.7695,9.7695,9.7695,9.7695,9.7695,9.7695,9.7695,9.7695,9.7695,9.7695,9.7695,9.7695,9.7695,9.7695,9.7695,9.7695,9.7695,9.7695,9.5326,9.5367,9.604,9.6462,9.6768,9.6822,9.6822,9.6822,9.6822,9.6822,9.6822,9.6822,9.6822,9.6822,9.6822,9.6822,9.6822,9.6822,9.6822,9.6822,9.6822,9.6822,9.6822,9.6822,9.6822,9.6822,9.6822,9.6822,9.6822,9.6822,9.686,9.6976,9.7595,9.8021,9.8872,9.9955,10.0891,10.1618,10.1812,10.1889,10.1889,10.1889,10.1889,10.1889,10.1889,10.1889,10.1889,10.1889,10.1889,10.1889,10.1889,10.1889,10.1889,10.1734,10.1425,10.0806,9.9762,9.8926,9.8274,9.7509,9.6938,9.6822,9.6822,9.6805,9.6824,9.6812,9.6834,9.698,9.7015,9.7064,9.7172,9.729,9.7294,9.7349,9.7436,9.7481,9.7539,9.7578,9.7656,9.7695,9.7695,9.7695,9.7695,9.7695,9.7695,9.7695,9.7695,9.7695,9.7695,9.7695,9.7695,9.7695,9.7695,9.7695,9.7695,9.7695,9.7695,9.7695,9.7695,9.7695,9.7695,9.7695,9.7695,9.7695,9.7695,9.7695,9.7695,9.7695,9.7695,9.7695,9.7695,9.7695,9.7695,9.7695,9.7695,9.5233,9.5619,9.5875,9.618,9.6495,9.6723,9.6822,9.6822,9.6822,9.6822,9.6822,9.6822,9.6822,9.6822,9.6822,9.6822,9.6822,9.6822,9.6822,9.6822,9.6822,9.6822,9.6822,9.6822,9.6822,9.6822,9.6822,9.6822,9.6822,9.6822,9.6822,9.6976,9.7247,9.7634,9.8408,9.9529,10.0582,10.1115,10.158,10.1889,10.1889,10.1889,10.1889,10.1889,10.1889,10.1889,10.1889,10.1889,10.1889,10.1889,10.1889,10.185,10.1734,10.1425,10.0937,10.0411,9.9328,9.8563,9.8156,9.7384,9.6822,9.6822,9.679,9.6831,9.6915,9.6934,9.7032,9.7125,9.7165,9.7224,9.7282,9.7379,9.7444,9.7522,9.7578,9.7656,9.7656,9.7695,9.7695,9.7695,9.7695,9.7695,9.7695,9.7695,9.7695,9.7695,9.7695,9.7695,9.7695,9.7695,9.7695,9.7695,9.7695,9.7695,9.7695,9.7695,9.7695,9.7695,9.7695,9.7695,9.7695,9.7695,9.7695,9.7695,9.7695,9.7695,9.7695,9.7695,9.7695,9.7695,9.7695,9.7695,9.7695,9.7695,9.7695,9.4294,9.4902,9.4988,9.5607,9.6407,9.6715,9.6822,9.6822,9.6822,9.6822,9.6822,9.6822,9.6822,9.6822,9.6822,9.6822,9.6822,9.6822,9.6822,9.6822,9.6822,9.6822,9.6822,9.6822,9.6822,9.6822,9.6822,9.6822,9.6822,9.6822,9.6822,9.6822,9.6822,9.7247,9.7789,9.9027,9.9955,10.038,10.0999,10.151,10.1502,10.1773,10.1889,10.1889,10.1889,10.1889,10.1889,10.1889,10.1889,10.1889,10.185,10.1734,10.1386,10.0937,10.0434,9.9711,9.8961,9.8175,9.7837,9.7487,9.6973,9.6995,9.6983,9.7027,9.7059,9.711,9.716,9.7344,9.737,9.7379,9.74,9.7527,9.7549,9.7617,9.7617,9.7695,9.7695,9.7695,9.7695,9.7695,9.7695,9.7695,9.7695,9.7695,9.7695,9.7695,9.7695,9.7695,9.7695,9.7695,9.7695,9.7695,9.7695,9.7695,9.7695,9.7695,9.7695,9.7695,9.7695,9.7695,9.7695,9.7695,9.7695,9.7695,9.7695,9.7695,9.7695,9.7695,9.7695,9.7695,9.7695,9.7695,9.7695,9.7695,9.7695,9.2392,9.2885,9.3287,9.4717,9.646,9.6737,9.6667,9.6512,9.6551,9.6628,9.6628,9.6667,9.6744,9.6783,9.6822,9.6822,9.6822,9.6822,9.6822,9.6822,9.6822,9.6822,9.6822,9.6822,9.6822,9.6822,9.6822,9.6822,9.6822,9.6822,9.6822,9.6822,9.6822,9.686,9.6938,9.7711,9.8562,9.9336,10.0187,10.0535,10.0775,10.1309,10.1618,10.1696,10.185,10.1889,10.1889,10.1889,10.185,10.1657,10.1726,10.1392,10.0696,10.0461,9.979,9.8679,9.8425,9.7961,9.7426,9.7321,9.7275,9.7221,9.7163,9.7234,9.7278,9.7309,9.7321,9.7503,9.7478,9.7546,9.7608,9.7695,9.7656,9.7656,9.7695,9.7695,9.7695,9.7695,9.7695,9.7695,9.7695,9.7695,9.7695,9.7695,9.7695,9.7695,9.7695,9.7695,9.7695,9.7695,9.7695,9.7695,9.7695,9.7695,9.7695,9.7695,9.7695,9.7695,9.7695,9.7695,9.7695,9.7695,9.7695,9.7695,9.7695,9.7695,9.7695,9.7695,9.7695,9.7695,9.7695,9.7695,9.7695,9.7695,9.7695,9.2364,9.3141,9.3253,9.3995,9.5013,9.5088,9.5081,9.505,9.5127,9.539,9.5855,9.5932,9.6319,9.6628,9.6706,9.6706,9.6744,9.6822,9.6822,9.6822,9.6822,9.6822,9.6822,9.6822,9.6822,9.6822,9.6822,9.6822,9.6822,9.6822,9.6822,9.6822,9.6822,9.6822,9.7054,9.7595,9.8292,9.8601,9.9259,9.9762,9.9839,10.0535,10.1038,10.1046,10.151,10.1727,10.1742,10.1711,10.1509,10.119,10.1152,10.0787,10.0011,9.9677,9.9021,9.8328,9.8112,9.7605,9.7463,9.7466,9.7459,9.7391,9.7333,9.7373,9.7416,9.7432,9.7485,9.7578,9.7617,9.7656,9.7695,9.7695,9.7695,9.7695,9.7695,9.7695,9.7695,9.7695,9.7695,9.7695,9.7695,9.7695,9.7695,9.7695,9.7695,9.7695,9.7695,9.7695,9.7695,9.7695,9.7695,9.7695,9.7695,9.7695,9.7695,9.7695,9.7695,9.7695,9.7695,9.7695,9.7695,9.7695,9.7695,9.7695,9.7695,9.7695,9.7695,9.7695,9.7695,9.7695,9.7695,9.7695,9.7695,9.7695,9.7695,9.1601,9.2391,9.2459,9.2763,9.3381,9.3966,9.4191,9.4191,9.4237,9.4547,9.4965,9.5042,9.5313,9.5739,9.5893,9.6203,9.628,9.6319,9.6706,9.6744,9.6822,9.6822,9.6822,9.6783,9.6822,9.6822,9.6822,9.6822,9.6822,9.6822,9.6822,9.6822,9.6822,9.6822,9.6976,9.7325,9.7595,9.7866,9.8408,9.8864,9.9104,9.9607,10.0148,10.0302,10.0626,10.1014,10.1074,10.1077,10.0942,10.0528,10.0307,10.0105,9.9337,9.8813,9.8375,9.8055,9.7819,9.7507,9.7555,9.7608,9.7557,9.7472,9.7461,9.7468,9.7544,9.7551,9.7604,9.7656,9.7695,9.7695,9.7695,9.7695,9.7695,9.7695,9.7695,9.7695,9.7695,9.7695,9.7695,9.7695,9.7695,9.7695,9.7695,9.7695,9.7695,9.7695,9.7695,9.7695,9.7695,9.7695,9.7695,9.7695,9.7695,9.7695,9.7695,9.7695,9.7695,9.7695,9.7695,9.7695,9.7695,9.7695,9.7695,9.7695,9.7695,9.7695,9.7695,9.7695,9.7695,9.7695,9.7695,9.7695,9.7695,9.7695,9.7695,8.9956,9.0752,9.081,9.1224,9.1944,9.3347,9.4005,9.4075,9.4037,9.4082,9.416,9.416,9.4346,9.4307,9.4315,9.4779,9.532,9.5429,9.5855,9.6396,9.6435,9.6551,9.6667,9.6744,9.6783,9.6822,9.6822,9.6822,9.6822,9.6822,9.6822,9.6822,9.6822,9.6822,9.686,9.6938,9.7015,9.7286,9.7634,9.8019,9.8225,9.8869,9.9275,9.9506,9.9778,9.9979,10.0035,10.0037,9.9929,9.9778,9.9733,9.9203,9.8786,9.8478,9.8063,9.7788,9.7685,9.7656,9.7656,9.7695,9.7695,9.7617,9.7656,9.7695,9.7695,9.7656,9.7656,9.7695,9.7695,9.7695,9.7695,9.7695,9.7695,9.7695,9.7695,9.7695,9.7695,9.7695,9.7695,9.7695,9.7695,9.7695,9.7695,9.7695,9.7695,9.7695,9.7695,9.7695,9.7695,9.7695,9.7695,9.7695,9.7695,9.7695,9.7695,9.7695,9.7695,9.7695,9.7695,9.7695,9.7695,9.7695,9.7695,9.7695,9.7695,9.7695,9.7695,9.7695,9.7695,9.7695,9.7695,9.7695,9.7695,9.7695,9.7695,8.9775,9.0791,9.081,9.1147,9.1719,9.2218,9.2412,9.2412,9.2451,9.2721,9.334,9.334,9.3572,9.416,9.4237,9.4353,9.4469,9.4585,9.4663,9.5088,9.57,9.5816,9.6087,9.6396,9.6667,9.6783,9.6783,9.6822,9.6822,9.6822,9.6822,9.6822,9.6822,9.6822,9.6822,9.6822,9.6822,9.686,9.717,9.7285,9.7561,9.8175,9.8495,9.8785,9.9259,9.9432,9.9544,9.9616,9.9463,9.8992,9.9035,9.8641,9.7907,9.7882,9.7725,9.7727,9.7695,9.7695,9.7695,9.7695,9.7695,9.7695,9.7695,9.7695,9.7695,9.7695,9.7695,9.7695,9.7695,9.7695,9.7695,9.7695,9.7695,9.7695,9.7695,9.7695,9.7695,9.7695,9.7695,9.7695,9.7695,9.7695,9.7695,9.7695,9.7695,9.7695,9.7695,9.7695,9.7695,9.7695,9.7695,9.7695,9.7695,9.7695,9.7695,9.7695,9.7695,9.7695,9.7695,9.7695,9.7695,9.7695,9.7695,9.7695,9.7695,9.7695,9.7695,9.7695,9.7695,9.7695,9.7695,9.7695,9.7695,9.7695,9.7695,8.9702,9.0572,9.0623,9.0931,9.147,9.1641,9.1716,9.1716,9.1716,9.2025,9.2443,9.2489,9.276,9.307,9.3147,9.334,9.3727,9.3766,9.3959,9.4508,9.4733,9.4888,9.5274,9.5816,9.6125,9.6358,9.6628,9.6822,9.6822,9.6822,9.6822,9.6822,9.6822,9.6822,9.6822,9.6822,9.6822,9.6822,9.6866,9.6895,9.719,9.7565,9.7767,9.8143,9.8744,9.8897,9.8984,9.9002,9.8672,9.8242,9.8327,9.8178,9.7635,9.7692,9.7695,9.7695,9.7695,9.7695,9.7695,9.7695,9.7695,9.7695,9.7695,9.7695,9.7695,9.7695,9.7695,9.7695,9.7695,9.7695,9.7695,9.7695,9.7695,9.7695,9.7695,9.7695,9.7695,9.7695,9.7695,9.7695,9.7695,9.7695,9.7695,9.7695,9.7695,9.7695,9.7695,9.7695,9.7695,9.7695,9.7695,9.7695,9.7695,9.7695,9.7695,9.7695,9.7695,9.7695,9.7695,9.7695,9.7695,9.7695,9.7695,9.7695,9.7695,9.7695,9.7695,9.7695,9.7695,9.7695,9.7695,9.7695,9.7695,9.7695,9.7695,8.9715,9.034,9.0334,9.0752,9.1193,9.1576,9.1716,9.1716,9.1716,9.1716,9.1754,9.1754,9.1832,9.2102,9.2102,9.2373,9.2721,9.2915,9.3147,9.3998,9.4037,9.4114,9.4346,9.4926,9.5313,9.57,9.6087,9.6551,9.6783,9.6822,9.6822,9.6822,9.6822,9.6822,9.6822,9.6822,9.682,9.6873,9.6855,9.6915,9.7016,9.7129,9.7119,9.7389,9.7597,9.7685,9.7659,9.7695,9.7695,9.7695,9.7734,9.7734,9.7695,9.7695,9.7695,9.7695,9.7695,9.7695,9.7695,9.7695,9.7695,9.7695,9.7695,9.7695,9.7695,9.7695,9.7695,9.7695,9.7695,9.7695,9.7695,9.7695,9.7695,9.7695,9.7695,9.7695,9.7695,9.7695,9.7695,9.7695,9.7695,9.7695,9.7695,9.7695,9.7695,9.7695,9.7695,9.7695,9.7695,9.7695,9.7695,9.7695,9.7695,9.7695,9.7695,9.7695,9.7695,9.7695,9.7695,9.7695,9.7695,9.7695,9.7695,9.7695,9.7695,9.7695,9.7695,9.7695,9.7695,9.7695,9.7695,9.7695,9.7695,9.7695,9.7695,8.9566,9.0323,9.08,9.1082,9.1218,9.1576,9.1716,9.1716,9.1716,9.1716,9.1716,9.1716,9.1716,9.1716,9.1716,9.1948,9.2025,9.2218,9.2141,9.2605,9.2992,9.3263,9.3418,9.4114,9.4469,9.4817,9.5352,9.6125,9.6551,9.6706,9.6783,9.6822,9.6822,9.6822,9.679,9.6798,9.6866,9.6928,9.7009,9.7064,9.7221,9.7337,9.7459,9.7539,9.7656,9.7617,9.7656,9.7656,9.7695,9.7695,9.7695,9.7695,9.7695,9.7695,9.7695,9.7695,9.7695,9.7695,9.7695,9.7695,9.7695,9.7695,9.7695,9.7695,9.7695,9.7695,9.7695,9.7695,9.7695,9.7695,9.7695,9.7695,9.7695,9.7695,9.7695,9.7695,9.7695,9.7695,9.7695,9.7695,9.7695,9.7695,9.7695,9.7695,9.7695,9.7695,9.7695,9.7695,9.7695,9.7695,9.7695,9.7695,9.7695,9.7695,9.7695,9.7695,9.7695,9.7695,9.7695,9.7695,9.7695,9.7695,9.7695,9.7695,9.7695,9.7695,9.7695,9.7695,9.7695,9.7695,9.7695,9.7695,9.7695,9.7695,9.7695,8.9359,8.9953,9.0723,9.1012,9.1082,9.1492,9.1716,9.1716,9.1716,9.1716,9.1716,9.1716,9.1716,9.1716,9.1716,9.1716,9.1716,9.1716,9.1832,9.1986,9.2141,9.2335,9.276,9.3263,9.3534,9.3882,9.4539,9.5313,9.6087,9.6241,9.6241,9.6667,9.6783,9.679,9.6812,9.6866,9.6928,9.6999,9.7129,9.727,9.7394,9.7464,9.7593,9.7656,9.7695,9.7695,9.7695,9.7695,9.7695,9.7695,9.7695,9.7695,9.7695,9.7695,9.7695,9.7695,9.7695,9.7695,9.7695,9.7695,9.7695,9.7695,9.7695,9.7695,9.7695,9.7695,9.7695,9.7695,9.7695,9.7695,9.7695,9.7695,9.7695,9.7695,9.7695,9.7695,9.7695,9.7695,9.7695,9.7695,9.7695,9.7695,9.7695,9.7695,9.7695,9.7695,9.7695,9.7695,9.7695,9.7695,9.7695,9.7695,9.7695,9.7695,9.7695,9.7695,9.7695,9.7695,9.7695,9.7695,9.7695,9.7695,9.7695,9.7695,9.7695,9.7695,9.7695,9.7695,9.7695,9.7695,9.7695,9.7695,9.7695,9.7695,9.7695,8.9129,8.9515,9.0419,9.081,9.0905,9.1439,9.1716,9.1716,9.1716,9.1716,9.1716,9.1716,9.1716,9.1716,9.1716,9.1716,9.1716,9.1716,9.1716,9.1716,9.1754,9.1909,9.2141,9.2451,9.2837,9.3224,9.3804,9.4539,9.5313,9.5398,9.57,9.6435,9.6674,9.6689,9.6834,9.6947,9.7032,9.7169,9.7311,9.7462,9.7487,9.7532,9.7604,9.7656,9.7695,9.7695,9.7695,9.7695,9.7695,9.7695,9.7695,9.7695,9.7695,9.7695,9.7695,9.7695,9.7695,9.7695,9.7695,9.7695,9.7695,9.7695,9.7695,9.7695,9.7695,9.7695,9.7695,9.7695,9.7695,9.7695,9.7695,9.7695,9.7695,9.7695,9.7695,9.7695,9.7695,9.7695,9.7695,9.7695,9.7695,9.7695,9.7695,9.7695,9.7695,9.7695,9.7695,9.7695,9.7695,9.7695,9.7695,9.7695,9.7695,9.7695,9.7695,9.7695,9.7695,9.7695,9.7695,9.7695,9.7695,9.7695,9.7695,9.7695,9.7695,9.7695,9.7695,9.7695,9.7695,9.7695,9.7695,9.7695,9.7695,9.7695,9.7695,8.8898,8.9476,9.0409,9.081,9.0905,9.1439,9.1716,9.1716,9.1716,9.1716,9.1716,9.1716,9.1716,9.1716,9.1716,9.1716,9.1716,9.1716,9.1716,9.1716,9.1716,9.1716,9.1793,9.2064,9.2405,9.2799,9.3147,9.365,9.4346,9.4501,9.4888,9.57,9.576,9.6137,9.6885,9.6986,9.7044,9.7237,9.7405,9.7539,9.7617,9.7656,9.7656,9.7695,9.7695,9.7695,9.7695,9.7695,9.7695,9.7695,9.7695,9.7695,9.7695,9.7695,9.7695,9.7695,9.7695,9.7695,9.7695,9.7695,9.7695,9.7695,9.7695,9.7695,9.7695,9.7695,9.7695,9.7695,9.7695,9.7695,9.7695,9.7695,9.7695,9.7695,9.7695,9.7695,9.7695,9.7695,9.7695,9.7695,9.7695,9.7695,9.7695,9.7695,9.7695,9.7695,9.7695,9.7695,9.7695,9.7695,9.7695,9.7695,9.7695,9.7695,9.7695,9.7695,9.7695,9.7695,9.7695,9.7695,9.7695,9.7695,9.7695,9.7695,9.7695,9.7695,9.7695,9.7695,9.7695,9.7695,9.7695,9.7695,9.7695,9.7695,9.7695]}]]